Time,TemperatureF,DewpointF,PressureIn,WindDirection,WindDirectionDegrees,WindSpeedMPH,WindSpeedGustMPH,Humidity,HourlyPrecipIn,Conditions,Clouds,dailyrainin,SoftwareType,DateUTC
2013-01-14 00:00:00,34.3,32.5,30.15,WSW,257,0.0,2.0,93,0.00,,---,0.00,VWS V14.01,2013-01-14 05:00:00,
2013-01-14 00:01:00,34.3,32.5,30.15,WSW,258,0.0,0.0,93,0.00,,---,0.00,VWS V14.01,2013-01-14 05:01:00,
2013-01-14 00:02:00,34.3,32.5,30.15,NW,318,2.0,6.0,93,0.00,,---,0.00,VWS V14.01,2013-01-14 05:02:00,
2013-01-14 00:03:00,34.2,32.4,30.15,NW,308,0.0,2.0,93,0.00,,---,0.00,VWS V14.01,2013-01-14 05:03:00,
2013-01-14 00:04:00,34.2,32.4,30.15,NW,323,0.0,2.0,93,0.00,,---,0.00,VWS V14.01,2013-01-14 05:04:00,
2013-01-14 00:05:00,34.2,32.4,30.15,NW,310,3.0,5.0,93,0.00,,---,0.00,VWS V14.01,2013-01-14 05:05:00,
2013-01-14 00:06:00,34.2,32.4,30.15,WNW,301,0.0,4.0,93,0.00,,---,0.00,VWS V14.01,2013-01-14 05:06:00,
2013-01-14 00:07:00,34.1,32.0,30.15,NW,317,1.0,3.0,92,0.00,,---,0.00,VWS V14.01,2013-01-14 05:07:00,
2013-01-14 00:08:00,34.1,32.0,30.15,NW,321,1.0,3.0,92,0.00,,---,0.00,VWS V14.01,2013-01-14 05:08:00,
2013-01-14 00:09:00,34.0,31.9,30.15,NW,313,1.0,3.0,92,0.00,,---,0.00,VWS V14.01,2013-01-14 05:09:00,
2013-01-14 00:10:00,33.9,31.8,30.15,NW,320,0.0,3.0,92,0.00,,---,0.00,VWS V14.01,2013-01-14 05:10:00,
2013-01-14 00:11:00,33.9,31.8,30.15,NW,310,3.0,5.0,92,0.00,,---,0.00,VWS V14.01,2013-01-14 05:11:00,
2013-01-14 00:12:00,33.8,31.7,30.15,WNW,302,4.0,6.0,92,0.00,,---,0.00,VWS V14.01,2013-01-14 05:12:00,
2013-01-14 00:13:00,33.7,31.6,30.15,NW,310,0.0,4.0,92,0.00,,---,0.00,VWS V14.01,2013-01-14 05:13:00,
2013-01-14 00:14:00,33.7,31.6,30.15,WNW,286,3.0,4.0,92,0.00,,---,0.00,VWS V14.01,2013-01-14 05:14:00,
2013-01-14 00:15:00,33.7,31.6,30.15,WNW,296,0.0,3.0,92,0.00,,---,0.00,VWS V14.01,2013-01-14 05:15:00,
2013-01-14 00:16:00,33.6,31.5,30.15,WNW,297,1.0,2.0,92,0.00,,---,0.00,VWS V14.01,2013-01-14 05:16:00,
2013-01-14 00:17:00,33.6,31.5,30.15,NW,325,1.0,3.0,92,0.00,,---,0.00,VWS V14.01,2013-01-14 05:17:00,
2013-01-14 00:18:00,33.6,31.5,30.15,NNW,329,0.0,5.0,92,0.00,,---,0.00,VWS V14.01,2013-01-14 05:18:00,
2013-01-14 00:19:00,33.5,31.4,30.15,NNW,329,3.0,3.0,92,0.00,,---,0.00,VWS V14.01,2013-01-14 05:19:00,
2013-01-14 00:20:00,33.5,31.4,30.15,North,5,3.0,6.0,92,0.00,,---,0.00,VWS V14.01,2013-01-14 05:20:00,
2013-01-14 00:21:00,33.4,31.3,30.15,NNW,342,0.0,4.0,92,0.00,,---,0.00,VWS V14.01,2013-01-14 05:21:00,
2013-01-14 00:22:00,33.4,31.3,30.15,NW,313,7.0,7.0,92,0.00,,---,0.00,VWS V14.01,2013-01-14 05:22:00,
2013-01-14 00:23:00,33.3,31.2,30.15,North,349,5.0,10.0,92,0.00,,---,0.00,VWS V14.01,2013-01-14 05:23:00,
2013-01-14 00:24:00,33.3,31.0,30.15,NNW,327,3.0,5.0,91,0.00,,---,0.00,VWS V14.01,2013-01-14 05:24:00,
2013-01-14 00:25:00,33.2,30.9,30.15,NW,308,1.0,4.0,91,0.00,,---,0.00,VWS V14.01,2013-01-14 05:25:00,
2013-01-14 00:26:00,33.2,30.9,30.15,WNW,286,0.0,5.0,91,0.00,,---,0.00,VWS V14.01,2013-01-14 05:26:00,
2013-01-14 00:27:00,33.1,30.8,30.15,WNW,302,0.0,2.0,91,0.00,,---,0.00,VWS V14.01,2013-01-14 05:27:00,
2013-01-14 00:28:00,33.1,30.8,30.15,WNW,282,4.0,4.0,91,0.00,,---,0.00,VWS V14.01,2013-01-14 05:28:00,
2013-01-14 00:29:00,33.1,30.8,30.15,NW,306,0.0,8.0,91,0.00,,---,0.00,VWS V14.01,2013-01-14 05:29:00,
2013-01-14 00:30:00,33.0,30.7,30.15,NW,308,0.0,0.0,91,0.00,,---,0.00,VWS V14.01,2013-01-14 05:30:00,
2013-01-14 00:31:00,33.0,30.7,30.15,NW,308,0.0,3.0,91,0.00,,---,0.00,VWS V14.01,2013-01-14 05:31:00,
2013-01-14 00:32:00,33.0,30.7,30.15,NW,317,3.0,4.0,91,0.00,,---,0.00,VWS V14.01,2013-01-14 05:32:00,
2013-01-14 00:33:00,33.0,30.7,30.15,NW,307,0.0,3.0,91,0.00,,---,0.00,VWS V14.01,2013-01-14 05:33:00,
2013-01-14 00:34:00,32.9,30.6,30.16,NW,307,0.0,1.0,91,0.00,,---,0.00,VWS V14.01,2013-01-14 05:34:00,
2013-01-14 00:35:00,32.9,30.6,30.16,NW,326,0.0,3.0,91,0.00,,---,0.00,VWS V14.01,2013-01-14 05:35:00,
2013-01-14 00:36:00,32.9,30.6,30.16,NW,326,0.0,0.0,91,0.00,,---,0.00,VWS V14.01,2013-01-14 05:36:00,
2013-01-14 00:37:00,32.9,30.6,30.16,NW,326,0.0,0.0,91,0.00,,---,0.00,VWS V14.01,2013-01-14 05:37:00,
2013-01-14 00:38:00,32.8,30.5,30.16,NNW,328,2.0,2.0,91,0.00,,---,0.00,VWS V14.01,2013-01-14 05:38:00,
2013-01-14 00:39:00,32.8,30.5,30.16,NNW,328,0.0,3.0,91,0.00,,---,0.00,VWS V14.01,2013-01-14 05:39:00,
2013-01-14 00:40:00,32.8,30.5,30.16,NW,304,2.0,2.0,91,0.00,,---,0.00,VWS V14.01,2013-01-14 05:40:00,
2013-01-14 00:41:00,32.8,30.5,30.16,NW,311,0.0,3.0,91,0.00,,---,0.00,VWS V14.01,2013-01-14 05:41:00,
2013-01-14 00:42:00,32.7,30.4,30.16,North,360,3.0,7.0,91,0.00,,---,0.00,VWS V14.01,2013-01-14 05:42:00,
2013-01-14 00:43:00,32.7,30.4,30.16,North,355,1.0,3.0,91,0.00,,---,0.00,VWS V14.01,2013-01-14 05:43:00,
2013-01-14 00:44:00,32.7,30.4,30.16,North,355,1.0,1.0,91,0.00,,---,0.00,VWS V14.01,2013-01-14 05:44:00,
2013-01-14 00:45:00,32.7,30.4,30.16,North,355,1.0,1.0,91,0.00,,---,0.00,VWS V14.01,2013-01-14 05:45:00,
2013-01-14 00:46:00,32.5,30.2,30.16,NW,313,2.0,4.0,91,0.00,,---,0.00,VWS V14.01,2013-01-14 05:46:00,
2013-01-14 00:47:00,32.4,30.1,30.16,WNW,301,3.0,5.0,91,0.00,,---,0.00,VWS V14.01,2013-01-14 05:47:00,
2013-01-14 00:48:00,32.3,29.7,30.16,NW,304,0.0,3.0,90,0.00,,---,0.00,VWS V14.01,2013-01-14 05:48:00,
2013-01-14 00:49:00,32.3,29.7,30.16,NW,304,1.0,2.0,90,0.00,,---,0.00,VWS V14.01,2013-01-14 05:49:00,
2013-01-14 00:50:00,32.2,29.6,30.16,NNW,331,2.0,5.0,90,0.00,,---,0.00,VWS V14.01,2013-01-14 05:50:00,
2013-01-14 00:51:00,32.1,29.5,30.16,NNW,333,0.0,2.0,90,0.00,,---,0.00,VWS V14.01,2013-01-14 05:51:00,
2013-01-14 00:52:00,32.1,29.5,30.16,WNW,290,4.0,5.0,90,0.00,,---,0.00,VWS V14.01,2013-01-14 05:52:00,
2013-01-14 00:53:00,32.0,29.4,30.16,NNW,334,4.0,5.0,90,0.00,,---,0.00,VWS V14.01,2013-01-14 05:53:00,
2013-01-14 00:54:00,31.9,29.3,30.17,NW,312,0.0,4.0,90,0.00,,---,0.00,VWS V14.01,2013-01-14 05:54:00,
2013-01-14 00:55:00,31.9,29.3,30.17,NW,312,0.0,1.0,90,0.00,,---,0.00,VWS V14.01,2013-01-14 05:55:00,
2013-01-14 00:56:00,31.8,29.2,30.17,NW,312,0.0,0.0,90,0.00,,---,0.00,VWS V14.01,2013-01-14 05:56:00,
2013-01-14 00:57:00,31.8,29.2,30.17,NW,312,0.0,0.0,90,0.00,,---,0.00,VWS V14.01,2013-01-14 05:57:00,
2013-01-14 00:58:00,31.7,29.1,30.17,NW,311,1.0,1.0,90,0.00,,---,0.00,VWS V14.01,2013-01-14 05:58:00,
2013-01-14 00:59:00,31.7,29.1,30.17,NW,312,3.0,3.0,90,0.00,,---,0.00,VWS V14.01,2013-01-14 05:59:00,
2013-01-14 01:00:00,31.7,29.1,30.17,NW,323,0.0,4.0,90,0.00,,---,0.00,VWS V14.01,2013-01-14 06:00:00,
2013-01-14 01:01:00,31.6,29.0,30.17,NW,315,4.0,4.0,90,0.00,,---,0.00,VWS V14.01,2013-01-14 06:01:00,
2013-01-14 01:02:00,31.6,29.0,30.17,NW,316,0.0,4.0,90,0.00,,---,0.00,VWS V14.01,2013-01-14 06:02:00,
2013-01-14 01:03:00,31.5,28.9,30.18,NW,326,0.0,1.0,90,0.00,,---,0.00,VWS V14.01,2013-01-14 06:03:00,
2013-01-14 01:04:00,31.5,28.9,30.18,NW,306,0.0,2.0,90,0.00,,---,0.00,VWS V14.01,2013-01-14 06:04:00,
2013-01-14 01:05:00,31.5,28.9,30.18,NW,309,0.0,1.0,90,0.00,,---,0.00,VWS V14.01,2013-01-14 06:05:00,
2013-01-14 01:06:00,31.4,28.8,30.18,WNW,294,0.0,3.0,90,0.00,,---,0.00,VWS V14.01,2013-01-14 06:06:00,
2013-01-14 01:07:00,31.4,28.8,30.18,NW,308,0.0,4.0,90,0.00,,---,0.00,VWS V14.01,2013-01-14 06:07:00,
2013-01-14 01:08:00,31.3,28.7,30.18,NW,308,2.0,2.0,90,0.00,,---,0.00,VWS V14.01,2013-01-14 06:08:00,
2013-01-14 01:09:00,31.3,28.7,30.18,NW,317,1.0,4.0,90,0.00,,---,0.00,VWS V14.01,2013-01-14 06:09:00,
2013-01-14 01:10:00,31.2,28.3,30.18,NW,313,0.0,1.0,89,0.00,,---,0.00,VWS V14.01,2013-01-14 06:10:00,
2013-01-14 01:11:00,31.2,28.6,30.18,NNW,331,2.0,2.0,90,0.00,,---,0.00,VWS V14.01,2013-01-14 06:11:00,
2013-01-14 01:12:00,31.2,28.3,30.18,NNW,331,0.0,2.0,89,0.00,,---,0.00,VWS V14.01,2013-01-14 06:12:00,
2013-01-14 01:13:00,31.1,28.2,30.18,NW,322,0.0,1.0,89,0.00,,---,0.00,VWS V14.01,2013-01-14 06:13:00,
2013-01-14 01:14:00,31.1,28.2,30.18,NW,322,0.0,1.0,89,0.00,,---,0.00,VWS V14.01,2013-01-14 06:14:00,
2013-01-14 01:15:00,31.1,28.2,30.18,NW,310,1.0,3.0,89,0.00,,---,0.00,VWS V14.01,2013-01-14 06:15:00,
2013-01-14 01:16:00,31.0,28.4,30.18,NW,310,0.0,1.0,90,0.00,,---,0.00,VWS V14.01,2013-01-14 06:16:00,
2013-01-14 01:17:00,31.0,28.1,30.18,NW,310,0.0,1.0,89,0.00,,---,0.00,VWS V14.01,2013-01-14 06:17:00,
2013-01-14 01:18:00,31.0,28.1,30.18,NW,310,2.0,2.0,89,0.00,,---,0.00,VWS V14.01,2013-01-14 06:18:00,
2013-01-14 01:19:00,31.0,28.1,30.18,NNW,343,1.0,2.0,89,0.00,,---,0.00,VWS V14.01,2013-01-14 06:19:00,
2013-01-14 01:20:00,30.9,28.0,30.18,NNW,327,2.0,4.0,89,0.00,,---,0.00,VWS V14.01,2013-01-14 06:20:00,
2013-01-14 01:21:00,30.8,28.0,30.18,WNW,302,3.0,8.0,89,0.00,,---,0.00,VWS V14.01,2013-01-14 06:21:00,
2013-01-14 01:22:00,30.8,28.0,30.19,NW,307,0.0,3.0,89,0.00,,---,0.00,VWS V14.01,2013-01-14 06:22:00,
2013-01-14 01:23:00,30.8,28.0,30.19,NW,319,3.0,3.0,89,0.00,,---,0.00,VWS V14.01,2013-01-14 06:23:00,
2013-01-14 01:24:00,30.8,28.0,30.19,NW,311,2.0,6.0,89,0.00,,---,0.00,VWS V14.01,2013-01-14 06:24:00,
2013-01-14 01:25:00,30.7,27.9,30.19,WNW,300,0.0,4.0,89,0.00,,---,0.00,VWS V14.01,2013-01-14 06:25:00,
2013-01-14 01:26:00,30.7,27.9,30.19,WNW,300,0.0,2.0,89,0.00,,---,0.00,VWS V14.01,2013-01-14 06:26:00,
2013-01-14 01:27:00,30.7,27.9,30.19,West,281,2.0,2.0,89,0.00,,---,0.00,VWS V14.01,2013-01-14 06:27:00,
2013-01-14 01:28:00,30.7,27.9,30.19,West,281,0.0,2.0,89,0.00,,---,0.00,VWS V14.01,2013-01-14 06:28:00,
2013-01-14 01:29:00,30.7,27.9,30.19,NNW,338,1.0,4.0,89,0.00,,---,0.00,VWS V14.01,2013-01-14 06:29:00,
2013-01-14 01:30:00,30.6,27.8,30.20,NW,323,1.0,1.0,89,0.00,,---,0.00,VWS V14.01,2013-01-14 06:30:00,
2013-01-14 01:31:00,30.6,27.8,30.19,NW,323,0.0,3.0,89,0.00,,---,0.00,VWS V14.01,2013-01-14 06:31:00,
2013-01-14 01:32:00,30.6,27.8,30.20,NW,323,1.0,2.0,89,0.00,,---,0.00,VWS V14.01,2013-01-14 06:32:00,
2013-01-14 01:33:00,30.6,27.8,30.20,NNW,328,1.0,2.0,89,0.00,,---,0.00,VWS V14.01,2013-01-14 06:33:00,
2013-01-14 01:34:00,30.5,27.6,30.20,NW,308,0.0,3.0,89,0.00,,---,0.00,VWS V14.01,2013-01-14 06:34:00,
2013-01-14 01:35:00,30.5,27.6,30.20,NW,309,1.0,3.0,89,0.00,,---,0.00,VWS V14.01,2013-01-14 06:35:00,
2013-01-14 01:36:00,30.5,27.6,30.20,NNW,328,2.0,2.0,89,0.00,,---,0.00,VWS V14.01,2013-01-14 06:36:00,
2013-01-14 01:37:00,30.5,27.6,30.20,NW,322,0.0,2.0,89,0.00,,---,0.00,VWS V14.01,2013-01-14 06:37:00,
2013-01-14 01:38:00,30.5,27.6,30.20,NNW,336,2.0,3.0,89,0.00,,---,0.00,VWS V14.01,2013-01-14 06:38:00,
2013-01-14 01:39:00,30.5,27.6,30.20,NNW,327,0.0,5.0,89,0.00,,---,0.00,VWS V14.01,2013-01-14 06:39:00,
2013-01-14 01:40:00,30.4,27.5,30.20,NW,325,2.0,4.0,89,0.00,,---,0.00,VWS V14.01,2013-01-14 06:40:00,
2013-01-14 01:41:00,30.4,27.5,30.20,NNW,331,0.0,2.0,89,0.00,,---,0.00,VWS V14.01,2013-01-14 06:41:00,
2013-01-14 01:42:00,30.3,27.5,30.20,WNW,296,4.0,4.0,89,0.00,,---,0.00,VWS V14.01,2013-01-14 06:42:00,
2013-01-14 01:43:00,30.3,27.5,30.20,WNW,296,0.0,4.0,89,0.00,,---,0.00,VWS V14.01,2013-01-14 06:43:00,
2013-01-14 01:44:00,30.3,27.5,30.20,NW,311,0.0,4.0,89,0.00,,---,0.00,VWS V14.01,2013-01-14 06:44:00,
2013-01-14 01:45:00,30.2,27.1,30.20,NNW,338,3.0,4.0,88,0.00,,---,0.00,VWS V14.01,2013-01-14 06:45:00,
2013-01-14 01:46:00,30.2,27.1,30.20,NW,308,2.0,4.0,88,0.00,,---,0.00,VWS V14.01,2013-01-14 06:46:00,
2013-01-14 01:47:00,30.1,27.0,30.20,NNE,15,2.0,2.0,88,0.00,,---,0.00,VWS V14.01,2013-01-14 06:47:00,
2013-01-14 01:48:00,30.1,27.0,30.20,NNE,18,0.0,2.0,88,0.00,,---,0.00,VWS V14.01,2013-01-14 06:48:00,
2013-01-14 01:49:00,30.1,27.0,30.20,NNE,18,0.0,0.0,88,0.00,,---,0.00,VWS V14.01,2013-01-14 06:49:00,
2013-01-14 01:50:00,30.1,27.0,30.20,NNE,18,0.0,0.0,88,0.00,,---,0.00,VWS V14.01,2013-01-14 06:50:00,
2013-01-14 01:51:00,30.1,27.0,30.20,NNE,18,0.0,0.0,88,0.00,,---,0.00,VWS V14.01,2013-01-14 06:51:00,
2013-01-14 01:52:00,30.1,27.0,30.20,NNE,18,0.0,0.0,88,0.00,,---,0.00,VWS V14.01,2013-01-14 06:52:00,
2013-01-14 01:53:00,30.1,27.0,30.21,NNE,18,0.0,0.0,88,0.00,,---,0.00,VWS V14.01,2013-01-14 06:53:00,
2013-01-14 01:54:00,30.1,27.0,30.21,NNE,18,0.0,0.0,88,0.00,,---,0.00,VWS V14.01,2013-01-14 06:54:00,
2013-01-14 01:55:00,30.1,27.0,30.21,NW,312,0.0,0.0,88,0.00,,---,0.00,VWS V14.01,2013-01-14 06:55:00,
2013-01-14 01:56:00,29.8,26.7,30.21,NW,312,0.0,1.0,88,0.00,,---,0.00,VWS V14.01,2013-01-14 06:56:00,
2013-01-14 01:57:00,29.8,26.7,30.21,NW,313,0.0,0.0,88,0.00,,---,0.00,VWS V14.01,2013-01-14 06:57:00,
2013-01-14 01:58:00,29.8,26.7,30.21,NW,312,1.0,1.0,88,0.00,,---,0.00,VWS V14.01,2013-01-14 06:58:00,
2013-01-14 01:59:00,29.8,26.7,30.20,NW,312,0.0,2.0,88,0.00,,---,0.00,VWS V14.01,2013-01-14 06:59:00,
2013-01-14 02:00:00,29.7,26.6,30.20,WNW,302,0.0,4.0,88,0.00,,---,0.00,VWS V14.01,2013-01-14 07:00:00,
2013-01-14 02:01:00,29.7,26.6,30.20,NW,317,2.0,5.0,88,0.00,,---,0.00,VWS V14.01,2013-01-14 07:01:00,
2013-01-14 02:02:00,29.7,26.6,30.21,NW,319,1.0,4.0,88,0.00,,---,0.00,VWS V14.01,2013-01-14 07:02:00,
2013-01-14 02:03:00,29.7,26.6,30.21,NW,319,0.0,2.0,88,0.00,,---,0.00,VWS V14.01,2013-01-14 07:03:00,
2013-01-14 02:04:00,29.6,26.5,30.21,WNW,296,0.0,4.0,88,0.00,,---,0.00,VWS V14.01,2013-01-14 07:04:00,
2013-01-14 02:05:00,29.6,26.5,30.21,WNW,296,0.0,0.0,88,0.00,,---,0.00,VWS V14.01,2013-01-14 07:05:00,
2013-01-14 02:06:00,29.6,26.5,30.21,NNW,345,0.0,3.0,88,0.00,,---,0.00,VWS V14.01,2013-01-14 07:06:00,
2013-01-14 02:07:00,29.6,26.5,30.21,NNW,345,1.0,1.0,88,0.00,,---,0.00,VWS V14.01,2013-01-14 07:07:00,
2013-01-14 02:08:00,29.6,26.5,30.21,NNW,328,0.0,2.0,88,0.00,,---,0.00,VWS V14.01,2013-01-14 07:08:00,
2013-01-14 02:09:00,29.5,26.4,30.21,NW,317,0.0,3.0,88,0.00,,---,0.00,VWS V14.01,2013-01-14 07:09:00,
2013-01-14 02:10:00,29.5,26.4,30.21,NNW,333,1.0,2.0,88,0.00,,---,0.00,VWS V14.01,2013-01-14 07:10:00,
2013-01-14 02:11:00,29.5,26.4,30.21,NW,310,2.0,4.0,88,0.00,,---,0.00,VWS V14.01,2013-01-14 07:11:00,
2013-01-14 02:12:00,29.4,26.3,30.22,NW,311,0.0,2.0,88,0.00,,---,0.00,VWS V14.01,2013-01-14 07:12:00,
2013-01-14 02:13:00,29.4,26.3,30.22,NW,320,0.0,1.0,88,0.00,,---,0.00,VWS V14.01,2013-01-14 07:13:00,
2013-01-14 02:14:00,29.4,26.3,30.22,NW,325,2.0,4.0,88,0.00,,---,0.00,VWS V14.01,2013-01-14 07:14:00,
2013-01-14 02:15:00,29.4,26.3,30.21,North,355,1.0,3.0,88,0.00,,---,0.00,VWS V14.01,2013-01-14 07:15:00,
2013-01-14 02:16:00,29.3,25.9,30.21,NW,312,4.0,5.0,87,0.00,,---,0.00,VWS V14.01,2013-01-14 07:16:00,
2013-01-14 02:17:00,29.3,25.9,30.21,NW,323,2.0,4.0,87,0.00,,---,0.00,VWS V14.01,2013-01-14 07:17:00,
2013-01-14 02:18:00,29.2,25.8,30.21,WNW,301,5.0,5.0,87,0.00,,---,0.00,VWS V14.01,2013-01-14 07:18:00,
2013-01-14 02:19:00,29.2,25.8,30.21,NW,324,0.0,5.0,87,0.00,,---,0.00,VWS V14.01,2013-01-14 07:19:00,
2013-01-14 02:20:00,29.1,25.7,30.21,NW,326,1.0,4.0,87,0.00,,---,0.00,VWS V14.01,2013-01-14 07:20:00,
2013-01-14 02:21:00,29.1,25.7,30.22,NW,306,0.0,5.0,87,0.00,,---,0.00,VWS V14.01,2013-01-14 07:21:00,
2013-01-14 02:22:00,29.0,25.3,30.22,NW,307,1.0,4.0,86,0.00,,---,0.00,VWS V14.01,2013-01-14 07:22:00,
2013-01-14 02:23:00,29.0,25.3,30.22,NW,309,2.0,3.0,86,0.00,,---,0.00,VWS V14.01,2013-01-14 07:23:00,
2013-01-14 02:24:00,28.9,25.2,30.22,NW,305,1.0,4.0,86,0.00,,---,0.00,VWS V14.01,2013-01-14 07:24:00,
2013-01-14 02:25:00,28.8,25.1,30.22,NW,305,0.0,1.0,86,0.00,,---,0.00,VWS V14.01,2013-01-14 07:25:00,
2013-01-14 02:26:00,28.8,25.1,30.22,NW,305,0.0,2.0,86,0.00,,---,0.00,VWS V14.01,2013-01-14 07:26:00,
2013-01-14 02:27:00,28.7,25.0,30.22,West,262,1.0,1.0,86,0.00,,---,0.00,VWS V14.01,2013-01-14 07:27:00,
2013-01-14 02:28:00,28.7,25.0,30.22,NW,318,1.0,2.0,86,0.00,,---,0.00,VWS V14.01,2013-01-14 07:28:00,
2013-01-14 02:29:00,28.7,25.0,30.22,WNW,299,0.0,1.0,86,0.00,,---,0.00,VWS V14.01,2013-01-14 07:29:00,
2013-01-14 02:30:00,28.6,25.0,30.22,WNW,299,0.0,0.0,86,0.00,,---,0.00,VWS V14.01,2013-01-14 07:30:00,
2013-01-14 02:31:00,28.6,25.0,30.22,NW,304,0.0,2.0,86,0.00,,---,0.00,VWS V14.01,2013-01-14 07:31:00,
2013-01-14 02:32:00,28.5,25.1,30.22,NW,307,3.0,5.0,87,0.00,,---,0.00,VWS V14.01,2013-01-14 07:32:00,
2013-01-14 02:33:00,28.5,24.9,30.22,NW,310,2.0,3.0,86,0.00,,---,0.00,VWS V14.01,2013-01-14 07:33:00,
2013-01-14 02:34:00,28.4,24.8,30.22,WNW,294,0.0,4.0,86,0.00,,---,0.00,VWS V14.01,2013-01-14 07:34:00,
2013-01-14 02:35:00,28.4,24.8,30.22,WNW,294,2.0,2.0,86,0.00,,---,0.00,VWS V14.01,2013-01-14 07:35:00,
2013-01-14 02:36:00,28.3,24.7,30.23,WNW,294,0.0,2.0,86,0.00,,---,0.00,VWS V14.01,2013-01-14 07:36:00,
2013-01-14 02:37:00,28.4,24.8,30.22,WNW,294,0.0,0.0,86,0.00,,---,0.00,VWS V14.01,2013-01-14 07:37:00,
2013-01-14 02:38:00,28.3,24.7,30.23,WNW,287,2.0,4.0,86,0.00,,---,0.00,VWS V14.01,2013-01-14 07:38:00,
2013-01-14 02:39:00,28.3,24.7,30.23,WNW,290,0.0,2.0,86,0.00,,---,0.00,VWS V14.01,2013-01-14 07:39:00,
2013-01-14 02:40:00,28.2,24.6,30.23,West,280,0.0,6.0,86,0.00,,---,0.00,VWS V14.01,2013-01-14 07:40:00,
2013-01-14 02:41:00,28.2,24.8,30.23,West,280,0.0,0.0,87,0.00,,---,0.00,VWS V14.01,2013-01-14 07:41:00,
2013-01-14 02:42:00,28.1,24.7,30.23,NNW,337,0.0,5.0,87,0.00,,---,0.00,VWS V14.01,2013-01-14 07:42:00,
2013-01-14 02:43:00,28.2,24.8,30.23,NW,305,2.0,4.0,87,0.00,,---,0.00,VWS V14.01,2013-01-14 07:43:00,
2013-01-14 02:44:00,28.1,24.7,30.23,NW,316,0.0,7.0,87,0.00,,---,0.00,VWS V14.01,2013-01-14 07:44:00,
2013-01-14 02:45:00,28.1,24.5,30.23,NW,316,0.0,0.0,86,0.00,,---,0.00,VWS V14.01,2013-01-14 07:45:00,
2013-01-14 02:46:00,28.0,24.4,30.23,ENE,57,1.0,2.0,86,0.00,,---,0.00,VWS V14.01,2013-01-14 07:46:00,
2013-01-14 02:47:00,28.0,24.4,30.23,ENE,57,0.0,1.0,86,0.00,,---,0.00,VWS V14.01,2013-01-14 07:47:00,
2013-01-14 02:48:00,27.9,24.3,30.23,NW,313,0.0,2.0,86,0.00,,---,0.00,VWS V14.01,2013-01-14 07:48:00,
2013-01-14 02:49:00,27.9,24.3,30.23,NNE,22,2.0,3.0,86,0.00,,---,0.00,VWS V14.01,2013-01-14 07:49:00,
2013-01-14 02:50:00,27.9,24.3,30.23,NNW,329,0.0,2.0,86,0.00,,---,0.00,VWS V14.01,2013-01-14 07:50:00,
2013-01-14 02:51:00,27.9,24.3,30.23,NNE,13,2.0,3.0,86,0.00,,---,0.00,VWS V14.01,2013-01-14 07:51:00,
2013-01-14 02:52:00,27.8,24.2,30.23,WNW,289,2.0,5.0,86,0.00,,---,0.00,VWS V14.01,2013-01-14 07:52:00,
2013-01-14 02:53:00,27.8,24.2,30.23,NW,309,0.0,5.0,86,0.00,,---,0.00,VWS V14.01,2013-01-14 07:53:00,
2013-01-14 02:54:00,27.7,24.1,30.23,NNW,346,0.0,2.0,86,0.00,,---,0.00,VWS V14.01,2013-01-14 07:54:00,
2013-01-14 02:55:00,27.7,24.1,30.23,NNW,346,0.0,0.0,86,0.00,,---,0.00,VWS V14.01,2013-01-14 07:55:00,
2013-01-14 02:56:00,27.7,24.1,30.24,WNW,302,1.0,3.0,86,0.00,,---,0.00,VWS V14.01,2013-01-14 07:56:00,
2013-01-14 02:57:00,27.7,24.3,30.24,West,271,4.0,4.0,87,0.00,,---,0.00,VWS V14.01,2013-01-14 07:57:00,
2013-01-14 02:58:00,27.6,24.2,30.24,WNW,286,2.0,4.0,87,0.00,,---,0.00,VWS V14.01,2013-01-14 07:58:00,
2013-01-14 02:59:00,27.6,24.2,30.24,NNW,339,0.0,3.0,87,0.00,,---,0.00,VWS V14.01,2013-01-14 07:59:00,
2013-01-14 03:00:00,27.6,24.2,30.24,WNW,292,1.0,2.0,87,0.00,,---,0.00,VWS V14.01,2013-01-14 08:00:00,
2013-01-14 03:01:00,27.5,24.1,30.24,NW,311,0.0,1.0,87,0.00,,---,0.00,VWS V14.01,2013-01-14 08:01:00,
2013-01-14 03:02:00,27.5,24.1,30.24,NNE,19,0.0,1.0,87,0.00,,---,0.00,VWS V14.01,2013-01-14 08:02:00,
2013-01-14 03:03:00,27.5,24.1,30.24,NNE,19,0.0,0.0,87,0.00,,---,0.00,VWS V14.01,2013-01-14 08:03:00,
2013-01-14 03:04:00,27.5,24.1,30.24,North,349,0.0,1.0,87,0.00,,---,0.00,VWS V14.01,2013-01-14 08:04:00,
2013-01-14 03:05:00,27.4,24.0,30.24,WNW,295,3.0,4.0,87,0.00,,---,0.00,VWS V14.01,2013-01-14 08:05:00,
2013-01-14 03:06:00,27.4,24.0,30.24,WNW,300,0.0,3.0,87,0.00,,---,0.00,VWS V14.01,2013-01-14 08:06:00,
2013-01-14 03:07:00,27.4,24.0,30.24,WNW,292,2.0,3.0,87,0.00,,---,0.00,VWS V14.01,2013-01-14 08:07:00,
2013-01-14 03:08:00,27.4,24.0,30.24,WNW,296,0.0,2.0,87,0.00,,---,0.00,VWS V14.01,2013-01-14 08:08:00,
2013-01-14 03:09:00,27.4,24.0,30.24,WNW,296,0.0,2.0,87,0.00,,---,0.00,VWS V14.01,2013-01-14 08:09:00,
2013-01-14 03:10:00,27.3,24.0,30.24,WNW,296,0.0,0.0,87,0.00,,---,0.00,VWS V14.01,2013-01-14 08:10:00,
2013-01-14 03:11:00,27.3,24.0,30.24,WNW,298,2.0,3.0,87,0.00,,---,0.00,VWS V14.01,2013-01-14 08:11:00,
2013-01-14 03:12:00,27.2,23.9,30.24,North,355,2.0,2.0,87,0.00,,---,0.00,VWS V14.01,2013-01-14 08:12:00,
2013-01-14 03:13:00,27.2,23.9,30.24,WNW,286,2.0,2.0,87,0.00,,---,0.00,VWS V14.01,2013-01-14 08:13:00,
2013-01-14 03:14:00,27.2,23.9,30.24,NW,304,1.0,4.0,87,0.00,,---,0.00,VWS V14.01,2013-01-14 08:14:00,
2013-01-14 03:15:00,27.2,23.9,30.24,NW,316,1.0,3.0,87,0.00,,---,0.00,VWS V14.01,2013-01-14 08:15:00,
2013-01-14 03:16:00,27.1,23.8,30.24,WNW,298,0.0,3.0,87,0.00,,---,0.00,VWS V14.01,2013-01-14 08:16:00,
2013-01-14 03:17:00,27.1,23.8,30.24,NW,311,0.0,2.0,87,0.00,,---,0.00,VWS V14.01,2013-01-14 08:17:00,
2013-01-14 03:18:00,27.1,24.0,30.24,NNW,329,2.0,2.0,88,0.00,,---,0.00,VWS V14.01,2013-01-14 08:18:00,
2013-01-14 03:19:00,27.1,24.0,30.24,NNW,346,3.0,4.0,88,0.00,,---,0.00,VWS V14.01,2013-01-14 08:19:00,
2013-01-14 03:20:00,27.0,23.9,30.24,NW,306,2.0,3.0,88,0.00,,---,0.00,VWS V14.01,2013-01-14 08:20:00,
2013-01-14 03:21:00,27.0,23.6,30.24,NW,310,0.0,2.0,87,0.00,,---,0.00,VWS V14.01,2013-01-14 08:21:00,
2013-01-14 03:22:00,27.0,23.9,30.24,NW,311,0.0,2.0,88,0.00,,---,0.00,VWS V14.01,2013-01-14 08:22:00,
2013-01-14 03:23:00,27.0,23.9,30.24,WSW,255,0.0,3.0,88,0.00,,---,0.00,VWS V14.01,2013-01-14 08:23:00,
2013-01-14 03:24:00,27.0,23.9,30.24,WNW,285,0.0,3.0,88,0.00,,---,0.00,VWS V14.01,2013-01-14 08:24:00,
2013-01-14 03:25:00,27.0,23.9,30.24,NW,305,2.0,3.0,88,0.00,,---,0.00,VWS V14.01,2013-01-14 08:25:00,
2013-01-14 03:26:00,26.9,23.8,30.24,NW,306,1.0,3.0,88,0.00,,---,0.00,VWS V14.01,2013-01-14 08:26:00,
2013-01-14 03:27:00,27.0,23.9,30.24,NW,306,0.0,2.0,88,0.00,,---,0.00,VWS V14.01,2013-01-14 08:27:00,
2013-01-14 03:28:00,27.0,23.9,30.24,NNW,338,0.0,3.0,88,0.00,,---,0.00,VWS V14.01,2013-01-14 08:28:00,
2013-01-14 03:29:00,27.0,23.9,30.24,NNW,338,0.0,1.0,88,0.00,,---,0.00,VWS V14.01,2013-01-14 08:29:00,
2013-01-14 03:30:00,26.9,23.8,30.24,WNW,298,0.0,2.0,88,0.00,,---,0.00,VWS V14.01,2013-01-14 08:30:00,
2013-01-14 03:31:00,27.0,23.9,30.25,NW,316,0.0,2.0,88,0.00,,---,0.00,VWS V14.01,2013-01-14 08:31:00,
2013-01-14 03:32:00,26.9,23.8,30.25,NW,314,1.0,8.0,88,0.00,,---,0.00,VWS V14.01,2013-01-14 08:32:00,
2013-01-14 03:33:00,26.9,23.8,30.25,NW,325,0.0,4.0,88,0.00,,---,0.00,VWS V14.01,2013-01-14 08:33:00,
2013-01-14 03:34:00,26.9,23.8,30.24,NW,306,2.0,2.0,88,0.00,,---,0.00,VWS V14.01,2013-01-14 08:34:00,
2013-01-14 03:35:00,26.9,23.8,30.24,WNW,292,0.0,4.0,88,0.00,,---,0.00,VWS V14.01,2013-01-14 08:35:00,
2013-01-14 03:36:00,26.9,23.8,30.24,WNW,292,0.0,1.0,88,0.00,,---,0.00,VWS V14.01,2013-01-14 08:36:00,
2013-01-14 03:37:00,26.9,23.8,30.24,WNW,292,0.0,0.0,88,0.00,,---,0.00,VWS V14.01,2013-01-14 08:37:00,
2013-01-14 03:38:00,26.9,23.8,30.24,WNW,293,0.0,2.0,88,0.00,,---,0.00,VWS V14.01,2013-01-14 08:38:00,
2013-01-14 03:39:00,26.9,23.8,30.25,WNW,293,0.0,1.0,88,0.00,,---,0.00,VWS V14.01,2013-01-14 08:39:00,
2013-01-14 03:40:00,26.9,23.8,30.24,WNW,295,0.0,0.0,88,0.00,,---,0.00,VWS V14.01,2013-01-14 08:40:00,
2013-01-14 03:41:00,26.8,23.7,30.24,NW,325,0.0,4.0,88,0.00,,---,0.00,VWS V14.01,2013-01-14 08:41:00,
2013-01-14 03:42:00,26.8,23.7,30.25,NNE,19,3.0,3.0,88,0.00,,---,0.00,VWS V14.01,2013-01-14 08:42:00,
2013-01-14 03:43:00,26.8,23.7,30.25,NNW,330,1.0,5.0,88,0.00,,---,0.00,VWS V14.01,2013-01-14 08:43:00,
2013-01-14 03:44:00,26.7,23.6,30.25,WNW,303,3.0,6.0,88,0.00,,---,0.00,VWS V14.01,2013-01-14 08:44:00,
2013-01-14 03:45:00,26.7,23.4,30.25,WNW,303,0.0,3.0,87,0.00,,---,0.00,VWS V14.01,2013-01-14 08:45:00,
2013-01-14 03:46:00,26.6,23.3,30.25,North,9,5.0,5.0,87,0.00,,---,0.00,VWS V14.01,2013-01-14 08:46:00,
2013-01-14 03:47:00,26.6,23.3,30.25,NNW,341,0.0,5.0,87,0.00,,---,0.00,VWS V14.01,2013-01-14 08:47:00,
2013-01-14 03:48:00,26.5,23.2,30.25,North,350,2.0,2.0,87,0.00,,---,0.00,VWS V14.01,2013-01-14 08:48:00,
2013-01-14 03:49:00,26.5,23.2,30.25,NNW,348,0.0,2.0,87,0.00,,---,0.00,VWS V14.01,2013-01-14 08:49:00,
2013-01-14 03:50:00,26.4,23.1,30.25,NNW,333,1.0,3.0,87,0.00,,---,0.00,VWS V14.01,2013-01-14 08:50:00,
2013-01-14 03:51:00,26.4,23.1,30.25,NNW,339,0.0,4.0,87,0.00,,---,0.00,VWS V14.01,2013-01-14 08:51:00,
2013-01-14 03:52:00,26.3,23.0,30.25,NW,320,0.0,3.0,87,0.00,,---,0.00,VWS V14.01,2013-01-14 08:52:00,
2013-01-14 03:53:00,26.3,23.0,30.25,NNW,329,1.0,2.0,87,0.00,,---,0.00,VWS V14.01,2013-01-14 08:53:00,
2013-01-14 03:54:00,26.2,22.9,30.25,WNW,284,2.0,2.0,87,0.00,,---,0.00,VWS V14.01,2013-01-14 08:54:00,
2013-01-14 03:55:00,26.2,22.9,30.25,NW,323,1.0,5.0,87,0.00,,---,0.00,VWS V14.01,2013-01-14 08:55:00,
2013-01-14 03:56:00,26.2,22.9,30.25,North,360,1.0,4.0,87,0.00,,---,0.00,VWS V14.01,2013-01-14 08:56:00,
2013-01-14 03:57:00,26.1,22.8,30.25,NNW,346,1.0,2.0,87,0.00,,---,0.00,VWS V14.01,2013-01-14 08:57:00,
2013-01-14 03:58:00,26.1,22.8,30.25,NW,323,3.0,3.0,87,0.00,,---,0.00,VWS V14.01,2013-01-14 08:58:00,
2013-01-14 03:59:00,26.1,22.8,30.25,WNW,302,0.0,3.0,87,0.00,,---,0.00,VWS V14.01,2013-01-14 08:59:00,
2013-01-14 04:00:00,26.0,22.7,30.25,North,5,1.0,4.0,87,0.00,,---,0.00,VWS V14.01,2013-01-14 09:00:00,
2013-01-14 04:01:00,26.0,22.7,30.25,North,5,0.0,1.0,87,0.00,,---,0.00,VWS V14.01,2013-01-14 09:01:00,
2013-01-14 04:02:00,26.0,22.9,30.25,North,360,0.0,2.0,88,0.00,,---,0.00,VWS V14.01,2013-01-14 09:02:00,
2013-01-14 04:03:00,26.0,22.9,30.25,NNW,331,1.0,2.0,88,0.00,,---,0.00,VWS V14.01,2013-01-14 09:03:00,
2013-01-14 04:04:00,25.9,22.8,30.25,NW,315,2.0,5.0,88,0.00,,---,0.00,VWS V14.01,2013-01-14 09:04:00,
2013-01-14 04:05:00,25.9,22.8,30.26,North,355,1.0,2.0,88,0.00,,---,0.00,VWS V14.01,2013-01-14 09:05:00,
2013-01-14 04:06:00,25.8,22.7,30.26,WNW,299,2.0,3.0,88,0.00,,---,0.00,VWS V14.01,2013-01-14 09:06:00,
2013-01-14 04:07:00,25.8,22.7,30.26,NW,317,0.0,3.0,88,0.00,,---,0.00,VWS V14.01,2013-01-14 09:07:00,
2013-01-14 04:08:00,25.8,22.7,30.26,NW,324,1.0,1.0,88,0.00,,---,0.00,VWS V14.01,2013-01-14 09:08:00,
2013-01-14 04:09:00,25.8,22.7,30.26,NNE,20,2.0,5.0,88,0.00,,---,0.00,VWS V14.01,2013-01-14 09:09:00,
2013-01-14 04:10:00,25.7,22.6,30.26,NW,319,2.0,3.0,88,0.00,,---,0.00,VWS V14.01,2013-01-14 09:10:00,
2013-01-14 04:11:00,25.7,22.6,30.26,North,5,0.0,2.0,88,0.00,,---,0.00,VWS V14.01,2013-01-14 09:11:00,
2013-01-14 04:12:00,25.7,22.6,30.26,NNW,333,0.0,2.0,88,0.00,,---,0.00,VWS V14.01,2013-01-14 09:12:00,
2013-01-14 04:13:00,25.7,22.6,30.26,NNW,333,0.0,0.0,88,0.00,,---,0.00,VWS V14.01,2013-01-14 09:13:00,
2013-01-14 04:14:00,25.6,22.5,30.26,WNW,301,3.0,4.0,88,0.00,,---,0.00,VWS V14.01,2013-01-14 09:14:00,
2013-01-14 04:15:00,25.6,22.5,30.26,NW,319,3.0,3.0,88,0.00,,---,0.00,VWS V14.01,2013-01-14 09:15:00,
2013-01-14 04:16:00,25.5,22.5,30.26,NNW,337,1.0,3.0,88,0.00,,---,0.00,VWS V14.01,2013-01-14 09:16:00,
2013-01-14 04:17:00,25.5,22.5,30.26,NW,321,1.0,3.0,88,0.00,,---,0.00,VWS V14.01,2013-01-14 09:17:00,
2013-01-14 04:18:00,25.5,22.5,30.26,NW,309,3.0,5.0,88,0.00,,---,0.00,VWS V14.01,2013-01-14 09:18:00,
2013-01-14 04:19:00,25.5,22.5,30.26,NW,317,1.0,5.0,88,0.00,,---,0.00,VWS V14.01,2013-01-14 09:19:00,
2013-01-14 04:20:00,25.4,22.4,30.26,NNW,338,4.0,5.0,88,0.00,,---,0.00,VWS V14.01,2013-01-14 09:20:00,
2013-01-14 04:21:00,25.4,22.4,30.26,NW,307,0.0,5.0,88,0.00,,---,0.00,VWS V14.01,2013-01-14 09:21:00,
2013-01-14 04:22:00,25.4,22.4,30.26,WNW,296,1.0,5.0,88,0.00,,---,0.00,VWS V14.01,2013-01-14 09:22:00,
2013-01-14 04:23:00,25.4,22.4,30.26,WNW,296,1.0,2.0,88,0.00,,---,0.00,VWS V14.01,2013-01-14 09:23:00,
2013-01-14 04:24:00,25.3,22.2,30.26,NW,306,0.0,2.0,88,0.00,,---,0.00,VWS V14.01,2013-01-14 09:24:00,
2013-01-14 04:25:00,25.3,22.2,30.26,NW,306,1.0,1.0,88,0.00,,---,0.00,VWS V14.01,2013-01-14 09:25:00,
2013-01-14 04:26:00,25.3,22.2,30.26,NW,310,0.0,2.0,88,0.00,,---,0.00,VWS V14.01,2013-01-14 09:26:00,
2013-01-14 04:27:00,25.3,22.2,30.26,WNW,300,4.0,4.0,88,0.00,,---,0.00,VWS V14.01,2013-01-14 09:27:00,
2013-01-14 04:28:00,25.3,22.2,30.26,NW,320,3.0,5.0,88,0.00,,---,0.00,VWS V14.01,2013-01-14 09:28:00,
2013-01-14 04:29:00,25.3,22.2,30.26,NW,313,0.0,3.0,88,0.00,,---,0.00,VWS V14.01,2013-01-14 09:29:00,
2013-01-14 04:30:00,25.3,22.2,30.26,NW,313,2.0,7.0,88,0.00,,---,0.00,VWS V14.01,2013-01-14 09:30:00,
2013-01-14 04:31:00,25.3,22.2,30.26,NW,308,0.0,4.0,88,0.00,,---,0.00,VWS V14.01,2013-01-14 09:31:00,
2013-01-14 04:32:00,25.2,22.1,30.26,NW,308,0.0,2.0,88,0.00,,---,0.00,VWS V14.01,2013-01-14 09:32:00,
2013-01-14 04:33:00,25.2,22.1,30.26,NW,309,2.0,5.0,88,0.00,,---,0.00,VWS V14.01,2013-01-14 09:33:00,
2013-01-14 04:34:00,25.2,22.1,30.27,WNW,295,2.0,4.0,88,0.00,,---,0.00,VWS V14.01,2013-01-14 09:34:00,
2013-01-14 04:35:00,25.2,22.1,30.27,WNW,294,0.0,5.0,88,0.00,,---,0.00,VWS V14.01,2013-01-14 09:35:00,
2013-01-14 04:36:00,25.1,22.0,30.27,WNW,298,0.0,1.0,88,0.00,,---,0.00,VWS V14.01,2013-01-14 09:36:00,
2013-01-14 04:37:00,25.2,22.1,30.27,WNW,299,0.0,2.0,88,0.00,,---,0.00,VWS V14.01,2013-01-14 09:37:00,
2013-01-14 04:38:00,25.1,22.0,30.27,NW,304,1.0,1.0,88,0.00,,---,0.00,VWS V14.01,2013-01-14 09:38:00,
2013-01-14 04:39:00,25.1,22.0,30.27,NW,321,2.0,7.0,88,0.00,,---,0.00,VWS V14.01,2013-01-14 09:39:00,
2013-01-14 04:40:00,25.1,22.0,30.27,NNW,327,2.0,3.0,88,0.00,,---,0.00,VWS V14.01,2013-01-14 09:40:00,
2013-01-14 04:41:00,25.1,22.0,30.27,NW,326,0.0,3.0,88,0.00,,---,0.00,VWS V14.01,2013-01-14 09:41:00,
2013-01-14 04:42:00,25.0,22.0,30.27,NW,325,4.0,5.0,88,0.00,,---,0.00,VWS V14.01,2013-01-14 09:42:00,
2013-01-14 04:43:00,25.0,22.0,30.27,NW,325,2.0,5.0,88,0.00,,---,0.00,VWS V14.01,2013-01-14 09:43:00,
2013-01-14 04:44:00,24.9,21.9,30.27,West,279,3.0,3.0,88,0.00,,---,0.00,VWS V14.01,2013-01-14 09:44:00,
2013-01-14 04:45:00,24.9,21.9,30.28,NNW,328,3.0,3.0,88,0.00,,---,0.00,VWS V14.01,2013-01-14 09:45:00,
2013-01-14 04:46:00,24.9,21.9,30.28,NW,319,0.0,3.0,88,0.00,,---,0.00,VWS V14.01,2013-01-14 09:46:00,
2013-01-14 04:47:00,24.9,21.9,30.28,NW,319,1.0,2.0,88,0.00,,---,0.00,VWS V14.01,2013-01-14 09:47:00,
2013-01-14 04:48:00,24.8,21.8,30.27,WNW,299,0.0,3.0,88,0.00,,---,0.00,VWS V14.01,2013-01-14 09:48:00,
2013-01-14 04:49:00,24.8,21.8,30.27,NW,308,0.0,3.0,88,0.00,,---,0.00,VWS V14.01,2013-01-14 09:49:00,
2013-01-14 04:50:00,24.8,21.8,30.27,NW,306,2.0,2.0,88,0.00,,---,0.00,VWS V14.01,2013-01-14 09:50:00,
2013-01-14 04:51:00,24.8,21.8,30.27,NW,319,2.0,4.0,88,0.00,,---,0.00,VWS V14.01,2013-01-14 09:51:00,
2013-01-14 04:52:00,24.8,21.8,30.27,NW,319,0.0,2.0,88,0.00,,---,0.00,VWS V14.01,2013-01-14 09:52:00,
2013-01-14 04:53:00,24.8,21.8,30.27,NW,319,0.0,0.0,88,0.00,,---,0.00,VWS V14.01,2013-01-14 09:53:00,
2013-01-14 04:54:00,24.8,22.0,30.27,NW,319,0.0,0.0,89,0.00,,---,0.00,VWS V14.01,2013-01-14 09:54:00,
2013-01-14 04:55:00,24.8,22.0,30.27,NW,323,0.0,4.0,89,0.00,,---,0.00,VWS V14.01,2013-01-14 09:55:00,
2013-01-14 04:56:00,24.8,22.0,30.27,NW,323,0.0,0.0,89,0.00,,---,0.00,VWS V14.01,2013-01-14 09:56:00,
2013-01-14 04:57:00,24.8,22.0,30.27,NW,317,0.0,2.0,89,0.00,,---,0.00,VWS V14.01,2013-01-14 09:57:00,
2013-01-14 04:58:00,24.8,22.0,30.27,NW,316,3.0,3.0,89,0.00,,---,0.00,VWS V14.01,2013-01-14 09:58:00,
2013-01-14 04:59:00,24.8,22.0,30.27,NW,316,0.0,2.0,89,0.00,,---,0.00,VWS V14.01,2013-01-14 09:59:00,
2013-01-14 05:00:00,24.8,22.0,30.27,NW,315,3.0,3.0,89,0.00,,---,0.00,VWS V14.01,2013-01-14 10:00:00,
2013-01-14 05:01:00,24.8,22.0,30.27,NW,315,0.0,1.0,89,0.00,,---,0.00,VWS V14.01,2013-01-14 10:01:00,
2013-01-14 05:02:00,24.8,22.0,30.27,NW,315,0.0,1.0,89,0.00,,---,0.00,VWS V14.01,2013-01-14 10:02:00,
2013-01-14 05:03:00,24.8,22.0,30.27,NW,315,0.0,1.0,89,0.00,,---,0.00,VWS V14.01,2013-01-14 10:03:00,
2013-01-14 05:04:00,24.8,22.0,30.27,NW,315,0.0,1.0,89,0.00,,---,0.00,VWS V14.01,2013-01-14 10:04:00,
2013-01-14 05:05:00,24.8,22.0,30.27,NW,315,0.0,3.0,89,0.00,,---,0.00,VWS V14.01,2013-01-14 10:05:00,
2013-01-14 05:06:00,24.9,22.1,30.27,NW,313,0.0,3.0,89,0.00,,---,0.00,VWS V14.01,2013-01-14 10:06:00,
2013-01-14 05:07:00,24.9,22.1,30.27,NNW,333,0.0,2.0,89,0.00,,---,0.00,VWS V14.01,2013-01-14 10:07:00,
2013-01-14 05:08:00,24.8,22.0,30.27,WNW,301,1.0,4.0,89,0.00,,---,0.00,VWS V14.01,2013-01-14 10:08:00,
2013-01-14 05:09:00,24.8,22.0,30.27,NNW,329,2.0,2.0,89,0.00,,---,0.00,VWS V14.01,2013-01-14 10:09:00,
2013-01-14 05:10:00,24.8,22.0,30.27,NNW,329,0.0,2.0,89,0.00,,---,0.00,VWS V14.01,2013-01-14 10:10:00,
2013-01-14 05:11:00,24.9,22.1,30.27,NNW,329,0.0,1.0,89,0.00,,---,0.00,VWS V14.01,2013-01-14 10:11:00,
2013-01-14 05:12:00,24.9,22.1,30.27,NNW,336,0.0,2.0,89,0.00,,---,0.00,VWS V14.01,2013-01-14 10:12:00,
2013-01-14 05:13:00,24.9,22.1,30.27,NW,309,0.0,3.0,89,0.00,,---,0.00,VWS V14.01,2013-01-14 10:13:00,
2013-01-14 05:14:00,24.9,22.1,30.27,NW,305,0.0,2.0,89,0.00,,---,0.00,VWS V14.01,2013-01-14 10:14:00,
2013-01-14 05:15:00,24.9,22.1,30.27,NW,305,0.0,0.0,89,0.00,,---,0.00,VWS V14.01,2013-01-14 10:15:00,
2013-01-14 05:16:00,24.9,22.1,30.27,NW,305,0.0,0.0,89,0.00,,---,0.00,VWS V14.01,2013-01-14 10:16:00,
2013-01-14 05:17:00,24.9,22.1,30.27,NW,311,0.0,3.0,89,0.00,,---,0.00,VWS V14.01,2013-01-14 10:17:00,
2013-01-14 05:18:00,24.9,22.1,30.27,NW,311,0.0,1.0,89,0.00,,---,0.00,VWS V14.01,2013-01-14 10:18:00,
2013-01-14 05:19:00,24.9,22.1,30.27,NW,311,0.0,0.0,89,0.00,,---,0.00,VWS V14.01,2013-01-14 10:19:00,
2013-01-14 05:20:00,24.9,22.1,30.26,NW,311,0.0,1.0,89,0.00,,---,0.00,VWS V14.01,2013-01-14 10:20:00,
2013-01-14 05:21:00,24.9,22.4,30.27,NW,311,0.0,0.0,90,0.00,,---,0.00,VWS V14.01,2013-01-14 10:21:00,
2013-01-14 05:22:00,25.0,22.5,30.27,NW,311,1.0,1.0,90,0.00,,---,0.00,VWS V14.01,2013-01-14 10:22:00,
2013-01-14 05:23:00,24.9,22.1,30.26,NW,311,0.0,1.0,89,0.00,,---,0.00,VWS V14.01,2013-01-14 10:23:00,
2013-01-14 05:24:00,25.0,22.2,30.26,NW,311,0.0,0.0,89,0.00,,---,0.00,VWS V14.01,2013-01-14 10:24:00,
2013-01-14 05:25:00,25.0,22.2,30.27,NE,42,2.0,3.0,89,0.00,,---,0.00,VWS V14.01,2013-01-14 10:25:00,
2013-01-14 05:26:00,25.0,22.2,30.26,NNE,16,0.0,2.0,89,0.00,,---,0.00,VWS V14.01,2013-01-14 10:26:00,
2013-01-14 05:27:00,25.0,22.2,30.26,NNE,16,0.0,0.0,89,0.00,,---,0.00,VWS V14.01,2013-01-14 10:27:00,
2013-01-14 05:28:00,25.0,22.2,30.26,NNE,16,0.0,1.0,89,0.00,,---,0.00,VWS V14.01,2013-01-14 10:28:00,
2013-01-14 05:29:00,25.0,22.2,30.27,NNE,13,0.0,0.0,89,0.00,,---,0.00,VWS V14.01,2013-01-14 10:29:00,
2013-01-14 05:30:00,25.0,22.5,30.27,NNW,348,0.0,1.0,90,0.00,,---,0.00,VWS V14.01,2013-01-14 10:30:00,
2013-01-14 05:31:00,25.0,22.5,30.27,NE,46,0.0,2.0,90,0.00,,---,0.00,VWS V14.01,2013-01-14 10:31:00,
2013-01-14 05:32:00,25.1,22.6,30.27,NE,46,0.0,1.0,90,0.00,,---,0.00,VWS V14.01,2013-01-14 10:32:00,
2013-01-14 05:33:00,25.0,22.5,30.27,NE,42,0.0,1.0,90,0.00,,---,0.00,VWS V14.01,2013-01-14 10:33:00,
2013-01-14 05:34:00,25.1,22.3,30.27,NE,40,0.0,1.0,89,0.00,,---,0.00,VWS V14.01,2013-01-14 10:34:00,
2013-01-14 05:35:00,25.1,22.6,30.27,NNW,333,2.0,2.0,90,0.00,,---,0.00,VWS V14.01,2013-01-14 10:35:00,
2013-01-14 05:36:00,25.1,22.3,30.27,NNW,333,0.0,2.0,89,0.00,,---,0.00,VWS V14.01,2013-01-14 10:36:00,
2013-01-14 05:37:00,25.1,22.3,30.27,NW,323,0.0,1.0,89,0.00,,---,0.00,VWS V14.01,2013-01-14 10:37:00,
2013-01-14 05:38:00,25.1,22.3,30.27,NW,323,0.0,0.0,89,0.00,,---,0.00,VWS V14.01,2013-01-14 10:38:00,
2013-01-14 05:39:00,25.1,22.6,30.27,WNW,294,0.0,2.0,90,0.00,,---,0.00,VWS V14.01,2013-01-14 10:39:00,
2013-01-14 05:40:00,25.1,22.3,30.27,WNW,294,0.0,2.0,89,0.00,,---,0.00,VWS V14.01,2013-01-14 10:40:00,
2013-01-14 05:41:00,25.1,22.3,30.27,WNW,294,0.0,1.0,89,0.00,,---,0.00,VWS V14.01,2013-01-14 10:41:00,
2013-01-14 05:42:00,25.1,22.3,30.27,WNW,294,0.0,0.0,89,0.00,,---,0.00,VWS V14.01,2013-01-14 10:42:00,
2013-01-14 05:43:00,25.1,22.3,30.27,West,278,1.0,4.0,89,0.00,,---,0.00,VWS V14.01,2013-01-14 10:43:00,
2013-01-14 05:44:00,25.1,22.3,30.27,NW,313,1.0,3.0,89,0.00,,---,0.00,VWS V14.01,2013-01-14 10:44:00,
2013-01-14 05:45:00,25.1,22.3,30.27,NW,313,0.0,2.0,89,0.00,,---,0.00,VWS V14.01,2013-01-14 10:45:00,
2013-01-14 05:46:00,25.1,22.3,30.27,NW,324,0.0,1.0,89,0.00,,---,0.00,VWS V14.01,2013-01-14 10:46:00,
2013-01-14 05:47:00,25.1,22.3,30.27,NW,319,0.0,2.0,89,0.00,,---,0.00,VWS V14.01,2013-01-14 10:47:00,
2013-01-14 05:48:00,25.1,22.3,30.27,NW,321,0.0,2.0,89,0.00,,---,0.00,VWS V14.01,2013-01-14 10:48:00,
2013-01-14 05:49:00,25.1,22.3,30.27,NW,324,0.0,2.0,89,0.00,,---,0.00,VWS V14.01,2013-01-14 10:49:00,
2013-01-14 05:50:00,25.1,22.3,30.27,NW,324,0.0,1.0,89,0.00,,---,0.00,VWS V14.01,2013-01-14 10:50:00,
2013-01-14 05:51:00,25.1,22.3,30.27,NW,324,0.0,1.0,89,0.00,,---,0.00,VWS V14.01,2013-01-14 10:51:00,
2013-01-14 05:52:00,25.1,22.3,30.27,NW,324,0.0,0.0,89,0.00,,---,0.00,VWS V14.01,2013-01-14 10:52:00,
2013-01-14 05:53:00,25.2,22.7,30.27,NW,324,0.0,0.0,90,0.00,,---,0.00,VWS V14.01,2013-01-14 10:53:00,
2013-01-14 05:54:00,25.2,22.7,30.27,NW,324,0.0,0.0,90,0.00,,---,0.00,VWS V14.01,2013-01-14 10:54:00,
2013-01-14 05:55:00,25.2,22.7,30.27,NW,309,2.0,2.0,90,0.00,,---,0.00,VWS V14.01,2013-01-14 10:55:00,
2013-01-14 05:56:00,25.2,22.7,30.27,NW,308,0.0,2.0,90,0.00,,---,0.00,VWS V14.01,2013-01-14 10:56:00,
2013-01-14 05:57:00,25.2,22.7,30.27,NW,308,0.0,0.0,90,0.00,,---,0.00,VWS V14.01,2013-01-14 10:57:00,
2013-01-14 05:58:00,25.2,22.7,30.27,NW,308,0.0,0.0,90,0.00,,---,0.00,VWS V14.01,2013-01-14 10:58:00,
2013-01-14 05:59:00,25.3,22.8,30.27,NNW,327,1.0,1.0,90,0.00,,---,0.00,VWS V14.01,2013-01-14 10:59:00,
2013-01-14 06:00:00,25.3,22.8,30.27,NNW,327,1.0,1.0,90,0.00,,---,0.00,VWS V14.01,2013-01-14 11:00:00,
2013-01-14 06:01:00,25.3,22.8,30.27,NNW,327,1.0,1.0,90,0.00,,---,0.00,VWS V14.01,2013-01-14 11:01:00,
2013-01-14 06:02:00,25.3,22.8,30.28,NNW,327,1.0,1.0,90,0.00,,---,0.00,VWS V14.01,2013-01-14 11:02:00,
2013-01-14 06:03:00,25.3,22.8,30.28,NNW,327,1.0,1.0,90,0.00,,---,0.00,VWS V14.01,2013-01-14 11:03:00,
2013-01-14 06:04:00,25.3,22.8,30.28,NNW,327,1.0,1.0,90,0.00,,---,0.00,VWS V14.01,2013-01-14 11:04:00,
2013-01-14 06:05:00,25.3,22.8,30.28,NNW,327,1.0,1.0,90,0.00,,---,0.00,VWS V14.01,2013-01-14 11:05:00,
2013-01-14 06:06:00,25.3,22.8,30.27,NNW,327,1.0,1.0,90,0.00,,---,0.00,VWS V14.01,2013-01-14 11:06:00,
2013-01-14 06:07:00,25.3,22.8,30.28,NNW,327,1.0,1.0,90,0.00,,---,0.00,VWS V14.01,2013-01-14 11:07:00,
2013-01-14 06:08:00,25.3,22.8,30.28,NNW,327,1.0,1.0,90,0.00,,---,0.00,VWS V14.01,2013-01-14 11:08:00,
2013-01-14 06:09:00,25.3,22.8,30.28,NNW,327,1.0,1.0,90,0.00,,---,0.00,VWS V14.01,2013-01-14 11:09:00,
2013-01-14 06:10:00,25.3,22.8,30.28,NNW,327,1.0,1.0,90,0.00,,---,0.00,VWS V14.01,2013-01-14 11:10:00,
2013-01-14 06:11:00,25.3,22.8,30.28,NNW,327,1.0,1.0,90,0.00,,---,0.00,VWS V14.01,2013-01-14 11:11:00,
2013-01-14 06:12:00,25.3,22.8,30.28,NNW,327,1.0,1.0,90,0.00,,---,0.00,VWS V14.01,2013-01-14 11:12:00,
2013-01-14 06:13:00,25.3,22.8,30.28,NNW,327,1.0,1.0,90,0.00,,---,0.00,VWS V14.01,2013-01-14 11:13:00,
2013-01-14 06:14:00,25.3,22.8,30.28,NNW,327,1.0,1.0,90,0.00,,---,0.00,VWS V14.01,2013-01-14 11:14:00,
2013-01-14 06:15:00,25.3,22.8,30.28,NNW,327,1.0,1.0,90,0.00,,---,0.00,VWS V14.01,2013-01-14 11:15:00,
2013-01-14 06:16:00,25.3,22.8,30.28,NNW,327,1.0,1.0,90,0.00,,---,0.00,VWS V14.01,2013-01-14 11:16:00,
2013-01-14 06:17:00,25.3,22.8,30.28,NNW,327,1.0,1.0,90,0.00,,---,0.00,VWS V14.01,2013-01-14 11:17:00,
2013-01-14 06:18:00,25.3,22.8,30.28,NNW,327,1.0,1.0,90,0.00,,---,0.00,VWS V14.01,2013-01-14 11:18:00,
2013-01-14 06:19:00,25.3,22.8,30.28,NNW,327,1.0,1.0,90,0.00,,---,0.00,VWS V14.01,2013-01-14 11:19:00,
2013-01-14 06:20:00,25.3,22.8,30.28,NNW,327,1.0,1.0,90,0.00,,---,0.00,VWS V14.01,2013-01-14 11:20:00,
2013-01-14 06:21:00,25.3,22.8,30.28,NNW,327,1.0,1.0,90,0.00,,---,0.00,VWS V14.01,2013-01-14 11:21:00,
2013-01-14 06:22:00,25.3,22.8,30.28,NNW,327,1.0,1.0,90,0.00,,---,0.00,VWS V14.01,2013-01-14 11:22:00,
2013-01-14 06:23:00,25.3,22.8,30.29,NNW,327,1.0,1.0,90,0.00,,---,0.00,VWS V14.01,2013-01-14 11:23:00,
2013-01-14 06:24:00,25.3,22.8,30.29,NNW,327,1.0,1.0,90,0.00,,---,0.00,VWS V14.01,2013-01-14 11:24:00,
2013-01-14 06:25:00,25.3,22.8,30.29,NNW,327,1.0,1.0,90,0.00,,---,0.00,VWS V14.01,2013-01-14 11:25:00,
2013-01-14 06:26:00,25.3,22.8,30.29,NNW,327,1.0,1.0,90,0.00,,---,0.00,VWS V14.01,2013-01-14 11:26:00,
2013-01-14 06:27:00,25.3,22.8,30.29,NNW,327,1.0,1.0,90,0.00,,---,0.00,VWS V14.01,2013-01-14 11:27:00,
2013-01-14 06:28:00,25.3,22.8,30.29,NNW,327,1.0,1.0,90,0.00,,---,0.00,VWS V14.01,2013-01-14 11:28:00,
2013-01-14 06:29:00,25.3,22.8,30.29,NNW,327,1.0,1.0,90,0.00,,---,0.00,VWS V14.01,2013-01-14 11:29:00,
2013-01-14 06:30:00,25.3,22.8,30.29,NNW,327,1.0,1.0,90,0.00,,---,0.00,VWS V14.01,2013-01-14 11:30:00,
2013-01-14 06:31:00,25.3,22.8,30.29,NNW,327,1.0,1.0,90,0.00,,---,0.00,VWS V14.01,2013-01-14 11:31:00,
2013-01-14 06:32:00,25.3,22.8,30.29,NNW,327,1.0,1.0,90,0.00,,---,0.00,VWS V14.01,2013-01-14 11:32:00,
2013-01-14 06:33:00,25.3,22.8,30.29,NNW,327,1.0,1.0,90,0.00,,---,0.00,VWS V14.01,2013-01-14 11:33:00,
2013-01-14 06:34:00,25.3,22.8,30.29,NNW,327,1.0,1.0,90,0.00,,---,0.00,VWS V14.01,2013-01-14 11:34:00,
2013-01-14 06:35:00,25.3,22.8,30.30,NNW,327,1.0,1.0,90,0.00,,---,0.00,VWS V14.01,2013-01-14 11:35:00,
2013-01-14 06:36:00,25.3,22.8,30.30,NNW,327,1.0,1.0,90,0.00,,---,0.00,VWS V14.01,2013-01-14 11:36:00,
2013-01-14 06:37:00,25.3,22.8,30.30,NNW,327,1.0,1.0,90,0.00,,---,0.00,VWS V14.01,2013-01-14 11:37:00,
2013-01-14 06:38:00,25.3,22.8,30.30,NNW,327,1.0,1.0,90,0.00,,---,0.00,VWS V14.01,2013-01-14 11:38:00,
2013-01-14 06:39:00,25.3,22.8,30.30,NNW,327,1.0,1.0,90,0.00,,---,0.00,VWS V14.01,2013-01-14 11:39:00,
2013-01-14 06:40:00,25.3,22.8,30.30,NNW,327,1.0,1.0,90,0.00,,---,0.00,VWS V14.01,2013-01-14 11:40:00,
2013-01-14 06:41:00,25.3,22.8,30.30,NNW,327,1.0,1.0,90,0.00,,---,0.00,VWS V14.01,2013-01-14 11:41:00,
2013-01-14 06:42:00,25.3,22.8,30.30,NNW,327,1.0,1.0,90,0.00,,---,0.00,VWS V14.01,2013-01-14 11:42:00,
2013-01-14 06:43:00,25.3,22.8,30.30,NNW,327,1.0,1.0,90,0.00,,---,0.00,VWS V14.01,2013-01-14 11:43:00,
2013-01-14 06:44:00,25.3,22.8,30.30,NNW,327,1.0,1.0,90,0.00,,---,0.00,VWS V14.01,2013-01-14 11:44:00,
2013-01-14 06:45:00,25.3,22.8,30.30,NNW,327,1.0,1.0,90,0.00,,---,0.00,VWS V14.01,2013-01-14 11:45:00,
2013-01-14 06:46:00,25.3,22.8,30.30,NNW,327,1.0,1.0,90,0.00,,---,0.00,VWS V14.01,2013-01-14 11:46:00,
2013-01-14 06:47:00,25.3,22.8,30.30,NNW,327,1.0,1.0,90,0.00,,---,0.00,VWS V14.01,2013-01-14 11:47:00,
2013-01-14 06:48:00,25.3,22.8,30.30,NNW,327,1.0,1.0,90,0.00,,---,0.00,VWS V14.01,2013-01-14 11:48:00,
2013-01-14 06:49:00,25.3,22.8,30.30,NNW,327,1.0,1.0,90,0.00,,---,0.00,VWS V14.01,2013-01-14 11:49:00,
2013-01-14 06:50:00,25.3,22.8,30.31,NNW,327,1.0,1.0,90,0.00,,---,0.00,VWS V14.01,2013-01-14 11:50:00,
2013-01-14 06:51:00,25.3,22.8,30.31,NNW,327,1.0,1.0,90,0.00,,---,0.00,VWS V14.01,2013-01-14 11:51:00,
2013-01-14 06:52:00,25.3,22.8,30.31,NNW,327,1.0,1.0,90,0.00,,---,0.00,VWS V14.01,2013-01-14 11:52:00,
2013-01-14 06:53:00,25.3,22.8,30.31,NNW,327,1.0,1.0,90,0.00,,---,0.00,VWS V14.01,2013-01-14 11:53:00,
2013-01-14 06:54:00,25.3,22.8,30.31,NNW,327,1.0,1.0,90,0.00,,---,0.00,VWS V14.01,2013-01-14 11:54:00,
2013-01-14 06:55:00,25.3,22.8,30.31,NNW,327,1.0,1.0,90,0.00,,---,0.00,VWS V14.01,2013-01-14 11:55:00,
2013-01-14 06:56:00,25.3,22.8,30.31,NNW,327,1.0,1.0,90,0.00,,---,0.00,VWS V14.01,2013-01-14 11:56:00,
2013-01-14 06:57:00,25.3,22.8,30.31,NNW,327,1.0,1.0,90,0.00,,---,0.00,VWS V14.01,2013-01-14 11:57:00,
2013-01-14 06:58:00,25.3,22.8,30.32,NNW,327,1.0,1.0,90,0.00,,---,0.00,VWS V14.01,2013-01-14 11:58:00,
2013-01-14 06:59:00,24.5,21.7,30.32,North,355,0.0,1.0,89,0.00,,---,0.00,VWS V14.01,2013-01-14 11:59:00,
2013-01-14 07:00:00,24.4,21.6,30.32,North,355,0.0,2.0,89,0.00,,---,0.00,VWS V14.01,2013-01-14 12:00:00,
2013-01-14 07:01:00,24.5,21.7,30.32,North,355,0.0,1.0,89,0.00,,---,0.00,VWS V14.01,2013-01-14 12:01:00,
2013-01-14 07:02:00,24.4,21.6,30.32,NW,321,0.0,2.0,89,0.00,,---,0.00,VWS V14.01,2013-01-14 12:02:00,
2013-01-14 07:03:00,24.4,21.6,30.32,North,9,0.0,5.0,89,0.00,,---,0.00,VWS V14.01,2013-01-14 12:03:00,
2013-01-14 07:04:00,24.4,21.6,30.32,NNE,20,0.0,1.0,89,0.00,,---,0.00,VWS V14.01,2013-01-14 12:04:00,
2013-01-14 07:05:00,24.4,21.6,30.32,North,360,1.0,1.0,89,0.00,,---,0.00,VWS V14.01,2013-01-14 12:05:00,
2013-01-14 07:06:00,24.4,21.6,30.32,NNW,332,1.0,2.0,89,0.00,,---,0.00,VWS V14.01,2013-01-14 12:06:00,
2013-01-14 07:07:00,24.4,21.6,30.32,NNW,327,0.0,2.0,89,0.00,,---,0.00,VWS V14.01,2013-01-14 12:07:00,
2013-01-14 07:08:00,24.4,21.6,30.32,NNW,327,0.0,2.0,89,0.00,,---,0.00,VWS V14.01,2013-01-14 12:08:00,
2013-01-14 07:09:00,24.4,21.6,30.32,NW,307,2.0,4.0,89,0.00,,---,0.00,VWS V14.01,2013-01-14 12:09:00,
2013-01-14 07:10:00,24.4,21.6,30.32,NNE,31,0.0,3.0,89,0.00,,---,0.00,VWS V14.01,2013-01-14 12:10:00,
2013-01-14 07:11:00,24.4,21.6,30.32,NE,38,2.0,2.0,89,0.00,,---,0.00,VWS V14.01,2013-01-14 12:11:00,
2013-01-14 07:12:00,24.4,21.6,30.33,North,360,0.0,3.0,89,0.00,,---,0.00,VWS V14.01,2013-01-14 12:12:00,
2013-01-14 07:13:00,24.4,21.6,30.33,North,360,0.0,1.0,89,0.00,,---,0.00,VWS V14.01,2013-01-14 12:13:00,
2013-01-14 07:14:00,24.4,21.6,30.33,North,360,0.0,0.0,89,0.00,,---,0.00,VWS V14.01,2013-01-14 12:14:00,
2013-01-14 07:15:00,24.4,21.6,30.33,North,350,0.0,2.0,89,0.00,,---,0.00,VWS V14.01,2013-01-14 12:15:00,
2013-01-14 07:16:00,24.5,21.7,30.33,NNE,14,0.0,2.0,89,0.00,,---,0.00,VWS V14.01,2013-01-14 12:16:00,
2013-01-14 07:17:00,24.4,21.6,30.33,NW,323,0.0,2.0,89,0.00,,---,0.00,VWS V14.01,2013-01-14 12:17:00,
2013-01-14 07:18:00,24.5,21.7,30.33,NW,324,2.0,2.0,89,0.00,,---,0.00,VWS V14.01,2013-01-14 12:18:00,
2013-01-14 07:19:00,24.5,21.7,30.33,NW,313,2.0,3.0,89,0.00,,---,0.00,VWS V14.01,2013-01-14 12:19:00,
2013-01-14 07:20:00,24.4,21.6,30.33,NW,313,1.0,3.0,89,0.00,,---,0.00,VWS V14.01,2013-01-14 12:20:00,
2013-01-14 07:21:00,24.4,21.4,30.33,NW,313,0.0,1.0,88,0.00,,---,0.00,VWS V14.01,2013-01-14 12:21:00,
2013-01-14 07:22:00,24.3,21.3,30.33,NW,313,0.0,0.0,88,0.00,,---,0.00,VWS V14.01,2013-01-14 12:22:00,
2013-01-14 07:23:00,24.3,21.3,30.33,North,360,2.0,3.0,88,0.00,,---,0.00,VWS V14.01,2013-01-14 12:23:00,
2013-01-14 07:24:00,24.3,21.3,30.33,NNW,331,0.0,3.0,88,0.00,,---,0.00,VWS V14.01,2013-01-14 12:24:00,
2013-01-14 07:25:00,24.2,21.2,30.33,NW,306,0.0,4.0,88,0.00,,---,0.00,VWS V14.01,2013-01-14 12:25:00,
2013-01-14 07:26:00,24.2,21.2,30.33,NW,306,0.0,1.0,88,0.00,,---,0.00,VWS V14.01,2013-01-14 12:26:00,
2013-01-14 07:27:00,24.2,21.2,30.33,NW,306,0.0,1.0,88,0.00,,---,0.00,VWS V14.01,2013-01-14 12:27:00,
2013-01-14 07:28:00,24.2,21.2,30.33,NW,306,0.0,2.0,88,0.00,,---,0.00,VWS V14.01,2013-01-14 12:28:00,
2013-01-14 07:29:00,24.1,21.1,30.34,NW,306,1.0,2.0,88,0.00,,---,0.00,VWS V14.01,2013-01-14 12:29:00,
2013-01-14 07:30:00,24.1,21.1,30.34,NW,306,0.0,1.0,88,0.00,,---,0.00,VWS V14.01,2013-01-14 12:30:00,
2013-01-14 07:31:00,24.1,21.1,30.34,NNW,333,1.0,1.0,88,0.00,,---,0.00,VWS V14.01,2013-01-14 12:31:00,
2013-01-14 07:32:00,24.1,21.1,30.34,NNE,12,1.0,3.0,88,0.00,,---,0.00,VWS V14.01,2013-01-14 12:32:00,
2013-01-14 07:33:00,24.1,21.1,30.34,North,360,0.0,4.0,88,0.00,,---,0.00,VWS V14.01,2013-01-14 12:33:00,
2013-01-14 07:34:00,24.1,21.1,30.34,North,360,1.0,1.0,88,0.00,,---,0.00,VWS V14.01,2013-01-14 12:34:00,
2013-01-14 07:35:00,24.1,21.1,30.34,North,360,0.0,1.0,88,0.00,,---,0.00,VWS V14.01,2013-01-14 12:35:00,
2013-01-14 07:36:00,24.1,21.1,30.34,NNW,348,0.0,3.0,88,0.00,,---,0.00,VWS V14.01,2013-01-14 12:36:00,
2013-01-14 07:37:00,24.1,21.1,30.34,NNW,336,0.0,0.0,88,0.00,,---,0.00,VWS V14.01,2013-01-14 12:37:00,
2013-01-14 07:38:00,24.1,21.1,30.34,NNW,336,0.0,0.0,88,0.00,,---,0.00,VWS V14.01,2013-01-14 12:38:00,
2013-01-14 07:39:00,24.1,21.1,30.34,NNW,336,0.0,0.0,88,0.00,,---,0.00,VWS V14.01,2013-01-14 12:39:00,
2013-01-14 07:40:00,24.1,21.1,30.34,NNW,336,0.0,0.0,88,0.00,,---,0.00,VWS V14.01,2013-01-14 12:40:00,
2013-01-14 07:41:00,24.1,21.1,30.34,NNW,336,0.0,0.0,88,0.00,,---,0.00,VWS V14.01,2013-01-14 12:41:00,
2013-01-14 07:42:00,24.1,21.1,30.34,NE,53,1.0,2.0,88,0.00,,---,0.00,VWS V14.01,2013-01-14 12:42:00,
2013-01-14 07:43:00,24.1,21.1,30.34,NNE,29,2.0,2.0,88,0.00,,---,0.00,VWS V14.01,2013-01-14 12:43:00,
2013-01-14 07:44:00,24.1,21.1,30.34,NNE,17,2.0,4.0,88,0.00,,---,0.00,VWS V14.01,2013-01-14 12:44:00,
2013-01-14 07:45:00,24.1,21.1,30.34,NNE,13,1.0,2.0,88,0.00,,---,0.00,VWS V14.01,2013-01-14 12:45:00,
2013-01-14 07:46:00,24.1,21.1,30.34,North,0,2.0,3.0,88,0.00,,---,0.00,VWS V14.01,2013-01-14 12:46:00,
2013-01-14 07:47:00,24.1,21.1,30.34,North,0,0.0,0.0,88,0.00,,---,0.00,VWS V14.01,2013-01-14 12:47:00,
2013-01-14 07:48:00,24.0,21.0,30.34,NNW,338,1.0,4.0,88,0.00,,---,0.00,VWS V14.01,2013-01-14 12:48:00,
2013-01-14 07:49:00,24.0,21.0,30.35,North,0,1.0,3.0,88,0.00,,---,0.00,VWS V14.01,2013-01-14 12:49:00,
2013-01-14 07:50:00,24.0,21.0,30.35,North,0,0.0,0.0,88,0.00,,---,0.00,VWS V14.01,2013-01-14 12:50:00,
2013-01-14 07:51:00,24.0,21.0,30.35,North,0,1.0,4.0,88,0.00,,---,0.00,VWS V14.01,2013-01-14 12:51:00,
2013-01-14 07:52:00,24.0,21.0,30.35,North,0,0.0,0.0,88,0.00,,---,0.00,VWS V14.01,2013-01-14 12:52:00,
2013-01-14 07:53:00,24.0,21.0,30.35,North,0,0.0,0.0,88,0.00,,---,0.00,VWS V14.01,2013-01-14 12:53:00,
2013-01-14 07:54:00,24.0,21.0,30.35,North,0,0.0,0.0,88,0.00,,---,0.00,VWS V14.01,2013-01-14 12:54:00,
2013-01-14 07:55:00,24.1,21.3,30.35,NNW,347,0.0,2.0,89,0.00,,---,0.00,VWS V14.01,2013-01-14 12:55:00,
2013-01-14 07:56:00,24.1,21.3,30.35,NNW,348,0.0,1.0,89,0.00,,---,0.00,VWS V14.01,2013-01-14 12:56:00,
2013-01-14 07:57:00,24.1,21.3,30.35,North,350,0.0,3.0,89,0.00,,---,0.00,VWS V14.01,2013-01-14 12:57:00,
2013-01-14 07:58:00,24.1,21.3,30.35,NW,324,1.0,2.0,89,0.00,,---,0.00,VWS V14.01,2013-01-14 12:58:00,
2013-01-14 07:59:00,24.1,21.1,30.35,NW,324,0.0,2.0,88,0.00,,---,0.00,VWS V14.01,2013-01-14 12:59:00,
2013-01-14 08:00:00,24.2,21.2,30.35,NNW,335,0.0,1.0,88,0.00,,---,0.00,VWS V14.01,2013-01-14 13:00:00,
2013-01-14 08:01:00,24.2,21.2,30.35,NNW,341,2.0,4.0,88,0.00,,---,0.00,VWS V14.01,2013-01-14 13:01:00,
2013-01-14 08:02:00,24.2,21.2,30.35,NNW,342,1.0,2.0,88,0.00,,---,0.00,VWS V14.01,2013-01-14 13:02:00,
2013-01-14 08:03:00,24.2,21.2,30.35,North,11,2.0,4.0,88,0.00,,---,0.00,VWS V14.01,2013-01-14 13:03:00,
2013-01-14 08:04:00,24.2,21.2,30.35,NNE,12,0.0,2.0,88,0.00,,---,0.00,VWS V14.01,2013-01-14 13:04:00,
2013-01-14 08:05:00,24.2,21.2,30.35,North,350,1.0,2.0,88,0.00,,---,0.00,VWS V14.01,2013-01-14 13:05:00,
2013-01-14 08:06:00,24.2,21.2,30.35,ENE,74,3.0,4.0,88,0.00,,---,0.00,VWS V14.01,2013-01-14 13:06:00,
2013-01-14 08:07:00,24.2,21.2,30.35,ENE,76,2.0,3.0,88,0.00,,---,0.00,VWS V14.01,2013-01-14 13:07:00,
2013-01-14 08:08:00,24.2,21.2,30.35,NNW,346,1.0,3.0,88,0.00,,---,0.00,VWS V14.01,2013-01-14 13:08:00,
2013-01-14 08:09:00,24.2,21.2,30.35,North,355,2.0,4.0,88,0.00,,---,0.00,VWS V14.01,2013-01-14 13:09:00,
2013-01-14 08:10:00,24.2,21.2,30.35,NNE,27,1.0,3.0,88,0.00,,---,0.00,VWS V14.01,2013-01-14 13:10:00,
2013-01-14 08:11:00,24.2,21.2,30.35,NNW,346,4.0,6.0,88,0.00,,---,0.00,VWS V14.01,2013-01-14 13:11:00,
2013-01-14 08:12:00,24.1,21.1,30.35,NNE,22,0.0,4.0,88,0.00,,---,0.00,VWS V14.01,2013-01-14 13:12:00,
2013-01-14 08:13:00,24.1,21.1,30.35,North,350,0.0,3.0,88,0.00,,---,0.00,VWS V14.01,2013-01-14 13:13:00,
2013-01-14 08:14:00,24.1,21.1,30.35,North,350,0.0,0.0,88,0.00,,---,0.00,VWS V14.01,2013-01-14 13:14:00,
2013-01-14 08:15:00,24.1,21.1,30.35,NE,41,2.0,2.0,88,0.00,,---,0.00,VWS V14.01,2013-01-14 13:15:00,
2013-01-14 08:16:00,24.1,21.1,30.35,NNE,31,0.0,3.0,88,0.00,,---,0.00,VWS V14.01,2013-01-14 13:16:00,
2013-01-14 08:17:00,24.1,21.1,30.35,NNE,15,1.0,1.0,88,0.00,,---,0.00,VWS V14.01,2013-01-14 13:17:00,
2013-01-14 08:18:00,24.1,21.1,30.35,North,355,0.0,4.0,88,0.00,,---,0.00,VWS V14.01,2013-01-14 13:18:00,
2013-01-14 08:19:00,24.1,21.1,30.35,North,355,0.0,1.0,88,0.00,,---,0.00,VWS V14.01,2013-01-14 13:19:00,
2013-01-14 08:20:00,24.1,21.1,30.36,North,355,0.0,0.0,88,0.00,,---,0.00,VWS V14.01,2013-01-14 13:20:00,
2013-01-14 08:21:00,24.1,21.1,30.36,NNW,337,0.0,1.0,88,0.00,,---,0.00,VWS V14.01,2013-01-14 13:21:00,
2013-01-14 08:22:00,24.1,21.1,30.36,North,355,2.0,3.0,88,0.00,,---,0.00,VWS V14.01,2013-01-14 13:22:00,
2013-01-14 08:23:00,24.1,21.1,30.35,North,360,1.0,3.0,88,0.00,,---,0.00,VWS V14.01,2013-01-14 13:23:00,
2013-01-14 08:24:00,24.2,21.2,30.35,North,355,2.0,3.0,88,0.00,,---,0.00,VWS V14.01,2013-01-14 13:24:00,
2013-01-14 08:25:00,24.1,21.1,30.36,North,355,0.0,2.0,88,0.00,,---,0.00,VWS V14.01,2013-01-14 13:25:00,
2013-01-14 08:26:00,24.1,21.1,30.35,NNW,342,3.0,5.0,88,0.00,,---,0.00,VWS V14.01,2013-01-14 13:26:00,
2013-01-14 08:27:00,24.1,21.1,30.35,NNW,342,0.0,3.0,88,0.00,,---,0.00,VWS V14.01,2013-01-14 13:27:00,
2013-01-14 08:28:00,24.1,21.1,30.35,NNW,344,0.0,1.0,88,0.00,,---,0.00,VWS V14.01,2013-01-14 13:28:00,
2013-01-14 08:29:00,24.1,21.1,30.35,NNW,338,0.0,1.0,88,0.00,,---,0.00,VWS V14.01,2013-01-14 13:29:00,
2013-01-14 08:30:00,24.2,21.2,30.35,North,355,0.0,2.0,88,0.00,,---,0.00,VWS V14.01,2013-01-14 13:30:00,
2013-01-14 08:31:00,24.2,21.2,30.35,NE,42,0.0,2.0,88,0.00,,---,0.00,VWS V14.01,2013-01-14 13:31:00,
2013-01-14 08:32:00,24.2,21.2,30.35,NE,42,0.0,0.0,88,0.00,,---,0.00,VWS V14.01,2013-01-14 13:32:00,
2013-01-14 08:33:00,24.2,21.2,30.35,NE,42,0.0,2.0,88,0.00,,---,0.00,VWS V14.01,2013-01-14 13:33:00,
2013-01-14 08:34:00,24.2,21.2,30.35,NE,42,0.0,1.0,88,0.00,,---,0.00,VWS V14.01,2013-01-14 13:34:00,
2013-01-14 08:35:00,24.2,21.2,30.35,NE,42,0.0,0.0,88,0.00,,---,0.00,VWS V14.01,2013-01-14 13:35:00,
2013-01-14 08:36:00,24.2,21.4,30.35,NE,43,0.0,0.0,89,0.00,,---,0.00,VWS V14.01,2013-01-14 13:36:00,
2013-01-14 08:37:00,24.2,21.4,30.35,NNE,22,1.0,3.0,89,0.00,,---,0.00,VWS V14.01,2013-01-14 13:37:00,
2013-01-14 08:38:00,24.3,21.3,30.35,NW,315,2.0,2.0,88,0.00,,---,0.00,VWS V14.01,2013-01-14 13:38:00,
2013-01-14 08:39:00,24.2,21.2,30.36,NW,319,3.0,3.0,88,0.00,,---,0.00,VWS V14.01,2013-01-14 13:39:00,
2013-01-14 08:40:00,24.2,21.2,30.36,NW,312,0.0,3.0,88,0.00,,---,0.00,VWS V14.01,2013-01-14 13:40:00,
2013-01-14 08:41:00,24.2,21.2,30.36,NW,317,0.0,1.0,88,0.00,,---,0.00,VWS V14.01,2013-01-14 13:41:00,
2013-01-14 08:42:00,24.2,21.2,30.36,NW,317,0.0,1.0,88,0.00,,---,0.00,VWS V14.01,2013-01-14 13:42:00,
2013-01-14 08:43:00,24.2,21.2,30.36,NW,317,0.0,0.0,88,0.00,,---,0.00,VWS V14.01,2013-01-14 13:43:00,
2013-01-14 08:44:00,24.2,21.2,30.36,NW,317,0.0,0.0,88,0.00,,---,0.00,VWS V14.01,2013-01-14 13:44:00,
2013-01-14 08:45:00,24.2,21.2,30.36,NW,317,1.0,2.0,88,0.00,,---,0.00,VWS V14.01,2013-01-14 13:45:00,
2013-01-14 08:46:00,24.3,21.5,30.36,North,9,3.0,4.0,89,0.00,,---,0.00,VWS V14.01,2013-01-14 13:46:00,
2013-01-14 08:47:00,24.3,21.3,30.36,NNE,18,4.0,4.0,88,0.00,,---,0.00,VWS V14.01,2013-01-14 13:47:00,
2013-01-14 08:48:00,24.3,21.3,30.36,North,5,2.0,4.0,88,0.00,,---,0.00,VWS V14.01,2013-01-14 13:48:00,
2013-01-14 08:49:00,24.3,21.3,30.36,NNE,15,1.0,2.0,88,0.00,,---,0.00,VWS V14.01,2013-01-14 13:49:00,
2013-01-14 08:50:00,24.3,21.3,30.37,North,355,3.0,3.0,88,0.00,,---,0.00,VWS V14.01,2013-01-14 13:50:00,
2013-01-14 08:51:00,24.3,21.3,30.37,NNW,342,0.0,3.0,88,0.00,,---,0.00,VWS V14.01,2013-01-14 13:51:00,
2013-01-14 08:52:00,24.3,21.3,30.37,North,349,0.0,1.0,88,0.00,,---,0.00,VWS V14.01,2013-01-14 13:52:00,
2013-01-14 08:53:00,24.3,21.3,30.37,NNW,327,3.0,3.0,88,0.00,,---,0.00,VWS V14.01,2013-01-14 13:53:00,
2013-01-14 08:54:00,24.3,21.3,30.37,NNW,348,0.0,3.0,88,0.00,,---,0.00,VWS V14.01,2013-01-14 13:54:00,
2013-01-14 08:55:00,24.3,21.3,30.37,NW,309,3.0,5.0,88,0.00,,---,0.00,VWS V14.01,2013-01-14 13:55:00,
2013-01-14 08:56:00,24.3,21.3,30.37,NW,309,1.0,3.0,88,0.00,,---,0.00,VWS V14.01,2013-01-14 13:56:00,
2013-01-14 08:57:00,24.3,21.3,30.37,NW,309,0.0,2.0,88,0.00,,---,0.00,VWS V14.01,2013-01-14 13:57:00,
2013-01-14 08:58:00,24.3,21.3,30.37,NW,309,0.0,0.0,88,0.00,,---,0.00,VWS V14.01,2013-01-14 13:58:00,
2013-01-14 08:59:00,24.3,21.3,30.37,NW,309,0.0,1.0,88,0.00,,---,0.00,VWS V14.01,2013-01-14 13:59:00,
2013-01-14 09:00:00,24.3,21.3,30.37,NW,309,0.0,0.0,88,0.00,,---,0.00,VWS V14.01,2013-01-14 14:00:00,
2013-01-14 09:01:00,24.3,21.3,30.37,WNW,298,0.0,4.0,88,0.00,,---,0.00,VWS V14.01,2013-01-14 14:01:00,
2013-01-14 09:02:00,24.4,21.4,30.37,WNW,298,0.0,1.0,88,0.00,,---,0.00,VWS V14.01,2013-01-14 14:02:00,
2013-01-14 09:03:00,24.4,21.4,30.37,North,351,1.0,5.0,88,0.00,,---,0.00,VWS V14.01,2013-01-14 14:03:00,
2013-01-14 09:04:00,24.4,21.4,30.37,NNE,12,0.0,1.0,88,0.00,,---,0.00,VWS V14.01,2013-01-14 14:04:00,
2013-01-14 09:05:00,24.4,21.6,30.37,North,11,0.0,0.0,89,0.00,,---,0.00,VWS V14.01,2013-01-14 14:05:00,
2013-01-14 09:06:00,24.4,21.4,30.37,NNE,16,2.0,3.0,88,0.00,,---,0.00,VWS V14.01,2013-01-14 14:06:00,
2013-01-14 09:07:00,24.4,21.4,30.37,NNW,336,4.0,5.0,88,0.00,,---,0.00,VWS V14.01,2013-01-14 14:07:00,
2013-01-14 09:08:00,24.4,21.4,30.37,NNW,348,4.0,5.0,88,0.00,,---,0.00,VWS V14.01,2013-01-14 14:08:00,
2013-01-14 09:09:00,24.4,21.4,30.37,NNW,346,0.0,4.0,88,0.00,,---,0.00,VWS V14.01,2013-01-14 14:09:00,
2013-01-14 09:10:00,24.4,21.4,30.37,NE,55,2.0,2.0,88,0.00,,---,0.00,VWS V14.01,2013-01-14 14:10:00,
2013-01-14 09:11:00,24.4,21.4,30.37,NE,55,0.0,2.0,88,0.00,,---,0.00,VWS V14.01,2013-01-14 14:11:00,
2013-01-14 09:12:00,24.4,21.4,30.37,NE,40,0.0,3.0,88,0.00,,---,0.00,VWS V14.01,2013-01-14 14:12:00,
2013-01-14 09:13:00,24.5,21.7,30.37,North,355,0.0,1.0,89,0.00,,---,0.00,VWS V14.01,2013-01-14 14:13:00,
2013-01-14 09:14:00,24.5,21.7,30.37,North,355,2.0,3.0,89,0.00,,---,0.00,VWS V14.01,2013-01-14 14:14:00,
2013-01-14 09:15:00,24.6,21.8,30.37,North,355,4.0,4.0,89,0.00,,---,0.00,VWS V14.01,2013-01-14 14:15:00,
2013-01-14 09:16:00,24.6,21.8,30.37,North,360,0.0,4.0,89,0.00,,---,0.00,VWS V14.01,2013-01-14 14:16:00,
2013-01-14 09:17:00,24.6,21.6,30.37,North,360,0.0,1.0,88,0.00,,---,0.00,VWS V14.01,2013-01-14 14:17:00,
2013-01-14 09:18:00,24.6,21.6,30.37,North,360,0.0,0.0,88,0.00,,---,0.00,VWS V14.01,2013-01-14 14:18:00,
2013-01-14 09:19:00,24.6,21.6,30.37,North,355,0.0,1.0,88,0.00,,---,0.00,VWS V14.01,2013-01-14 14:19:00,
2013-01-14 09:20:00,24.6,21.6,30.37,North,11,0.0,2.0,88,0.00,,---,0.00,VWS V14.01,2013-01-14 14:20:00,
2013-01-14 09:21:00,24.6,21.6,30.37,NNW,343,0.0,4.0,88,0.00,,---,0.00,VWS V14.01,2013-01-14 14:21:00,
2013-01-14 09:22:00,24.6,21.6,30.37,NNW,344,0.0,1.0,88,0.00,,---,0.00,VWS V14.01,2013-01-14 14:22:00,
2013-01-14 09:23:00,24.7,21.7,30.37,NNW,335,0.0,1.0,88,0.00,,---,0.00,VWS V14.01,2013-01-14 14:23:00,
2013-01-14 09:24:00,24.7,21.7,30.37,NNW,331,2.0,3.0,88,0.00,,---,0.00,VWS V14.01,2013-01-14 14:24:00,
2013-01-14 09:25:00,24.7,21.7,30.37,NNW,348,3.0,6.0,88,0.00,,---,0.00,VWS V14.01,2013-01-14 14:25:00,
2013-01-14 09:26:00,24.6,21.6,30.37,NNE,16,1.0,4.0,88,0.00,,---,0.00,VWS V14.01,2013-01-14 14:26:00,
2013-01-14 09:27:00,24.6,21.6,30.38,NNE,16,0.0,1.0,88,0.00,,---,0.00,VWS V14.01,2013-01-14 14:27:00,
2013-01-14 09:28:00,24.6,21.6,30.37,NNE,16,0.0,0.0,88,0.00,,---,0.00,VWS V14.01,2013-01-14 14:28:00,
2013-01-14 09:29:00,24.6,21.6,30.38,NNW,344,2.0,4.0,88,0.00,,---,0.00,VWS V14.01,2013-01-14 14:29:00,
2013-01-14 09:30:00,24.6,21.6,30.38,North,355,3.0,5.0,88,0.00,,---,0.00,VWS V14.01,2013-01-14 14:30:00,
2013-01-14 09:31:00,24.6,21.6,30.38,NNE,13,2.0,3.0,88,0.00,,---,0.00,VWS V14.01,2013-01-14 14:31:00,
2013-01-14 09:32:00,24.6,21.6,30.38,NNW,344,3.0,5.0,88,0.00,,---,0.00,VWS V14.01,2013-01-14 14:32:00,
2013-01-14 09:33:00,24.6,21.6,30.38,NNW,344,0.0,3.0,88,0.00,,---,0.00,VWS V14.01,2013-01-14 14:33:00,
2013-01-14 09:34:00,24.5,21.5,30.38,North,5,1.0,3.0,88,0.00,,---,0.00,VWS V14.01,2013-01-14 14:34:00,
2013-01-14 09:35:00,24.5,21.5,30.38,NNE,15,0.0,1.0,88,0.00,,---,0.00,VWS V14.01,2013-01-14 14:35:00,
2013-01-14 09:36:00,24.5,21.5,30.38,NNE,15,0.0,0.0,88,0.00,,---,0.00,VWS V14.01,2013-01-14 14:36:00,
2013-01-14 09:37:00,24.5,21.5,30.38,NNE,15,0.0,1.0,88,0.00,,---,0.00,VWS V14.01,2013-01-14 14:37:00,
2013-01-14 09:38:00,24.5,21.5,30.38,NE,49,1.0,1.0,88,0.00,,---,0.00,VWS V14.01,2013-01-14 14:38:00,
2013-01-14 09:39:00,24.5,21.5,30.38,North,355,4.0,4.0,88,0.00,,---,0.00,VWS V14.01,2013-01-14 14:39:00,
2013-01-14 09:40:00,24.5,21.5,30.38,NNW,339,1.0,4.0,88,0.00,,---,0.00,VWS V14.01,2013-01-14 14:40:00,
2013-01-14 09:41:00,24.5,21.5,30.38,NW,317,0.0,4.0,88,0.00,,---,0.00,VWS V14.01,2013-01-14 14:41:00,
2013-01-14 09:42:00,24.5,21.5,30.38,NW,317,1.0,1.0,88,0.00,,---,0.00,VWS V14.01,2013-01-14 14:42:00,
2013-01-14 09:43:00,24.5,21.5,30.38,North,360,1.0,5.0,88,0.00,,---,0.00,VWS V14.01,2013-01-14 14:43:00,
2013-01-14 09:44:00,24.4,21.4,30.38,NNW,341,3.0,4.0,88,0.00,,---,0.00,VWS V14.01,2013-01-14 14:44:00,
2013-01-14 09:45:00,24.4,21.4,30.38,NW,324,4.0,7.0,88,0.00,,---,0.00,VWS V14.01,2013-01-14 14:45:00,
2013-01-14 09:46:00,24.4,21.4,30.38,NNE,14,3.0,4.0,88,0.00,,---,0.00,VWS V14.01,2013-01-14 14:46:00,
2013-01-14 09:47:00,24.4,21.4,30.38,NNE,24,0.0,5.0,88,0.00,,---,0.00,VWS V14.01,2013-01-14 14:47:00,
2013-01-14 09:48:00,24.3,21.3,30.38,North,360,3.0,3.0,88,0.00,,---,0.00,VWS V14.01,2013-01-14 14:48:00,
2013-01-14 09:49:00,24.3,21.0,30.38,ENE,66,1.0,4.0,87,0.00,,---,0.00,VWS V14.01,2013-01-14 14:49:00,
2013-01-14 09:50:00,24.3,21.3,30.38,NE,53,0.0,2.0,88,0.00,,---,0.00,VWS V14.01,2013-01-14 14:50:00,
2013-01-14 09:51:00,24.4,21.4,30.38,NE,54,0.0,0.0,88,0.00,,---,0.00,VWS V14.01,2013-01-14 14:51:00,
2013-01-14 09:52:00,24.4,21.4,30.38,East,94,0.0,4.0,88,0.00,,---,0.00,VWS V14.01,2013-01-14 14:52:00,
2013-01-14 09:53:00,24.5,21.5,30.38,ENE,74,0.0,2.0,88,0.00,,---,0.00,VWS V14.01,2013-01-14 14:53:00,
2013-01-14 09:54:00,24.5,21.5,30.38,ENE,66,0.0,1.0,88,0.00,,---,0.00,VWS V14.01,2013-01-14 14:54:00,
2013-01-14 09:55:00,24.5,21.5,30.38,ENE,66,0.0,0.0,88,0.00,,---,0.00,VWS V14.01,2013-01-14 14:55:00,
2013-01-14 09:56:00,24.6,21.6,30.38,ENE,65,0.0,0.0,88,0.00,,---,0.00,VWS V14.01,2013-01-14 14:56:00,
2013-01-14 09:57:00,24.6,21.6,30.38,North,355,0.0,3.0,88,0.00,,---,0.00,VWS V14.01,2013-01-14 14:57:00,
2013-01-14 09:58:00,24.7,21.9,30.38,NNE,24,0.0,2.0,89,0.00,,---,0.00,VWS V14.01,2013-01-14 14:58:00,
2013-01-14 09:59:00,24.7,21.7,30.38,NNE,24,0.0,0.0,88,0.00,,---,0.00,VWS V14.01,2013-01-14 14:59:00,
2013-01-14 10:00:00,24.8,21.8,30.38,NNE,24,0.0,0.0,88,0.00,,---,0.00,VWS V14.01,2013-01-14 15:00:00,
2013-01-14 10:01:00,24.8,21.8,30.38,NNE,24,0.0,0.0,88,0.00,,---,0.00,VWS V14.01,2013-01-14 15:01:00,
2013-01-14 10:02:00,24.8,21.8,30.38,NNE,24,0.0,0.0,88,0.00,,---,0.00,VWS V14.01,2013-01-14 15:02:00,
2013-01-14 10:03:00,24.9,21.9,30.38,North,5,0.0,1.0,88,0.00,,---,0.00,VWS V14.01,2013-01-14 15:03:00,
2013-01-14 10:04:00,24.9,21.9,30.38,North,5,1.0,2.0,88,0.00,,---,0.00,VWS V14.01,2013-01-14 15:04:00,
2013-01-14 10:05:00,24.9,21.9,30.38,NE,42,0.0,5.0,88,0.00,,---,0.00,VWS V14.01,2013-01-14 15:05:00,
2013-01-14 10:06:00,24.9,21.9,30.38,NNE,30,0.0,2.0,88,0.00,,---,0.00,VWS V14.01,2013-01-14 15:06:00,
2013-01-14 10:07:00,24.9,21.6,30.38,NNE,30,0.0,1.0,87,0.00,,---,0.00,VWS V14.01,2013-01-14 15:07:00,
2013-01-14 10:08:00,24.9,21.6,30.38,NNE,30,0.0,0.0,87,0.00,,---,0.00,VWS V14.01,2013-01-14 15:08:00,
2013-01-14 10:09:00,24.9,21.6,30.38,North,5,0.0,3.0,87,0.00,,---,0.00,VWS V14.01,2013-01-14 15:09:00,
2013-01-14 10:10:00,24.9,21.6,30.38,ENE,71,2.0,7.0,87,0.00,,---,0.00,VWS V14.01,2013-01-14 15:10:00,
2013-01-14 10:11:00,24.8,21.5,30.38,NE,47,0.0,4.0,87,0.00,,---,0.00,VWS V14.01,2013-01-14 15:11:00,
2013-01-14 10:12:00,24.8,21.5,30.38,NE,47,2.0,2.0,87,0.00,,---,0.00,VWS V14.01,2013-01-14 15:12:00,
2013-01-14 10:13:00,24.8,21.5,30.38,NNE,12,0.0,2.0,87,0.00,,---,0.00,VWS V14.01,2013-01-14 15:13:00,
2013-01-14 10:14:00,24.8,21.5,30.38,NNW,344,2.0,3.0,87,0.00,,---,0.00,VWS V14.01,2013-01-14 15:14:00,
2013-01-14 10:15:00,24.8,21.5,30.38,North,355,2.0,5.0,87,0.00,,---,0.00,VWS V14.01,2013-01-14 15:15:00,
2013-01-14 10:16:00,24.8,21.5,30.38,NNW,346,0.0,4.0,87,0.00,,---,0.00,VWS V14.01,2013-01-14 15:16:00,
2013-01-14 10:17:00,24.7,21.4,30.38,NW,316,0.0,3.0,87,0.00,,---,0.00,VWS V14.01,2013-01-14 15:17:00,
2013-01-14 10:18:00,24.7,21.4,30.38,NW,317,0.0,2.0,87,0.00,,---,0.00,VWS V14.01,2013-01-14 15:18:00,
2013-01-14 10:19:00,24.7,21.4,30.38,NNW,341,0.0,0.0,87,0.00,,---,0.00,VWS V14.01,2013-01-14 15:19:00,
2013-01-14 10:20:00,24.8,21.5,30.38,NNW,337,3.0,3.0,87,0.00,,---,0.00,VWS V14.01,2013-01-14 15:20:00,
2013-01-14 10:21:00,24.8,21.8,30.38,North,355,3.0,5.0,88,0.00,,---,0.00,VWS V14.01,2013-01-14 15:21:00,
2013-01-14 10:22:00,24.8,21.5,30.37,North,5,0.0,5.0,87,0.00,,---,0.00,VWS V14.01,2013-01-14 15:22:00,
2013-01-14 10:23:00,24.8,21.5,30.37,NNW,348,3.0,4.0,87,0.00,,---,0.00,VWS V14.01,2013-01-14 15:23:00,
2013-01-14 10:24:00,24.7,21.4,30.37,North,360,0.0,3.0,87,0.00,,---,0.00,VWS V14.01,2013-01-14 15:24:00,
2013-01-14 10:25:00,24.8,21.5,30.37,NNE,19,2.0,4.0,87,0.00,,---,0.00,VWS V14.01,2013-01-14 15:25:00,
2013-01-14 10:26:00,24.8,21.5,30.38,ENE,67,2.0,5.0,87,0.00,,---,0.00,VWS V14.01,2013-01-14 15:26:00,
2013-01-14 10:27:00,24.8,21.5,30.37,ENE,68,2.0,5.0,87,0.00,,---,0.00,VWS V14.01,2013-01-14 15:27:00,
2013-01-14 10:28:00,24.8,21.5,30.37,North,360,0.0,3.0,87,0.00,,---,0.00,VWS V14.01,2013-01-14 15:28:00,
2013-01-14 10:29:00,24.7,21.4,30.37,North,5,0.0,0.0,87,0.00,,---,0.00,VWS V14.01,2013-01-14 15:29:00,
2013-01-14 10:30:00,24.7,21.4,30.37,NNW,344,5.0,6.0,87,0.00,,---,0.00,VWS V14.01,2013-01-14 15:30:00,
2013-01-14 10:31:00,24.7,21.4,30.37,NNW,346,0.0,5.0,87,0.00,,---,0.00,VWS V14.01,2013-01-14 15:31:00,
2013-01-14 10:32:00,24.7,21.4,30.37,NNW,348,0.0,2.0,87,0.00,,---,0.00,VWS V14.01,2013-01-14 15:32:00,
2013-01-14 10:33:00,24.7,21.4,30.37,NNW,341,1.0,2.0,87,0.00,,---,0.00,VWS V14.01,2013-01-14 15:33:00,
2013-01-14 10:34:00,24.7,21.4,30.37,NNW,341,0.0,1.0,87,0.00,,---,0.00,VWS V14.01,2013-01-14 15:34:00,
2013-01-14 10:35:00,24.7,21.7,30.37,NNW,341,0.0,3.0,88,0.00,,---,0.00,VWS V14.01,2013-01-14 15:35:00,
2013-01-14 10:36:00,24.7,21.7,30.37,NNW,339,1.0,3.0,88,0.00,,---,0.00,VWS V14.01,2013-01-14 15:36:00,
2013-01-14 10:37:00,24.7,21.7,30.37,North,5,6.0,6.0,88,0.00,,---,0.00,VWS V14.01,2013-01-14 15:37:00,
2013-01-14 10:38:00,24.7,21.7,30.37,NNW,338,2.0,6.0,88,0.00,,---,0.00,VWS V14.01,2013-01-14 15:38:00,
2013-01-14 10:39:00,24.7,21.4,30.37,NNW,344,2.0,5.0,87,0.00,,---,0.00,VWS V14.01,2013-01-14 15:39:00,
2013-01-14 10:40:00,24.8,21.5,30.37,North,350,2.0,2.0,87,0.00,,---,0.00,VWS V14.01,2013-01-14 15:40:00,
2013-01-14 10:41:00,24.7,21.4,30.38,NNE,22,1.0,4.0,87,0.00,,---,0.00,VWS V14.01,2013-01-14 15:41:00,
2013-01-14 10:42:00,24.7,21.4,30.37,North,355,2.0,5.0,87,0.00,,---,0.00,VWS V14.01,2013-01-14 15:42:00,
2013-01-14 10:43:00,24.7,21.4,30.37,NNE,31,1.0,2.0,87,0.00,,---,0.00,VWS V14.01,2013-01-14 15:43:00,
2013-01-14 10:44:00,24.7,21.4,30.37,North,355,0.0,5.0,87,0.00,,---,0.00,VWS V14.01,2013-01-14 15:44:00,
2013-01-14 10:45:00,24.8,21.5,30.37,ENE,59,1.0,2.0,87,0.00,,---,0.00,VWS V14.01,2013-01-14 15:45:00,
2013-01-14 10:46:00,24.8,21.8,30.37,ENE,57,1.0,4.0,88,0.00,,---,0.00,VWS V14.01,2013-01-14 15:46:00,
2013-01-14 10:47:00,24.8,21.8,30.37,NNE,22,3.0,4.0,88,0.00,,---,0.00,VWS V14.01,2013-01-14 15:47:00,
2013-01-14 10:48:00,24.9,21.9,30.37,North,350,3.0,5.0,88,0.00,,---,0.00,VWS V14.01,2013-01-14 15:48:00,
2013-01-14 10:49:00,24.9,21.9,30.37,NE,34,0.0,4.0,88,0.00,,---,0.00,VWS V14.01,2013-01-14 15:49:00,
2013-01-14 10:50:00,24.9,21.9,30.37,NNE,13,2.0,5.0,88,0.00,,---,0.00,VWS V14.01,2013-01-14 15:50:00,
2013-01-14 10:51:00,25.0,22.0,30.37,NNE,28,3.0,5.0,88,0.00,,---,0.00,VWS V14.01,2013-01-14 15:51:00,
2013-01-14 10:52:00,25.0,22.0,30.37,NE,40,2.0,5.0,88,0.00,,---,0.00,VWS V14.01,2013-01-14 15:52:00,
2013-01-14 10:53:00,25.0,21.7,30.37,North,360,4.0,4.0,87,0.00,,---,0.00,VWS V14.01,2013-01-14 15:53:00,
2013-01-14 10:54:00,25.1,22.0,30.37,NNW,335,3.0,4.0,88,0.00,,---,0.00,VWS V14.01,2013-01-14 15:54:00,
2013-01-14 10:55:00,25.1,22.0,30.37,NNW,346,1.0,3.0,88,0.00,,---,0.00,VWS V14.01,2013-01-14 15:55:00,
2013-01-14 10:56:00,25.1,21.8,30.37,NNW,344,0.0,3.0,87,0.00,,---,0.00,VWS V14.01,2013-01-14 15:56:00,
2013-01-14 10:57:00,25.1,21.8,30.36,NE,52,2.0,4.0,87,0.00,,---,0.00,VWS V14.01,2013-01-14 15:57:00,
2013-01-14 10:58:00,25.1,21.8,30.36,NE,42,0.0,2.0,87,0.00,,---,0.00,VWS V14.01,2013-01-14 15:58:00,
2013-01-14 10:59:00,25.1,21.8,30.36,East,88,4.0,6.0,87,0.00,,---,0.00,VWS V14.01,2013-01-14 15:59:00,
2013-01-14 11:00:00,25.1,21.8,30.36,NE,48,1.0,6.0,87,0.00,,---,0.00,VWS V14.01,2013-01-14 16:00:00,
2013-01-14 11:01:00,25.0,21.7,30.36,North,360,0.0,2.0,87,0.00,,---,0.00,VWS V14.01,2013-01-14 16:01:00,
2013-01-14 11:02:00,25.1,21.8,30.36,North,360,0.0,0.0,87,0.00,,---,0.00,VWS V14.01,2013-01-14 16:02:00,
2013-01-14 11:03:00,25.1,21.8,30.36,NNW,337,2.0,3.0,87,0.00,,---,0.00,VWS V14.01,2013-01-14 16:03:00,
2013-01-14 11:04:00,25.1,21.8,30.36,NNE,31,0.0,2.0,87,0.00,,---,0.00,VWS V14.01,2013-01-14 16:04:00,
2013-01-14 11:05:00,25.1,21.8,30.36,NE,49,0.0,2.0,87,0.00,,---,0.00,VWS V14.01,2013-01-14 16:05:00,
2013-01-14 11:06:00,25.1,21.8,30.35,NNE,17,0.0,2.0,87,0.00,,---,0.00,VWS V14.01,2013-01-14 16:06:00,
2013-01-14 11:07:00,25.2,21.9,30.35,NE,51,7.0,7.0,87,0.00,,---,0.00,VWS V14.01,2013-01-14 16:07:00,
2013-01-14 11:08:00,25.2,21.9,30.35,ENE,59,3.0,7.0,87,0.00,,---,0.00,VWS V14.01,2013-01-14 16:08:00,
2013-01-14 11:09:00,25.2,21.9,30.35,NE,34,1.0,3.0,87,0.00,,---,0.00,VWS V14.01,2013-01-14 16:09:00,
2013-01-14 11:10:00,25.3,22.0,30.35,NE,42,2.0,4.0,87,0.00,,---,0.00,VWS V14.01,2013-01-14 16:10:00,
2013-01-14 11:11:00,25.3,22.0,30.35,NE,51,1.0,3.0,87,0.00,,---,0.00,VWS V14.01,2013-01-14 16:11:00,
2013-01-14 11:12:00,25.3,22.0,30.35,East,86,3.0,3.0,87,0.00,,---,0.00,VWS V14.01,2013-01-14 16:12:00,
2013-01-14 11:13:00,25.4,22.1,30.35,ENE,66,1.0,5.0,87,0.00,,---,0.00,VWS V14.01,2013-01-14 16:13:00,
2013-01-14 11:14:00,25.4,22.1,30.35,NE,34,1.0,3.0,87,0.00,,---,0.00,VWS V14.01,2013-01-14 16:14:00,
2013-01-14 11:15:00,25.4,22.1,30.35,NNW,342,2.0,3.0,87,0.00,,---,0.00,VWS V14.01,2013-01-14 16:15:00,
2013-01-14 11:16:00,25.4,22.1,30.35,North,355,1.0,4.0,87,0.00,,---,0.00,VWS V14.01,2013-01-14 16:16:00,
2013-01-14 11:17:00,25.4,21.8,30.34,NNE,14,1.0,1.0,86,0.00,,---,0.00,VWS V14.01,2013-01-14 16:17:00,
2013-01-14 11:18:00,25.4,22.1,30.34,NE,44,0.0,3.0,87,0.00,,---,0.00,VWS V14.01,2013-01-14 16:18:00,
2013-01-14 11:19:00,25.5,22.2,30.34,NE,45,0.0,1.0,87,0.00,,---,0.00,VWS V14.01,2013-01-14 16:19:00,
2013-01-14 11:20:00,25.6,22.3,30.34,NNE,32,0.0,5.0,87,0.00,,---,0.00,VWS V14.01,2013-01-14 16:20:00,
2013-01-14 11:21:00,25.6,22.3,30.34,East,100,4.0,6.0,87,0.00,,---,0.00,VWS V14.01,2013-01-14 16:21:00,
2013-01-14 11:22:00,25.7,22.4,30.34,ENE,74,2.0,4.0,87,0.00,,---,0.00,VWS V14.01,2013-01-14 16:22:00,
2013-01-14 11:23:00,25.7,22.4,30.33,ESE,104,0.0,5.0,87,0.00,,---,0.00,VWS V14.01,2013-01-14 16:23:00,
2013-01-14 11:24:00,25.7,22.4,30.33,East,92,0.0,2.0,87,0.00,,---,0.00,VWS V14.01,2013-01-14 16:24:00,
2013-01-14 11:25:00,25.8,22.5,30.33,East,92,1.0,1.0,87,0.00,,---,0.00,VWS V14.01,2013-01-14 16:25:00,
2013-01-14 11:26:00,25.8,22.5,30.33,NE,55,2.0,2.0,87,0.00,,---,0.00,VWS V14.01,2013-01-14 16:26:00,
2013-01-14 11:27:00,25.9,22.6,30.33,NNE,29,1.0,3.0,87,0.00,,---,0.00,VWS V14.01,2013-01-14 16:27:00,
2013-01-14 11:28:00,26.0,22.4,30.33,SE,136,0.0,5.0,86,0.00,,---,0.00,VWS V14.01,2013-01-14 16:28:00,
2013-01-14 11:29:00,26.0,22.7,30.32,ENE,77,2.0,2.0,87,0.00,,---,0.00,VWS V14.01,2013-01-14 16:29:00,
2013-01-14 11:30:00,26.0,22.7,30.32,NNE,19,0.0,4.0,87,0.00,,---,0.00,VWS V14.01,2013-01-14 16:30:00,
2013-01-14 11:31:00,26.0,22.4,30.32,NNE,25,0.0,1.0,86,0.00,,---,0.00,VWS V14.01,2013-01-14 16:31:00,
2013-01-14 11:32:00,26.1,22.5,30.32,East,93,0.0,4.0,86,0.00,,---,0.00,VWS V14.01,2013-01-14 16:32:00,
2013-01-14 11:33:00,26.1,22.5,30.32,SE,138,0.0,4.0,86,0.00,,---,0.00,VWS V14.01,2013-01-14 16:33:00,
2013-01-14 11:34:00,26.2,22.6,30.32,ENE,74,2.0,4.0,86,0.00,,---,0.00,VWS V14.01,2013-01-14 16:34:00,
2013-01-14 11:35:00,26.2,22.6,30.32,NE,55,0.0,3.0,86,0.00,,---,0.00,VWS V14.01,2013-01-14 16:35:00,
2013-01-14 11:36:00,26.2,22.6,30.32,SE,128,1.0,4.0,86,0.00,,---,0.00,VWS V14.01,2013-01-14 16:36:00,
2013-01-14 11:37:00,26.3,22.7,30.31,ENE,60,1.0,3.0,86,0.00,,---,0.00,VWS V14.01,2013-01-14 16:37:00,
2013-01-14 11:38:00,26.3,22.7,30.31,ENE,63,3.0,6.0,86,0.00,,---,0.00,VWS V14.01,2013-01-14 16:38:00,
2013-01-14 11:39:00,26.5,23.2,30.31,ENE,77,1.0,3.0,87,0.00,,---,0.00,VWS V14.01,2013-01-14 16:39:00,
2013-01-14 11:40:00,26.6,23.3,30.31,NE,53,1.0,5.0,87,0.00,,---,0.00,VWS V14.01,2013-01-14 16:40:00,
2013-01-14 11:41:00,26.6,23.3,30.31,ENE,74,0.0,3.0,87,0.00,,---,0.00,VWS V14.01,2013-01-14 16:41:00,
2013-01-14 11:42:00,26.6,23.0,30.31,ENE,65,1.0,3.0,86,0.00,,---,0.00,VWS V14.01,2013-01-14 16:42:00,
2013-01-14 11:43:00,26.7,23.1,30.31,NE,43,1.0,4.0,86,0.00,,---,0.00,VWS V14.01,2013-01-14 16:43:00,
2013-01-14 11:44:00,26.8,23.2,30.30,ENE,70,1.0,3.0,86,0.00,,---,0.00,VWS V14.01,2013-01-14 16:44:00,
2013-01-14 11:45:00,26.9,23.3,30.30,ENE,63,2.0,3.0,86,0.00,,---,0.00,VWS V14.01,2013-01-14 16:45:00,
2013-01-14 11:46:00,26.9,23.3,30.30,NNW,337,3.0,3.0,86,0.00,,---,0.00,VWS V14.01,2013-01-14 16:46:00,
2013-01-14 11:47:00,26.9,23.0,30.30,North,9,3.0,3.0,85,0.00,,---,0.00,VWS V14.01,2013-01-14 16:47:00,
2013-01-14 11:48:00,26.9,23.3,30.30,NE,50,3.0,4.0,86,0.00,,---,0.00,VWS V14.01,2013-01-14 16:48:00,
2013-01-14 11:49:00,27.0,23.4,30.31,North,5,3.0,4.0,86,0.00,,---,0.00,VWS V14.01,2013-01-14 16:49:00,
2013-01-14 11:50:00,27.0,23.1,30.31,NNE,32,0.0,3.0,85,0.00,,---,0.00,VWS V14.01,2013-01-14 16:50:00,
2013-01-14 11:51:00,27.0,23.1,30.32,North,5,3.0,4.0,85,0.00,,---,0.00,VWS V14.01,2013-01-14 16:51:00,
2013-01-14 11:52:00,27.0,23.1,30.32,NNW,342,3.0,4.0,85,0.00,,---,0.00,VWS V14.01,2013-01-14 16:52:00,
2013-01-14 11:53:00,27.0,23.1,30.32,North,11,1.0,3.0,85,0.00,,---,0.00,VWS V14.01,2013-01-14 16:53:00,
2013-01-14 11:54:00,27.0,23.1,30.33,NNE,15,1.0,2.0,85,0.00,,---,0.00,VWS V14.01,2013-01-14 16:54:00,
2013-01-14 11:55:00,27.0,23.1,30.33,North,5,2.0,5.0,85,0.00,,---,0.00,VWS V14.01,2013-01-14 16:55:00,
2013-01-14 11:56:00,27.0,22.8,30.33,NNE,15,0.0,3.0,84,0.00,,---,0.00,VWS V14.01,2013-01-14 16:56:00,
2013-01-14 11:57:00,27.0,22.8,30.33,North,5,0.0,2.0,84,0.00,,---,0.00,VWS V14.01,2013-01-14 16:57:00,
2013-01-14 11:58:00,26.9,22.7,30.33,North,5,0.0,0.0,84,0.00,,---,0.00,VWS V14.01,2013-01-14 16:58:00,
2013-01-14 11:59:00,27.0,23.1,30.33,North,5,1.0,1.0,85,0.00,,---,0.00,VWS V14.01,2013-01-14 16:59:00,
2013-01-14 12:00:00,27.0,23.1,30.33,North,5,0.0,2.0,85,0.00,,---,0.00,VWS V14.01,2013-01-14 17:00:00,
2013-01-14 12:01:00,27.0,23.1,30.33,ENE,61,2.0,3.0,85,0.00,,---,0.00,VWS V14.01,2013-01-14 17:01:00,
2013-01-14 12:02:00,27.0,23.1,30.33,NNE,20,0.0,5.0,85,0.00,,---,0.00,VWS V14.01,2013-01-14 17:02:00,
2013-01-14 12:03:00,27.0,23.1,30.33,North,350,0.0,4.0,85,0.00,,---,0.00,VWS V14.01,2013-01-14 17:03:00,
2013-01-14 12:04:00,27.1,23.2,30.33,North,350,0.0,0.0,85,0.00,,---,0.00,VWS V14.01,2013-01-14 17:04:00,
2013-01-14 12:05:00,27.2,23.3,30.33,ENE,61,0.0,2.0,85,0.00,,---,0.00,VWS V14.01,2013-01-14 17:05:00,
2013-01-14 12:06:00,27.2,23.3,30.33,NNW,338,1.0,4.0,85,0.00,,---,0.00,VWS V14.01,2013-01-14 17:06:00,
2013-01-14 12:07:00,27.2,23.3,30.33,NNW,346,0.0,3.0,85,0.00,,---,0.00,VWS V14.01,2013-01-14 17:07:00,
2013-01-14 12:08:00,27.3,23.4,30.33,North,351,0.0,0.0,85,0.00,,---,0.00,VWS V14.01,2013-01-14 17:08:00,
2013-01-14 12:09:00,27.3,23.4,30.33,North,355,0.0,2.0,85,0.00,,---,0.00,VWS V14.01,2013-01-14 17:09:00,
2013-01-14 12:10:00,27.4,23.5,30.33,NNW,333,1.0,3.0,85,0.00,,---,0.00,VWS V14.01,2013-01-14 17:10:00,
2013-01-14 12:11:00,27.4,23.5,30.33,NNW,348,2.0,3.0,85,0.00,,---,0.00,VWS V14.01,2013-01-14 17:11:00,
2013-01-14 12:12:00,27.4,23.5,30.33,North,349,2.0,5.0,85,0.00,,---,0.00,VWS V14.01,2013-01-14 17:12:00,
2013-01-14 12:13:00,27.4,23.5,30.33,NNW,343,2.0,6.0,85,0.00,,---,0.00,VWS V14.01,2013-01-14 17:13:00,
2013-01-14 12:14:00,27.4,23.2,30.33,NNW,345,1.0,4.0,84,0.00,,---,0.00,VWS V14.01,2013-01-14 17:14:00,
2013-01-14 12:15:00,27.4,23.2,30.33,NNE,29,0.0,2.0,84,0.00,,---,0.00,VWS V14.01,2013-01-14 17:15:00,
2013-01-14 12:16:00,27.3,23.1,30.32,NNE,29,1.0,1.0,84,0.00,,---,0.00,VWS V14.01,2013-01-14 17:16:00,
2013-01-14 12:17:00,27.4,23.5,30.32,NNW,348,1.0,4.0,85,0.00,,---,0.00,VWS V14.01,2013-01-14 17:17:00,
2013-01-14 12:18:00,27.4,23.5,30.32,NNE,20,0.0,3.0,85,0.00,,---,0.00,VWS V14.01,2013-01-14 17:18:00,
2013-01-14 12:19:00,27.4,23.2,30.32,North,351,2.0,6.0,84,0.00,,---,0.00,VWS V14.01,2013-01-14 17:19:00,
2013-01-14 12:20:00,27.4,23.2,30.32,NNE,19,0.0,2.0,84,0.00,,---,0.00,VWS V14.01,2013-01-14 17:20:00,
2013-01-14 12:21:00,27.3,23.1,30.32,NE,41,1.0,3.0,84,0.00,,---,0.00,VWS V14.01,2013-01-14 17:21:00,
2013-01-14 12:22:00,27.3,23.1,30.32,North,360,2.0,4.0,84,0.00,,---,0.00,VWS V14.01,2013-01-14 17:22:00,
2013-01-14 12:23:00,27.3,23.1,30.31,NNE,15,0.0,3.0,84,0.00,,---,0.00,VWS V14.01,2013-01-14 17:23:00,
2013-01-14 12:24:00,27.3,23.1,30.31,North,360,2.0,5.0,84,0.00,,---,0.00,VWS V14.01,2013-01-14 17:24:00,
2013-01-14 12:25:00,27.3,23.1,30.31,North,355,0.0,2.0,84,0.00,,---,0.00,VWS V14.01,2013-01-14 17:25:00,
2013-01-14 12:26:00,27.3,22.8,30.32,North,355,0.0,3.0,83,0.00,,---,0.00,VWS V14.01,2013-01-14 17:26:00,
2013-01-14 12:27:00,27.3,22.8,30.32,ENE,57,0.0,3.0,83,0.00,,---,0.00,VWS V14.01,2013-01-14 17:27:00,
2013-01-14 12:28:00,27.3,22.8,30.32,NNE,25,1.0,3.0,83,0.00,,---,0.00,VWS V14.01,2013-01-14 17:28:00,
2013-01-14 12:29:00,27.4,22.9,30.32,NNE,15,1.0,3.0,83,0.00,,---,0.00,VWS V14.01,2013-01-14 17:29:00,
2013-01-14 12:30:00,27.4,22.9,30.32,NW,305,0.0,2.0,83,0.00,,---,0.00,VWS V14.01,2013-01-14 17:30:00,
2013-01-14 12:31:00,27.5,23.3,30.32,NW,318,3.0,5.0,84,0.00,,---,0.00,VWS V14.01,2013-01-14 17:31:00,
2013-01-14 12:32:00,27.5,23.0,30.32,NW,311,4.0,5.0,83,0.00,,---,0.00,VWS V14.01,2013-01-14 17:32:00,
2013-01-14 12:33:00,27.4,22.6,30.33,NW,306,0.0,5.0,82,0.00,,---,0.00,VWS V14.01,2013-01-14 17:33:00,
2013-01-14 12:34:00,27.4,22.6,30.33,NW,306,0.0,1.0,82,0.00,,---,0.00,VWS V14.01,2013-01-14 17:34:00,
2013-01-14 12:35:00,27.4,22.6,30.33,NW,309,2.0,2.0,82,0.00,,---,0.00,VWS V14.01,2013-01-14 17:35:00,
2013-01-14 12:36:00,27.3,22.5,30.32,NW,309,0.0,2.0,82,0.00,,---,0.00,VWS V14.01,2013-01-14 17:36:00,
2013-01-14 12:37:00,27.3,22.8,30.32,NNW,332,1.0,2.0,83,0.00,,---,0.00,VWS V14.01,2013-01-14 17:37:00,
2013-01-14 12:38:00,27.4,22.9,30.32,North,5,1.0,5.0,83,0.00,,---,0.00,VWS V14.01,2013-01-14 17:38:00,
2013-01-14 12:39:00,27.4,22.9,30.32,East,87,0.0,4.0,83,0.00,,---,0.00,VWS V14.01,2013-01-14 17:39:00,
2013-01-14 12:40:00,27.5,23.0,30.32,East,86,0.0,2.0,83,0.00,,---,0.00,VWS V14.01,2013-01-14 17:40:00,
2013-01-14 12:41:00,27.5,23.0,30.32,NNE,33,4.0,5.0,83,0.00,,---,0.00,VWS V14.01,2013-01-14 17:41:00,
2013-01-14 12:42:00,27.6,23.1,30.32,NE,51,2.0,4.0,83,0.00,,---,0.00,VWS V14.01,2013-01-14 17:42:00,
2013-01-14 12:43:00,27.6,22.8,30.32,NNE,24,0.0,2.0,82,0.00,,---,0.00,VWS V14.01,2013-01-14 17:43:00,
2013-01-14 12:44:00,27.7,22.9,30.32,NE,35,1.0,3.0,82,0.00,,---,0.00,VWS V14.01,2013-01-14 17:44:00,
2013-01-14 12:45:00,27.7,22.9,30.32,North,355,0.0,4.0,82,0.00,,---,0.00,VWS V14.01,2013-01-14 17:45:00,
2013-01-14 12:46:00,27.8,23.0,30.32,NNW,340,3.0,5.0,82,0.00,,---,0.00,VWS V14.01,2013-01-14 17:46:00,
2013-01-14 12:47:00,27.8,23.0,30.32,NNW,342,2.0,3.0,82,0.00,,---,0.00,VWS V14.01,2013-01-14 17:47:00,
2013-01-14 12:48:00,27.8,23.0,30.32,NNW,336,3.0,8.0,82,0.00,,---,0.00,VWS V14.01,2013-01-14 17:48:00,
2013-01-14 12:49:00,27.8,22.7,30.32,NNW,336,2.0,5.0,81,0.00,,---,0.00,VWS V14.01,2013-01-14 17:49:00,
2013-01-14 12:50:00,27.8,22.7,30.32,NNE,24,0.0,4.0,81,0.00,,---,0.00,VWS V14.01,2013-01-14 17:50:00,
2013-01-14 12:51:00,27.8,22.7,30.32,NNW,348,4.0,4.0,81,0.00,,---,0.00,VWS V14.01,2013-01-14 17:51:00,
2013-01-14 12:52:00,27.8,22.7,30.32,NNW,335,4.0,5.0,81,0.00,,---,0.00,VWS V14.01,2013-01-14 17:52:00,
2013-01-14 12:53:00,27.8,22.7,30.32,NNE,32,0.0,4.0,81,0.00,,---,0.00,VWS V14.01,2013-01-14 17:53:00,
2013-01-14 12:54:00,27.8,22.7,30.32,NNW,330,1.0,3.0,81,0.00,,---,0.00,VWS V14.01,2013-01-14 17:54:00,
2013-01-14 12:55:00,27.9,22.8,30.32,NNW,331,0.0,2.0,81,0.00,,---,0.00,VWS V14.01,2013-01-14 17:55:00,
2013-01-14 12:56:00,27.9,23.1,30.32,North,5,1.0,2.0,82,0.00,,---,0.00,VWS V14.01,2013-01-14 17:56:00,
2013-01-14 12:57:00,27.9,23.1,30.32,North,11,0.0,1.0,82,0.00,,---,0.00,VWS V14.01,2013-01-14 17:57:00,
2013-01-14 12:58:00,28.0,23.5,30.32,NNE,33,0.0,1.0,83,0.00,,---,0.00,VWS V14.01,2013-01-14 17:58:00,
2013-01-14 12:59:00,28.2,23.7,30.32,NNW,345,2.0,2.0,83,0.00,,---,0.00,VWS V14.01,2013-01-14 17:59:00,
2013-01-14 13:00:00,28.3,23.8,30.32,NE,36,2.0,4.0,83,0.00,,---,0.00,VWS V14.01,2013-01-14 18:00:00,
2013-01-14 13:01:00,28.3,23.8,30.32,NNE,15,6.0,6.0,83,0.00,,---,0.00,VWS V14.01,2013-01-14 18:01:00,
2013-01-14 13:02:00,28.4,23.6,30.32,NNE,12,2.0,7.0,82,0.00,,---,0.00,VWS V14.01,2013-01-14 18:02:00,
2013-01-14 13:03:00,28.3,23.5,30.32,NNW,342,0.0,3.0,82,0.00,,---,0.00,VWS V14.01,2013-01-14 18:03:00,
2013-01-14 13:04:00,28.3,23.2,30.32,North,10,3.0,3.0,81,0.00,,---,0.00,VWS V14.01,2013-01-14 18:04:00,
2013-01-14 13:05:00,28.3,23.5,30.32,North,355,1.0,7.0,82,0.00,,---,0.00,VWS V14.01,2013-01-14 18:05:00,
2013-01-14 13:06:00,28.2,23.1,30.32,NNW,343,4.0,8.0,81,0.00,,---,0.00,VWS V14.01,2013-01-14 18:06:00,
2013-01-14 13:07:00,28.1,22.7,30.32,NNE,14,0.0,4.0,80,0.00,,---,0.00,VWS V14.01,2013-01-14 18:07:00,
2013-01-14 13:08:00,28.0,22.6,30.32,NNE,14,0.0,1.0,80,0.00,,---,0.00,VWS V14.01,2013-01-14 18:08:00,
2013-01-14 13:09:00,28.0,22.6,30.32,North,360,0.0,2.0,80,0.00,,---,0.00,VWS V14.01,2013-01-14 18:09:00,
2013-01-14 13:10:00,28.0,22.9,30.31,NNE,17,2.0,6.0,81,0.00,,---,0.00,VWS V14.01,2013-01-14 18:10:00,
2013-01-14 13:11:00,28.1,23.3,30.31,NNE,25,3.0,4.0,82,0.00,,---,0.00,VWS V14.01,2013-01-14 18:11:00,
2013-01-14 13:12:00,28.1,23.3,30.31,NNE,13,3.0,4.0,82,0.00,,---,0.00,VWS V14.01,2013-01-14 18:12:00,
2013-01-14 13:13:00,28.3,23.5,30.31,ENE,74,3.0,4.0,82,0.00,,---,0.00,VWS V14.01,2013-01-14 18:13:00,
2013-01-14 13:14:00,28.3,23.5,30.31,NE,34,5.0,6.0,82,0.00,,---,0.00,VWS V14.01,2013-01-14 18:14:00,
2013-01-14 13:15:00,28.4,23.3,30.31,North,9,1.0,5.0,81,0.00,,---,0.00,VWS V14.01,2013-01-14 18:15:00,
2013-01-14 13:16:00,28.4,23.3,30.31,ENE,59,0.0,3.0,81,0.00,,---,0.00,VWS V14.01,2013-01-14 18:16:00,
2013-01-14 13:17:00,28.5,23.4,30.31,NE,55,0.0,1.0,81,0.00,,---,0.00,VWS V14.01,2013-01-14 18:17:00,
2013-01-14 13:18:00,28.5,23.7,30.30,North,11,3.0,3.0,82,0.00,,---,0.00,VWS V14.01,2013-01-14 18:18:00,
2013-01-14 13:19:00,28.6,23.8,30.30,East,86,1.0,4.0,82,0.00,,---,0.00,VWS V14.01,2013-01-14 18:19:00,
2013-01-14 13:20:00,28.7,23.9,30.30,NE,55,0.0,1.0,82,0.00,,---,0.00,VWS V14.01,2013-01-14 18:20:00,
2013-01-14 13:21:00,28.8,24.0,30.30,NE,55,0.0,0.0,82,0.00,,---,0.00,VWS V14.01,2013-01-14 18:21:00,
2013-01-14 13:22:00,28.8,24.3,30.31,NE,55,0.0,1.0,83,0.00,,---,0.00,VWS V14.01,2013-01-14 18:22:00,
2013-01-14 13:23:00,28.9,24.1,30.31,NE,53,0.0,4.0,82,0.00,,---,0.00,VWS V14.01,2013-01-14 18:23:00,
2013-01-14 13:24:00,28.9,24.1,30.31,NW,323,2.0,2.0,82,0.00,,---,0.00,VWS V14.01,2013-01-14 18:24:00,
2013-01-14 13:25:00,29.0,24.2,30.31,NW,323,0.0,2.0,82,0.00,,---,0.00,VWS V14.01,2013-01-14 18:25:00,
2013-01-14 13:26:00,29.0,24.2,30.31,NNE,16,0.0,1.0,82,0.00,,---,0.00,VWS V14.01,2013-01-14 18:26:00,
2013-01-14 13:27:00,29.0,24.2,30.32,NNW,331,4.0,4.0,82,0.00,,---,0.00,VWS V14.01,2013-01-14 18:27:00,
2013-01-14 13:28:00,28.9,23.8,30.32,NE,42,0.0,5.0,81,0.00,,---,0.00,VWS V14.01,2013-01-14 18:28:00,
2013-01-14 13:29:00,28.9,23.5,30.33,NNE,15,4.0,6.0,80,0.00,,---,0.00,VWS V14.01,2013-01-14 18:29:00,
2013-01-14 13:30:00,28.8,23.4,30.33,NNE,29,0.0,4.0,80,0.00,,---,0.00,VWS V14.01,2013-01-14 18:30:00,
2013-01-14 13:31:00,28.8,23.7,30.34,North,349,2.0,3.0,81,0.00,,---,0.00,VWS V14.01,2013-01-14 18:31:00,
2013-01-14 13:32:00,28.8,23.7,30.34,North,349,0.0,2.0,81,0.00,,---,0.00,VWS V14.01,2013-01-14 18:32:00,
2013-01-14 13:33:00,28.8,23.7,30.34,North,349,0.0,0.0,81,0.00,,---,0.00,VWS V14.01,2013-01-14 18:33:00,
2013-01-14 13:34:00,28.8,23.7,30.34,NW,315,0.0,2.0,81,0.00,,---,0.00,VWS V14.01,2013-01-14 18:34:00,
2013-01-14 13:35:00,28.9,23.8,30.34,NW,313,0.0,2.0,81,0.00,,---,0.00,VWS V14.01,2013-01-14 18:35:00,
2013-01-14 13:36:00,28.9,23.8,30.34,NW,326,3.0,3.0,81,0.00,,---,0.00,VWS V14.01,2013-01-14 18:36:00,
2013-01-14 13:37:00,28.9,23.8,30.33,NNE,17,2.0,4.0,81,0.00,,---,0.00,VWS V14.01,2013-01-14 18:37:00,
2013-01-14 13:38:00,29.0,24.2,30.33,NE,48,0.0,3.0,82,0.00,,---,0.00,VWS V14.01,2013-01-14 18:38:00,
2013-01-14 13:39:00,29.0,24.2,30.33,East,90,1.0,4.0,82,0.00,,---,0.00,VWS V14.01,2013-01-14 18:39:00,
2013-01-14 13:40:00,29.0,23.9,30.32,NNW,344,0.0,4.0,81,0.00,,---,0.00,VWS V14.01,2013-01-14 18:40:00,
2013-01-14 13:41:00,29.0,23.9,30.32,WNW,298,3.0,4.0,81,0.00,,---,0.00,VWS V14.01,2013-01-14 18:41:00,
2013-01-14 13:42:00,28.9,23.5,30.32,NW,314,0.0,4.0,80,0.00,,---,0.00,VWS V14.01,2013-01-14 18:42:00,
2013-01-14 13:43:00,28.9,23.8,30.32,NW,319,3.0,3.0,81,0.00,,---,0.00,VWS V14.01,2013-01-14 18:43:00,
2013-01-14 13:44:00,28.9,23.8,30.32,NNW,333,0.0,3.0,81,0.00,,---,0.00,VWS V14.01,2013-01-14 18:44:00,
2013-01-14 13:45:00,28.8,23.7,30.32,North,355,4.0,4.0,81,0.00,,---,0.00,VWS V14.01,2013-01-14 18:45:00,
2013-01-14 13:46:00,28.8,23.7,30.33,NNE,25,1.0,6.0,81,0.00,,---,0.00,VWS V14.01,2013-01-14 18:46:00,
2013-01-14 13:47:00,28.7,23.6,30.32,North,351,5.0,6.0,81,0.00,,---,0.00,VWS V14.01,2013-01-14 18:47:00,
2013-01-14 13:48:00,28.7,23.6,30.32,NNE,17,3.0,5.0,81,0.00,,---,0.00,VWS V14.01,2013-01-14 18:48:00,
2013-01-14 13:49:00,28.7,23.6,30.32,North,360,0.0,3.0,81,0.00,,---,0.00,VWS V14.01,2013-01-14 18:49:00,
2013-01-14 13:50:00,28.7,23.6,30.32,NNE,19,3.0,3.0,81,0.00,,---,0.00,VWS V14.01,2013-01-14 18:50:00,
2013-01-14 13:51:00,28.7,23.6,30.32,North,9,3.0,3.0,81,0.00,,---,0.00,VWS V14.01,2013-01-14 18:51:00,
2013-01-14 13:52:00,28.7,23.6,30.32,North,349,0.0,3.0,81,0.00,,---,0.00,VWS V14.01,2013-01-14 18:52:00,
2013-01-14 13:53:00,28.6,23.5,30.32,North,5,1.0,1.0,81,0.00,,---,0.00,VWS V14.01,2013-01-14 18:53:00,
2013-01-14 13:54:00,28.6,23.5,30.32,North,360,0.0,2.0,81,0.00,,---,0.00,VWS V14.01,2013-01-14 18:54:00,
2013-01-14 13:55:00,28.6,23.5,30.32,ENE,60,7.0,9.0,81,0.00,,---,0.00,VWS V14.01,2013-01-14 18:55:00,
2013-01-14 13:56:00,28.5,23.1,30.32,NNE,22,2.0,7.0,80,0.00,,---,0.00,VWS V14.01,2013-01-14 18:56:00,
2013-01-14 13:57:00,28.5,23.1,30.32,NNW,327,1.0,2.0,80,0.00,,---,0.00,VWS V14.01,2013-01-14 18:57:00,
2013-01-14 13:58:00,28.4,23.3,30.32,WNW,301,4.0,4.0,81,0.00,,---,0.00,VWS V14.01,2013-01-14 18:58:00,
2013-01-14 13:59:00,28.4,23.3,30.32,NW,309,2.0,5.0,81,0.00,,---,0.00,VWS V14.01,2013-01-14 18:59:00,
2013-01-14 14:00:00,28.3,22.9,30.31,NW,309,0.0,3.0,80,0.00,,---,0.00,VWS V14.01,2013-01-14 19:00:00,
2013-01-14 14:01:00,28.3,23.2,30.31,North,10,4.0,6.0,81,0.00,,---,0.00,VWS V14.01,2013-01-14 19:01:00,
2013-01-14 14:02:00,28.3,23.2,30.31,ENE,78,2.0,5.0,81,0.00,,---,0.00,VWS V14.01,2013-01-14 19:02:00,
2013-01-14 14:03:00,28.3,23.2,30.30,NNE,14,2.0,8.0,81,0.00,,---,0.00,VWS V14.01,2013-01-14 19:03:00,
2013-01-14 14:04:00,28.4,23.3,30.30,NE,37,3.0,6.0,81,0.00,,---,0.00,VWS V14.01,2013-01-14 19:04:00,
2013-01-14 14:05:00,28.4,23.3,30.30,North,355,4.0,5.0,81,0.00,,---,0.00,VWS V14.01,2013-01-14 19:05:00,
2013-01-14 14:06:00,28.4,23.3,30.30,ENE,60,5.0,6.0,81,0.00,,---,0.00,VWS V14.01,2013-01-14 19:06:00,
2013-01-14 14:07:00,28.4,23.3,30.30,NE,51,1.0,5.0,81,0.00,,---,0.00,VWS V14.01,2013-01-14 19:07:00,
2013-01-14 14:08:00,28.4,23.3,30.30,NNW,341,3.0,6.0,81,0.00,,---,0.00,VWS V14.01,2013-01-14 19:08:00,
2013-01-14 14:09:00,28.4,23.3,30.30,North,360,7.0,8.0,81,0.00,,---,0.00,VWS V14.01,2013-01-14 19:09:00,
2013-01-14 14:10:00,28.4,23.3,30.30,NNW,348,2.0,7.0,81,0.00,,---,0.00,VWS V14.01,2013-01-14 19:10:00,
2013-01-14 14:11:00,28.3,22.9,30.30,NNW,336,4.0,5.0,80,0.00,,---,0.00,VWS V14.01,2013-01-14 19:11:00,
2013-01-14 14:12:00,28.3,22.9,30.30,NNW,339,1.0,9.0,80,0.00,,---,0.00,VWS V14.01,2013-01-14 19:12:00,
2013-01-14 14:13:00,28.3,22.9,30.30,NNE,28,1.0,4.0,80,0.00,,---,0.00,VWS V14.01,2013-01-14 19:13:00,
2013-01-14 14:14:00,28.3,23.2,30.30,NNE,31,4.0,6.0,81,0.00,,---,0.00,VWS V14.01,2013-01-14 19:14:00,
2013-01-14 14:15:00,28.4,23.3,30.30,NNW,332,3.0,6.0,81,0.00,,---,0.00,VWS V14.01,2013-01-14 19:15:00,
2013-01-14 14:16:00,28.4,23.3,30.30,NNE,28,3.0,6.0,81,0.00,,---,0.00,VWS V14.01,2013-01-14 19:16:00,
2013-01-14 14:17:00,28.4,23.3,30.30,ENE,69,2.0,7.0,81,0.00,,---,0.00,VWS V14.01,2013-01-14 19:17:00,
2013-01-14 14:18:00,28.5,23.4,30.30,North,360,2.0,8.0,81,0.00,,---,0.00,VWS V14.01,2013-01-14 19:18:00,
2013-01-14 14:19:00,28.5,23.4,30.30,NNE,29,0.0,5.0,81,0.00,,---,0.00,VWS V14.01,2013-01-14 19:19:00,
2013-01-14 14:20:00,28.5,23.1,30.30,NNE,16,3.0,4.0,80,0.00,,---,0.00,VWS V14.01,2013-01-14 19:20:00,
2013-01-14 14:21:00,28.5,23.1,30.30,NNW,335,1.0,3.0,80,0.00,,---,0.00,VWS V14.01,2013-01-14 19:21:00,
2013-01-14 14:22:00,28.5,23.4,30.31,NNE,13,1.0,4.0,81,0.00,,---,0.00,VWS V14.01,2013-01-14 19:22:00,
2013-01-14 14:23:00,28.5,23.1,30.31,NNE,22,3.0,7.0,80,0.00,,---,0.00,VWS V14.01,2013-01-14 19:23:00,
2013-01-14 14:24:00,28.5,23.1,30.31,North,351,0.0,5.0,80,0.00,,---,0.00,VWS V14.01,2013-01-14 19:24:00,
2013-01-14 14:25:00,28.5,23.1,30.32,NNW,348,0.0,3.0,80,0.00,,---,0.00,VWS V14.01,2013-01-14 19:25:00,
2013-01-14 14:26:00,28.5,23.4,30.33,North,355,0.0,2.0,81,0.00,,---,0.00,VWS V14.01,2013-01-14 19:26:00,
2013-01-14 14:27:00,28.5,23.4,30.33,NNW,333,0.0,5.0,81,0.00,,---,0.00,VWS V14.01,2013-01-14 19:27:00,
2013-01-14 14:28:00,28.6,23.8,30.33,NNE,19,7.0,7.0,82,0.00,,---,0.00,VWS V14.01,2013-01-14 19:28:00,
2013-01-14 14:29:00,28.6,23.5,30.34,North,355,1.0,7.0,81,0.00,,---,0.00,VWS V14.01,2013-01-14 19:29:00,
2013-01-14 14:30:00,28.6,23.5,30.34,North,355,1.0,1.0,81,0.00,,---,0.00,VWS V14.01,2013-01-14 19:30:00,
2013-01-14 14:31:00,28.6,23.5,30.34,North,360,0.0,3.0,81,0.00,,---,0.00,VWS V14.01,2013-01-14 19:31:00,
2013-01-14 14:32:00,28.7,23.6,30.33,NNE,13,2.0,4.0,81,0.00,,---,0.00,VWS V14.01,2013-01-14 19:32:00,
2013-01-14 14:33:00,28.7,23.6,30.33,NE,34,4.0,6.0,81,0.00,,---,0.00,VWS V14.01,2013-01-14 19:33:00,
2013-01-14 14:34:00,28.7,23.6,30.33,North,5,2.0,7.0,81,0.00,,---,0.00,VWS V14.01,2013-01-14 19:34:00,
2013-01-14 14:35:00,28.7,23.6,30.33,NE,39,3.0,4.0,81,0.00,,---,0.00,VWS V14.01,2013-01-14 19:35:00,
2013-01-14 14:36:00,28.7,23.6,30.33,WNW,302,1.0,5.0,81,0.00,,---,0.00,VWS V14.01,2013-01-14 19:36:00,
2013-01-14 14:37:00,28.7,23.6,30.33,NNW,342,0.0,3.0,81,0.00,,---,0.00,VWS V14.01,2013-01-14 19:37:00,
2013-01-14 14:38:00,28.7,23.6,30.33,North,5,2.0,3.0,81,0.00,,---,0.00,VWS V14.01,2013-01-14 19:38:00,
2013-01-14 14:39:00,28.7,23.6,30.33,NW,310,0.0,3.0,81,0.00,,---,0.00,VWS V14.01,2013-01-14 19:39:00,
2013-01-14 14:40:00,28.7,23.3,30.33,NNW,342,2.0,6.0,80,0.00,,---,0.00,VWS V14.01,2013-01-14 19:40:00,
2013-01-14 14:41:00,28.7,23.3,30.33,NW,321,2.0,4.0,80,0.00,,---,0.00,VWS V14.01,2013-01-14 19:41:00,
2013-01-14 14:42:00,28.7,23.6,30.33,North,360,0.0,4.0,81,0.00,,---,0.00,VWS V14.01,2013-01-14 19:42:00,
2013-01-14 14:43:00,28.6,23.5,30.33,WNW,298,5.0,5.0,81,0.00,,---,0.00,VWS V14.01,2013-01-14 19:43:00,
2013-01-14 14:44:00,28.7,23.6,30.33,NNE,20,0.0,5.0,81,0.00,,---,0.00,VWS V14.01,2013-01-14 19:44:00,
2013-01-14 14:45:00,28.7,23.6,30.33,NE,36,4.0,5.0,81,0.00,,---,0.00,VWS V14.01,2013-01-14 19:45:00,
2013-01-14 14:46:00,28.7,23.6,30.33,NW,324,3.0,10.0,81,0.00,,---,0.00,VWS V14.01,2013-01-14 19:46:00,
2013-01-14 14:47:00,28.6,23.2,30.33,NNW,348,6.0,8.0,80,0.00,,---,0.00,VWS V14.01,2013-01-14 19:47:00,
2013-01-14 14:48:00,28.5,23.1,30.33,North,360,3.0,9.0,80,0.00,,---,0.00,VWS V14.01,2013-01-14 19:48:00,
2013-01-14 14:49:00,28.4,23.0,30.33,North,350,0.0,5.0,80,0.00,,---,0.00,VWS V14.01,2013-01-14 19:49:00,
2013-01-14 14:50:00,28.3,22.9,30.33,NNW,340,0.0,2.0,80,0.00,,---,0.00,VWS V14.01,2013-01-14 19:50:00,
2013-01-14 14:51:00,28.3,23.2,30.33,NNW,333,6.0,7.0,81,0.00,,---,0.00,VWS V14.01,2013-01-14 19:51:00,
2013-01-14 14:52:00,28.3,23.2,30.33,NNW,336,1.0,6.0,81,0.00,,---,0.00,VWS V14.01,2013-01-14 19:52:00,
2013-01-14 14:53:00,28.3,22.9,30.33,NNW,343,2.0,4.0,80,0.00,,---,0.00,VWS V14.01,2013-01-14 19:53:00,
2013-01-14 14:54:00,28.3,23.2,30.33,North,360,3.0,7.0,81,0.00,,---,0.00,VWS V14.01,2013-01-14 19:54:00,
2013-01-14 14:55:00,28.3,22.9,30.33,NNW,336,3.0,4.0,80,0.00,,---,0.00,VWS V14.01,2013-01-14 19:55:00,
2013-01-14 14:56:00,28.3,23.2,30.33,North,349,5.0,5.0,81,0.00,,---,0.00,VWS V14.01,2013-01-14 19:56:00,
2013-01-14 14:57:00,28.3,23.2,30.34,North,355,3.0,5.0,81,0.00,,---,0.00,VWS V14.01,2013-01-14 19:57:00,
2013-01-14 14:58:00,28.3,23.2,30.34,NNW,338,3.0,6.0,81,0.00,,---,0.00,VWS V14.01,2013-01-14 19:58:00,
2013-01-14 14:59:00,28.3,23.2,30.34,North,355,3.0,4.0,81,0.00,,---,0.00,VWS V14.01,2013-01-14 19:59:00,
2013-01-14 15:00:00,28.3,22.9,30.34,NNW,340,4.0,6.0,80,0.00,,---,0.00,VWS V14.01,2013-01-14 20:00:00,
2013-01-14 15:01:00,28.3,22.9,30.34,NE,36,1.0,5.0,80,0.00,,---,0.00,VWS V14.01,2013-01-14 20:01:00,
2013-01-14 15:02:00,28.4,23.0,30.33,NNE,13,2.0,5.0,80,0.00,,---,0.00,VWS V14.01,2013-01-14 20:02:00,
2013-01-14 15:03:00,28.4,23.3,30.33,NE,41,2.0,4.0,81,0.00,,---,0.00,VWS V14.01,2013-01-14 20:03:00,
2013-01-14 15:04:00,28.4,23.3,30.33,NNE,27,3.0,3.0,81,0.00,,---,0.00,VWS V14.01,2013-01-14 20:04:00,
2013-01-14 15:05:00,28.5,23.4,30.33,North,351,5.0,5.0,81,0.00,,---,0.00,VWS V14.01,2013-01-14 20:05:00,
2013-01-14 15:06:00,28.5,23.4,30.32,North,5,3.0,5.0,81,0.00,,---,0.00,VWS V14.01,2013-01-14 20:06:00,
2013-01-14 15:07:00,28.5,23.1,30.32,NNE,17,3.0,5.0,80,0.00,,---,0.00,VWS V14.01,2013-01-14 20:07:00,
2013-01-14 15:08:00,28.5,23.1,30.32,ENE,66,3.0,4.0,80,0.00,,---,0.00,VWS V14.01,2013-01-14 20:08:00,
2013-01-14 15:09:00,28.5,23.1,30.32,NNE,32,0.0,5.0,80,0.00,,---,0.00,VWS V14.01,2013-01-14 20:09:00,
2013-01-14 15:10:00,28.5,23.1,30.32,NNE,22,3.0,4.0,80,0.00,,---,0.00,VWS V14.01,2013-01-14 20:10:00,
2013-01-14 15:11:00,28.5,23.1,30.32,NNE,30,2.0,5.0,80,0.00,,---,0.00,VWS V14.01,2013-01-14 20:11:00,
2013-01-14 15:12:00,28.5,23.1,30.32,NNW,342,4.0,8.0,80,0.00,,---,0.00,VWS V14.01,2013-01-14 20:12:00,
2013-01-14 15:13:00,28.5,23.4,30.32,NNW,340,0.0,4.0,81,0.00,,---,0.00,VWS V14.01,2013-01-14 20:13:00,
2013-01-14 15:14:00,28.5,23.4,30.33,NNW,340,0.0,0.0,81,0.00,,---,0.00,VWS V14.01,2013-01-14 20:14:00,
2013-01-14 15:15:00,28.6,23.5,30.33,NNE,29,1.0,1.0,81,0.00,,---,0.00,VWS V14.01,2013-01-14 20:15:00,
2013-01-14 15:16:00,28.6,23.5,30.33,NNE,22,2.0,3.0,81,0.00,,---,0.00,VWS V14.01,2013-01-14 20:16:00,
2013-01-14 15:17:00,28.6,23.5,30.34,NNW,346,2.0,4.0,81,0.00,,---,0.00,VWS V14.01,2013-01-14 20:17:00,
2013-01-14 15:18:00,28.5,23.1,30.34,NNW,338,6.0,6.0,80,0.00,,---,0.00,VWS V14.01,2013-01-14 20:18:00,
2013-01-14 15:19:00,28.5,23.1,30.34,NNW,335,0.0,6.0,80,0.00,,---,0.00,VWS V14.01,2013-01-14 20:19:00,
2013-01-14 15:20:00,28.5,23.1,30.34,NNW,338,0.0,2.0,80,0.00,,---,0.00,VWS V14.01,2013-01-14 20:20:00,
2013-01-14 15:21:00,28.5,23.1,30.34,NNE,15,1.0,2.0,80,0.00,,---,0.00,VWS V14.01,2013-01-14 20:21:00,
2013-01-14 15:22:00,28.5,23.1,30.34,NW,321,0.0,4.0,80,0.00,,---,0.00,VWS V14.01,2013-01-14 20:22:00,
2013-01-14 15:23:00,28.5,23.1,30.34,North,355,0.0,4.0,80,0.00,,---,0.00,VWS V14.01,2013-01-14 20:23:00,
2013-01-14 15:24:00,28.5,23.4,30.35,NW,317,3.0,4.0,81,0.00,,---,0.00,VWS V14.01,2013-01-14 20:24:00,
2013-01-14 15:25:00,28.5,23.4,30.35,NNW,339,1.0,4.0,81,0.00,,---,0.00,VWS V14.01,2013-01-14 20:25:00,
2013-01-14 15:26:00,28.5,23.1,30.35,NE,46,1.0,2.0,80,0.00,,---,0.00,VWS V14.01,2013-01-14 20:26:00,
2013-01-14 15:27:00,28.5,23.1,30.36,North,5,0.0,2.0,80,0.00,,---,0.00,VWS V14.01,2013-01-14 20:27:00,
2013-01-14 15:28:00,28.4,23.0,30.36,NNW,340,2.0,3.0,80,0.00,,---,0.00,VWS V14.01,2013-01-14 20:28:00,
2013-01-14 15:29:00,28.4,23.0,30.36,North,360,1.0,3.0,80,0.00,,---,0.00,VWS V14.01,2013-01-14 20:29:00,
2013-01-14 15:30:00,28.5,23.4,30.36,North,360,0.0,1.0,81,0.00,,---,0.00,VWS V14.01,2013-01-14 20:30:00,
2013-01-14 15:31:00,28.5,23.4,30.36,North,355,2.0,2.0,81,0.00,,---,0.00,VWS V14.01,2013-01-14 20:31:00,
2013-01-14 15:32:00,28.5,23.4,30.36,NNW,347,4.0,6.0,81,0.00,,---,0.00,VWS V14.01,2013-01-14 20:32:00,
2013-01-14 15:33:00,28.4,23.0,30.36,North,360,1.0,4.0,80,0.00,,---,0.00,VWS V14.01,2013-01-14 20:33:00,
2013-01-14 15:34:00,28.4,23.3,30.36,NNE,22,1.0,3.0,81,0.00,,---,0.00,VWS V14.01,2013-01-14 20:34:00,
2013-01-14 15:35:00,28.4,23.3,30.37,NNW,340,0.0,4.0,81,0.00,,---,0.00,VWS V14.01,2013-01-14 20:35:00,
2013-01-14 15:36:00,28.4,23.3,30.36,NNW,345,4.0,6.0,81,0.00,,---,0.00,VWS V14.01,2013-01-14 20:36:00,
2013-01-14 15:37:00,28.3,23.2,30.36,North,5,0.0,6.0,81,0.00,,---,0.00,VWS V14.01,2013-01-14 20:37:00,
2013-01-14 15:38:00,28.3,23.2,30.36,NNW,328,2.0,3.0,81,0.00,,---,0.00,VWS V14.01,2013-01-14 20:38:00,
2013-01-14 15:39:00,28.3,23.5,30.36,North,355,4.0,5.0,82,0.00,,---,0.00,VWS V14.01,2013-01-14 20:39:00,
2013-01-14 15:40:00,28.3,23.5,30.36,NNW,329,3.0,6.0,82,0.00,,---,0.00,VWS V14.01,2013-01-14 20:40:00,
2013-01-14 15:41:00,28.3,23.5,30.36,North,360,2.0,9.0,82,0.00,,---,0.00,VWS V14.01,2013-01-14 20:41:00,
2013-01-14 15:42:00,28.2,23.4,30.36,NNE,28,2.0,7.0,82,0.00,,---,0.00,VWS V14.01,2013-01-14 20:42:00,
2013-01-14 15:43:00,28.2,23.1,30.36,NNW,348,3.0,6.0,81,0.00,,---,0.00,VWS V14.01,2013-01-14 20:43:00,
2013-01-14 15:44:00,28.1,23.0,30.36,North,11,0.0,3.0,81,0.00,,---,0.00,VWS V14.01,2013-01-14 20:44:00,
2013-01-14 15:45:00,28.1,23.3,30.36,NNW,340,3.0,3.0,82,0.00,,---,0.00,VWS V14.01,2013-01-14 20:45:00,
2013-01-14 15:46:00,28.1,23.3,30.36,NNW,338,3.0,7.0,82,0.00,,---,0.00,VWS V14.01,2013-01-14 20:46:00,
2013-01-14 15:47:00,28.0,23.2,30.36,North,350,3.0,7.0,82,0.00,,---,0.00,VWS V14.01,2013-01-14 20:47:00,
2013-01-14 15:48:00,28.0,23.2,30.36,NNW,340,4.0,4.0,82,0.00,,---,0.00,VWS V14.01,2013-01-14 20:48:00,
2013-01-14 15:49:00,27.9,23.1,30.35,NNW,343,3.0,4.0,82,0.00,,---,0.00,VWS V14.01,2013-01-14 20:49:00,
2013-01-14 15:50:00,27.9,23.1,30.36,NNW,341,1.0,5.0,82,0.00,,---,0.00,VWS V14.01,2013-01-14 20:50:00,
2013-01-14 15:51:00,27.9,23.1,30.36,North,355,1.0,5.0,82,0.00,,---,0.00,VWS V14.01,2013-01-14 20:51:00,
2013-01-14 15:52:00,27.9,23.1,30.35,NNW,347,6.0,6.0,82,0.00,,---,0.00,VWS V14.01,2013-01-14 20:52:00,
2013-01-14 15:53:00,27.9,23.1,30.36,NNW,342,4.0,8.0,82,0.00,,---,0.00,VWS V14.01,2013-01-14 20:53:00,
2013-01-14 15:54:00,27.8,23.0,30.36,North,355,4.0,4.0,82,0.00,,---,0.00,VWS V14.01,2013-01-14 20:54:00,
2013-01-14 15:55:00,27.8,23.0,30.36,North,10,0.0,7.0,82,0.00,,---,0.00,VWS V14.01,2013-01-14 20:55:00,
2013-01-14 15:56:00,27.8,23.0,30.36,North,11,7.0,7.0,82,0.00,,---,0.00,VWS V14.01,2013-01-14 20:56:00,
2013-01-14 15:57:00,27.8,23.0,30.37,NNW,344,0.0,7.0,82,0.00,,---,0.00,VWS V14.01,2013-01-14 20:57:00,
2013-01-14 15:58:00,27.8,23.0,30.38,North,355,0.0,1.0,82,0.00,,---,0.00,VWS V14.01,2013-01-14 20:58:00,
2013-01-14 15:59:00,27.8,23.3,30.38,NNW,329,2.0,5.0,83,0.00,,---,0.00,VWS V14.01,2013-01-14 20:59:00,
2013-01-14 16:00:00,27.7,23.2,30.39,WNW,303,1.0,6.0,83,0.00,,---,0.00,VWS V14.01,2013-01-14 21:00:00,
2013-01-14 16:01:00,27.7,23.2,30.39,NNE,17,0.0,4.0,83,0.00,,---,0.00,VWS V14.01,2013-01-14 21:01:00,
2013-01-14 16:02:00,27.7,22.9,30.40,North,360,1.0,1.0,82,0.00,,---,0.00,VWS V14.01,2013-01-14 21:02:00,
2013-01-14 16:03:00,27.7,23.2,30.40,NNW,333,0.0,2.0,83,0.00,,---,0.00,VWS V14.01,2013-01-14 21:03:00,
2013-01-14 16:04:00,27.7,23.2,30.41,NW,307,1.0,4.0,83,0.00,,---,0.00,VWS V14.01,2013-01-14 21:04:00,
2013-01-14 16:05:00,27.7,23.2,30.41,North,355,0.0,5.0,83,0.00,,---,0.00,VWS V14.01,2013-01-14 21:05:00,
2013-01-14 16:06:00,27.7,22.9,30.41,NW,306,1.0,6.0,82,0.00,,---,0.00,VWS V14.01,2013-01-14 21:06:00,
2013-01-14 16:07:00,27.7,22.9,30.41,NW,306,1.0,4.0,82,0.00,,---,0.00,VWS V14.01,2013-01-14 21:07:00,
2013-01-14 16:08:00,27.6,22.8,30.42,NW,306,0.0,2.0,82,0.00,,---,0.00,VWS V14.01,2013-01-14 21:08:00,
2013-01-14 16:09:00,27.7,23.2,30.42,NW,306,0.0,1.0,83,0.00,,---,0.00,VWS V14.01,2013-01-14 21:09:00,
2013-01-14 16:10:00,27.7,23.2,30.42,NW,313,0.0,2.0,83,0.00,,---,0.00,VWS V14.01,2013-01-14 21:10:00,
2013-01-14 16:11:00,27.7,22.9,30.42,NW,313,0.0,0.0,82,0.00,,---,0.00,VWS V14.01,2013-01-14 21:11:00,
2013-01-14 16:12:00,27.7,22.9,30.42,NW,313,0.0,1.0,82,0.00,,---,0.00,VWS V14.01,2013-01-14 21:12:00,
2013-01-14 16:13:00,27.6,22.8,30.42,NW,313,0.0,0.0,82,0.00,,---,0.00,VWS V14.01,2013-01-14 21:13:00,
2013-01-14 16:14:00,27.6,23.1,30.42,NNE,25,0.0,2.0,83,0.00,,---,0.00,VWS V14.01,2013-01-14 21:14:00,
2013-01-14 16:15:00,27.7,23.2,30.42,NNE,25,0.0,0.0,83,0.00,,---,0.00,VWS V14.01,2013-01-14 21:15:00,
2013-01-14 16:16:00,27.7,23.2,30.42,NNE,25,0.0,0.0,83,0.00,,---,0.00,VWS V14.01,2013-01-14 21:16:00,
2013-01-14 16:17:00,27.7,23.2,30.42,NNE,25,0.0,0.0,83,0.00,,---,0.00,VWS V14.01,2013-01-14 21:17:00,
2013-01-14 16:18:00,27.7,23.2,30.42,North,5,2.0,3.0,83,0.00,,---,0.00,VWS V14.01,2013-01-14 21:18:00,
2013-01-14 16:19:00,27.7,23.2,30.42,NNW,344,2.0,2.0,83,0.00,,---,0.00,VWS V14.01,2013-01-14 21:19:00,
2013-01-14 16:20:00,27.7,23.2,30.42,NNW,345,0.0,5.0,83,0.00,,---,0.00,VWS V14.01,2013-01-14 21:20:00,
2013-01-14 16:21:00,27.7,23.2,30.42,NW,313,0.0,2.0,83,0.00,,---,0.00,VWS V14.01,2013-01-14 21:21:00,
2013-01-14 16:22:00,27.6,23.1,30.42,NW,315,0.0,1.0,83,0.00,,---,0.00,VWS V14.01,2013-01-14 21:22:00,
2013-01-14 16:23:00,27.7,23.2,30.42,NW,312,0.0,2.0,83,0.00,,---,0.00,VWS V14.01,2013-01-14 21:23:00,
2013-01-14 16:24:00,27.7,23.2,30.42,NW,313,0.0,1.0,83,0.00,,---,0.00,VWS V14.01,2013-01-14 21:24:00,
2013-01-14 16:25:00,27.7,23.2,30.42,NW,322,0.0,1.0,83,0.00,,---,0.00,VWS V14.01,2013-01-14 21:25:00,
2013-01-14 16:26:00,27.7,23.2,30.42,NW,323,2.0,2.0,83,0.00,,---,0.00,VWS V14.01,2013-01-14 21:26:00,
2013-01-14 16:27:00,27.7,23.2,30.42,North,10,2.0,3.0,83,0.00,,---,0.00,VWS V14.01,2013-01-14 21:27:00,
2013-01-14 16:28:00,27.7,23.2,30.42,North,360,1.0,2.0,83,0.00,,---,0.00,VWS V14.01,2013-01-14 21:28:00,
2013-01-14 16:29:00,27.6,23.1,30.43,WNW,302,0.0,2.0,83,0.00,,---,0.00,VWS V14.01,2013-01-14 21:29:00,
2013-01-14 16:30:00,27.7,23.2,30.43,WNW,302,2.0,4.0,83,0.00,,---,0.00,VWS V14.01,2013-01-14 21:30:00,
2013-01-14 16:31:00,27.6,23.1,30.43,NW,325,0.0,3.0,83,0.00,,---,0.00,VWS V14.01,2013-01-14 21:31:00,
2013-01-14 16:32:00,27.6,23.1,30.42,NNW,339,5.0,5.0,83,0.00,,---,0.00,VWS V14.01,2013-01-14 21:32:00,
2013-01-14 16:33:00,27.6,23.1,30.42,NNW,336,4.0,7.0,83,0.00,,---,0.00,VWS V14.01,2013-01-14 21:33:00,
2013-01-14 16:34:00,27.6,23.1,30.42,NNW,341,5.0,6.0,83,0.00,,---,0.00,VWS V14.01,2013-01-14 21:34:00,
2013-01-14 16:35:00,27.6,22.8,30.42,NW,326,0.0,5.0,82,0.00,,---,0.00,VWS V14.01,2013-01-14 21:35:00,
2013-01-14 16:36:00,27.5,22.7,30.42,NNW,342,0.0,2.0,82,0.00,,---,0.00,VWS V14.01,2013-01-14 21:36:00,
2013-01-14 16:37:00,27.6,23.1,30.42,North,355,3.0,4.0,83,0.00,,---,0.00,VWS V14.01,2013-01-14 21:37:00,
2013-01-14 16:38:00,27.5,23.0,30.42,North,10,2.0,5.0,83,0.00,,---,0.00,VWS V14.01,2013-01-14 21:38:00,
2013-01-14 16:39:00,27.5,22.7,30.42,NNE,12,0.0,6.0,82,0.00,,---,0.00,VWS V14.01,2013-01-14 21:39:00,
2013-01-14 16:40:00,27.4,22.6,30.42,North,360,0.0,3.0,82,0.00,,---,0.00,VWS V14.01,2013-01-14 21:40:00,
2013-01-14 16:41:00,27.4,22.6,30.42,North,5,0.0,1.0,82,0.00,,---,0.00,VWS V14.01,2013-01-14 21:41:00,
2013-01-14 16:42:00,27.4,22.6,30.42,North,5,0.0,2.0,82,0.00,,---,0.00,VWS V14.01,2013-01-14 21:42:00,
2013-01-14 16:43:00,27.4,22.9,30.42,North,5,2.0,2.0,83,0.00,,---,0.00,VWS V14.01,2013-01-14 21:43:00,
2013-01-14 16:44:00,27.4,22.9,30.41,NW,311,0.0,4.0,83,0.00,,---,0.00,VWS V14.01,2013-01-14 21:44:00,
2013-01-14 16:45:00,27.4,22.9,30.41,NNW,344,0.0,5.0,83,0.00,,---,0.00,VWS V14.01,2013-01-14 21:45:00,
2013-01-14 16:46:00,27.4,22.9,30.41,NNW,344,0.0,2.0,83,0.00,,---,0.00,VWS V14.01,2013-01-14 21:46:00,
2013-01-14 16:47:00,27.4,22.9,30.40,NNW,340,0.0,4.0,83,0.00,,---,0.00,VWS V14.01,2013-01-14 21:47:00,
2013-01-14 16:48:00,27.3,22.8,30.40,NNE,13,1.0,4.0,83,0.00,,---,0.00,VWS V14.01,2013-01-14 21:48:00,
2013-01-14 16:49:00,27.3,22.5,30.40,NNW,328,0.0,2.0,82,0.00,,---,0.00,VWS V14.01,2013-01-14 21:49:00,
2013-01-14 16:50:00,27.3,22.8,30.40,North,355,0.0,3.0,83,0.00,,---,0.00,VWS V14.01,2013-01-14 21:50:00,
2013-01-14 16:51:00,27.3,22.8,30.40,NNW,331,3.0,3.0,83,0.00,,---,0.00,VWS V14.01,2013-01-14 21:51:00,
2013-01-14 16:52:00,27.3,22.8,30.40,North,355,0.0,5.0,83,0.00,,---,0.00,VWS V14.01,2013-01-14 21:52:00,
2013-01-14 16:53:00,27.3,22.8,30.39,North,350,4.0,4.0,83,0.00,,---,0.00,VWS V14.01,2013-01-14 21:53:00,
2013-01-14 16:54:00,27.4,22.9,30.39,North,351,0.0,4.0,83,0.00,,---,0.00,VWS V14.01,2013-01-14 21:54:00,
2013-01-14 16:55:00,27.4,22.9,30.39,North,355,1.0,3.0,83,0.00,,---,0.00,VWS V14.01,2013-01-14 21:55:00,
2013-01-14 16:56:00,27.4,22.9,30.38,North,5,3.0,4.0,83,0.00,,---,0.00,VWS V14.01,2013-01-14 21:56:00,
2013-01-14 16:57:00,27.3,22.8,30.38,North,10,0.0,4.0,83,0.00,,---,0.00,VWS V14.01,2013-01-14 21:57:00,
2013-01-14 16:58:00,27.3,22.8,30.39,North,10,0.0,0.0,83,0.00,,---,0.00,VWS V14.01,2013-01-14 21:58:00,
2013-01-14 16:59:00,27.4,22.9,30.39,NNE,13,0.0,2.0,83,0.00,,---,0.00,VWS V14.01,2013-01-14 21:59:00,
2013-01-14 17:00:00,27.3,22.8,30.39,NNE,13,0.0,0.0,83,0.00,,---,0.00,VWS V14.01,2013-01-14 22:00:00,
2013-01-14 17:01:00,27.3,22.8,30.39,NNE,20,1.0,1.0,83,0.00,,---,0.00,VWS V14.01,2013-01-14 22:01:00,
2013-01-14 17:02:00,27.4,22.9,30.38,NNE,20,1.0,1.0,83,0.00,,---,0.00,VWS V14.01,2013-01-14 22:02:00,
2013-01-14 17:03:00,27.4,22.9,30.38,NNE,26,0.0,3.0,83,0.00,,---,0.00,VWS V14.01,2013-01-14 22:03:00,
2013-01-14 17:04:00,27.4,22.9,30.38,NNE,23,1.0,1.0,83,0.00,,---,0.00,VWS V14.01,2013-01-14 22:04:00,
2013-01-14 17:05:00,27.4,22.9,30.38,North,10,0.0,3.0,83,0.00,,---,0.00,VWS V14.01,2013-01-14 22:05:00,
2013-01-14 17:06:00,27.4,22.9,30.38,NE,41,1.0,3.0,83,0.00,,---,0.00,VWS V14.01,2013-01-14 22:06:00,
2013-01-14 17:07:00,27.4,22.9,30.38,NE,46,0.0,1.0,83,0.00,,---,0.00,VWS V14.01,2013-01-14 22:07:00,
2013-01-14 17:08:00,27.4,22.9,30.38,NNE,28,3.0,3.0,83,0.00,,---,0.00,VWS V14.01,2013-01-14 22:08:00,
2013-01-14 17:09:00,27.4,22.9,30.37,ENE,57,0.0,3.0,83,0.00,,---,0.00,VWS V14.01,2013-01-14 22:09:00,
2013-01-14 17:10:00,27.4,22.9,30.37,NE,51,0.0,2.0,83,0.00,,---,0.00,VWS V14.01,2013-01-14 22:10:00,
2013-01-14 17:11:00,27.4,22.9,30.36,NE,51,0.0,1.0,83,0.00,,---,0.00,VWS V14.01,2013-01-14 22:11:00,
2013-01-14 17:12:00,27.4,22.9,30.36,ENE,71,1.0,1.0,83,0.00,,---,0.00,VWS V14.01,2013-01-14 22:12:00,
2013-01-14 17:13:00,27.4,22.9,30.35,NNE,28,1.0,4.0,83,0.00,,---,0.00,VWS V14.01,2013-01-14 22:13:00,
2013-01-14 17:14:00,27.4,22.9,30.35,NNE,28,0.0,1.0,83,0.00,,---,0.00,VWS V14.01,2013-01-14 22:14:00,
2013-01-14 17:15:00,27.4,22.9,30.35,ENE,76,0.0,1.0,83,0.00,,---,0.00,VWS V14.01,2013-01-14 22:15:00,
2013-01-14 17:16:00,27.3,22.8,30.35,ENE,76,0.0,1.0,83,0.00,,---,0.00,VWS V14.01,2013-01-14 22:16:00,
2013-01-14 17:17:00,27.4,22.9,30.35,ENE,76,0.0,0.0,83,0.00,,---,0.00,VWS V14.01,2013-01-14 22:17:00,
2013-01-14 17:18:00,27.3,23.1,30.34,ENE,76,0.0,0.0,84,0.00,,---,0.00,VWS V14.01,2013-01-14 22:18:00,
2013-01-14 17:19:00,27.4,22.9,30.34,ENE,76,1.0,1.0,83,0.00,,---,0.00,VWS V14.01,2013-01-14 22:19:00,
2013-01-14 17:20:00,27.3,23.1,30.34,ENE,62,0.0,4.0,84,0.00,,---,0.00,VWS V14.01,2013-01-14 22:20:00,
2013-01-14 17:21:00,27.3,22.8,30.34,ENE,57,2.0,2.0,83,0.00,,---,0.00,VWS V14.01,2013-01-14 22:21:00,
2013-01-14 17:22:00,27.3,22.8,30.34,ENE,77,1.0,4.0,83,0.00,,---,0.00,VWS V14.01,2013-01-14 22:22:00,
2013-01-14 17:23:00,27.2,22.7,30.34,NE,50,0.0,2.0,83,0.00,,---,0.00,VWS V14.01,2013-01-14 22:23:00,
2013-01-14 17:24:00,27.2,22.7,30.33,NE,50,0.0,0.0,83,0.00,,---,0.00,VWS V14.01,2013-01-14 22:24:00,
2013-01-14 17:25:00,27.2,22.7,30.33,NE,51,0.0,1.0,83,0.00,,---,0.00,VWS V14.01,2013-01-14 22:25:00,
2013-01-14 17:26:00,27.2,23.0,30.33,NE,51,1.0,1.0,84,0.00,,---,0.00,VWS V14.01,2013-01-14 22:26:00,
2013-01-14 17:27:00,27.2,23.0,30.34,NE,51,0.0,1.0,84,0.00,,---,0.00,VWS V14.01,2013-01-14 22:27:00,
2013-01-14 17:28:00,27.2,23.0,30.34,East,80,4.0,5.0,84,0.00,,---,0.00,VWS V14.01,2013-01-14 22:28:00,
2013-01-14 17:29:00,27.2,23.0,30.34,ENE,73,1.0,4.0,84,0.00,,---,0.00,VWS V14.01,2013-01-14 22:29:00,
2013-01-14 17:30:00,27.2,23.0,30.34,ENE,73,0.0,1.0,84,0.00,,---,0.00,VWS V14.01,2013-01-14 22:30:00,
2013-01-14 17:31:00,27.2,23.0,30.35,ENE,73,0.0,1.0,84,0.00,,---,0.00,VWS V14.01,2013-01-14 22:31:00,
2013-01-14 17:32:00,27.2,23.0,30.35,ENE,69,0.0,1.0,84,0.00,,---,0.00,VWS V14.01,2013-01-14 22:32:00,
2013-01-14 17:33:00,27.2,23.0,30.35,ENE,69,1.0,1.0,84,0.00,,---,0.00,VWS V14.01,2013-01-14 22:33:00,
2013-01-14 17:34:00,27.2,23.0,30.35,ENE,67,1.0,2.0,84,0.00,,---,0.00,VWS V14.01,2013-01-14 22:34:00,
2013-01-14 17:35:00,27.2,23.0,30.35,ENE,67,0.0,2.0,84,0.00,,---,0.00,VWS V14.01,2013-01-14 22:35:00,
2013-01-14 17:36:00,27.2,23.0,30.35,ENE,72,0.0,1.0,84,0.00,,---,0.00,VWS V14.01,2013-01-14 22:36:00,
2013-01-14 17:37:00,27.3,23.1,30.35,NE,49,1.0,2.0,84,0.00,,---,0.00,VWS V14.01,2013-01-14 22:37:00,
2013-01-14 17:38:00,27.3,23.1,30.34,NE,49,0.0,2.0,84,0.00,,---,0.00,VWS V14.01,2013-01-14 22:38:00,
2013-01-14 17:39:00,27.3,23.1,30.34,NE,38,0.0,1.0,84,0.00,,---,0.00,VWS V14.01,2013-01-14 22:39:00,
2013-01-14 17:40:00,27.3,23.1,30.34,ENE,67,1.0,3.0,84,0.00,,---,0.00,VWS V14.01,2013-01-14 22:40:00,
2013-01-14 17:41:00,27.3,23.1,30.34,NE,44,0.0,2.0,84,0.00,,---,0.00,VWS V14.01,2013-01-14 22:41:00,
2013-01-14 17:42:00,27.3,23.1,30.35,NNE,26,0.0,2.0,84,0.00,,---,0.00,VWS V14.01,2013-01-14 22:42:00,
2013-01-14 17:44:00,27.3,23.1,30.35,NNE,26,0.0,1.0,84,0.00,,---,0.00,VWS V14.01,2013-01-14 22:44:00,
2013-01-14 17:45:00,27.3,23.1,30.35,NNE,26,0.0,0.0,84,0.00,,---,0.00,VWS V14.01,2013-01-14 22:45:00,
2013-01-14 17:46:00,27.4,23.2,30.35,NNE,26,0.0,0.0,84,0.00,,---,0.00,VWS V14.01,2013-01-14 22:46:00,
2013-01-14 17:47:00,27.4,23.2,30.36,NNE,26,0.0,0.0,84,0.00,,---,0.00,VWS V14.01,2013-01-14 22:47:00,
2013-01-14 17:48:00,27.4,23.2,30.36,NNE,26,0.0,1.0,84,0.00,,---,0.00,VWS V14.01,2013-01-14 22:48:00,
2013-01-14 17:49:00,27.4,23.2,30.36,North,9,0.0,3.0,84,0.00,,---,0.00,VWS V14.01,2013-01-14 22:49:00,
2013-01-14 17:50:00,27.4,23.2,30.36,North,355,0.0,2.0,84,0.00,,---,0.00,VWS V14.01,2013-01-14 22:50:00,
2013-01-14 17:51:00,27.4,23.2,30.37,North,355,0.0,1.0,84,0.00,,---,0.00,VWS V14.01,2013-01-14 22:51:00,
2013-01-14 17:52:00,27.4,23.2,30.37,North,355,0.0,0.0,84,0.00,,---,0.00,VWS V14.01,2013-01-14 22:52:00,
2013-01-14 17:53:00,27.4,23.2,30.37,North,355,0.0,1.0,84,0.00,,---,0.00,VWS V14.01,2013-01-14 22:53:00,
2013-01-14 17:54:00,27.4,23.2,30.38,North,5,0.0,3.0,84,0.00,,---,0.00,VWS V14.01,2013-01-14 22:54:00,
2013-01-14 17:55:00,27.4,23.2,30.38,North,5,2.0,2.0,84,0.00,,---,0.00,VWS V14.01,2013-01-14 22:55:00,
2013-01-14 17:56:00,27.4,23.2,30.38,North,355,0.0,4.0,84,0.00,,---,0.00,VWS V14.01,2013-01-14 22:56:00,
2013-01-14 17:57:00,27.4,23.2,30.38,North,355,0.0,0.0,84,0.00,,---,0.00,VWS V14.01,2013-01-14 22:57:00,
2013-01-14 17:58:00,27.4,22.9,30.38,North,355,0.0,0.0,83,0.00,,---,0.00,VWS V14.01,2013-01-14 22:58:00,
2013-01-14 17:59:00,27.4,23.2,30.38,North,349,1.0,3.0,84,0.00,,---,0.00,VWS V14.01,2013-01-14 22:59:00,
2013-01-14 18:00:00,27.5,23.0,30.38,NNW,348,2.0,3.0,83,0.00,,---,0.00,VWS V14.01,2013-01-14 23:00:00,
2013-01-14 18:01:00,27.4,22.9,30.38,North,350,0.0,2.0,83,0.00,,---,0.00,VWS V14.01,2013-01-14 23:01:00,
2013-01-14 18:02:00,27.5,23.0,30.38,North,350,0.0,0.0,83,0.00,,---,0.00,VWS V14.01,2013-01-14 23:02:00,
2013-01-14 18:03:00,27.5,23.3,30.38,NNW,344,0.0,3.0,84,0.00,,---,0.00,VWS V14.01,2013-01-14 23:03:00,
2013-01-14 18:04:00,27.5,23.3,30.38,North,355,1.0,4.0,84,0.00,,---,0.00,VWS V14.01,2013-01-14 23:04:00,
2013-01-14 18:05:00,27.5,23.3,30.38,NNW,343,2.0,3.0,84,0.00,,---,0.00,VWS V14.01,2013-01-14 23:05:00,
2013-01-14 18:06:00,27.5,23.3,30.38,NNE,26,1.0,3.0,84,0.00,,---,0.00,VWS V14.01,2013-01-14 23:06:00,
2013-01-14 18:07:00,27.5,23.0,30.38,NNE,24,0.0,1.0,83,0.00,,---,0.00,VWS V14.01,2013-01-14 23:07:00,
2013-01-14 18:08:00,27.5,23.3,30.38,NNE,24,0.0,0.0,84,0.00,,---,0.00,VWS V14.01,2013-01-14 23:08:00,
2013-01-14 18:09:00,27.5,23.3,30.38,NE,39,0.0,1.0,84,0.00,,---,0.00,VWS V14.01,2013-01-14 23:09:00,
2013-01-14 18:10:00,27.5,23.3,30.38,NNE,14,1.0,4.0,84,0.00,,---,0.00,VWS V14.01,2013-01-14 23:10:00,
2013-01-14 18:11:00,27.5,23.3,30.37,NNE,33,2.0,3.0,84,0.00,,---,0.00,VWS V14.01,2013-01-14 23:11:00,
2013-01-14 18:12:00,27.5,23.3,30.37,North,350,2.0,4.0,84,0.00,,---,0.00,VWS V14.01,2013-01-14 23:12:00,
2013-01-14 18:13:00,27.5,23.3,30.37,North,9,2.0,5.0,84,0.00,,---,0.00,VWS V14.01,2013-01-14 23:13:00,
2013-01-14 18:14:00,27.5,23.0,30.37,North,355,2.0,4.0,83,0.00,,---,0.00,VWS V14.01,2013-01-14 23:14:00,
2013-01-14 18:15:00,27.5,23.3,30.38,North,5,2.0,6.0,84,0.00,,---,0.00,VWS V14.01,2013-01-14 23:15:00,
2013-01-14 18:16:00,27.5,23.0,30.38,North,355,2.0,3.0,83,0.00,,---,0.00,VWS V14.01,2013-01-14 23:16:00,
2013-01-14 18:17:00,27.5,23.0,30.38,North,0,3.0,4.0,83,0.00,,---,0.00,VWS V14.01,2013-01-14 23:17:00,
2013-01-14 18:18:00,27.5,23.3,30.38,NNW,338,1.0,3.0,84,0.00,,---,0.00,VWS V14.01,2013-01-14 23:18:00,
2013-01-14 18:19:00,27.5,23.3,30.39,NNW,338,3.0,7.0,84,0.00,,---,0.00,VWS V14.01,2013-01-14 23:19:00,
2013-01-14 18:20:00,27.4,23.2,30.38,North,0,2.0,5.0,84,0.00,,---,0.00,VWS V14.01,2013-01-14 23:20:00,
2013-01-14 18:30:00,27.3,23.1,30.36,NNW,338,0.0,3.0,84,0.00,,---,0.00,VWS V14.01,2013-01-14 23:30:00,
2013-01-14 18:37:00,27.3,23.1,30.36,NNE,17,0.0,3.0,84,0.00,,---,0.00,VWS V14.01,2013-01-14 23:37:00,
2013-01-14 18:42:00,27.3,23.1,30.35,NNE,27,0.0,1.0,84,0.00,,---,0.00,VWS V14.01,2013-01-14 23:42:00,
2013-01-14 18:47:00,27.2,23.0,30.36,North,5,0.0,3.0,84,0.00,,---,0.00,VWS V14.01,2013-01-14 23:47:00,
2013-01-14 18:53:00,27.2,23.0,30.37,North,10,0.0,1.0,84,0.00,,---,0.00,VWS V14.01,2013-01-14 23:53:00,
2013-01-14 18:58:00,27.3,23.1,30.38,NNE,30,1.0,6.0,84,0.00,,---,0.00,VWS V14.01,2013-01-14 23:58:00,
2013-01-14 19:03:00,27.3,23.4,30.37,North,5,2.0,4.0,85,0.00,,---,0.00,VWS V14.01,2013-01-15 00:03:00,
2013-01-14 19:08:00,27.3,23.1,30.36,NNE,22,1.0,4.0,84,0.00,,---,0.00,VWS V14.01,2013-01-15 00:08:00,
2013-01-14 19:13:00,27.3,23.4,30.35,NE,34,0.0,0.0,85,0.00,,---,0.00,VWS V14.01,2013-01-15 00:13:00,
2013-01-14 19:18:00,27.4,23.5,30.35,NE,54,0.0,1.0,85,0.00,,---,0.00,VWS V14.01,2013-01-15 00:18:00,
2013-01-14 19:24:00,27.4,23.5,30.34,NNE,21,2.0,3.0,85,0.00,,---,0.00,VWS V14.01,2013-01-15 00:24:00,
2013-01-14 19:30:00,27.4,23.8,30.35,NNE,22,0.0,1.0,86,0.00,,---,0.00,VWS V14.01,2013-01-15 00:30:00,
2013-01-14 19:35:00,27.4,23.8,30.34,NNE,26,2.0,3.0,86,0.00,,---,0.00,VWS V14.01,2013-01-15 00:35:00,
2013-01-14 19:41:00,27.3,23.4,30.35,NE,51,0.0,2.0,85,0.00,,---,0.00,VWS V14.01,2013-01-15 00:41:00,
2013-01-14 19:46:00,27.3,23.1,30.35,NE,41,0.0,0.0,84,0.00,,---,0.00,VWS V14.01,2013-01-15 00:46:00,
2013-01-14 19:51:00,27.3,23.1,30.36,NE,36,0.0,0.0,84,0.00,,---,0.00,VWS V14.01,2013-01-15 00:51:00,
2013-01-14 19:56:00,27.3,23.1,30.35,ENE,62,0.0,2.0,84,0.00,,---,0.00,VWS V14.01,2013-01-15 00:56:00,
2013-01-14 20:01:00,27.3,23.1,30.35,NE,53,0.0,1.0,84,0.00,,---,0.00,VWS V14.01,2013-01-15 01:01:00,
2013-01-14 20:06:00,27.3,23.1,30.34,ENE,76,1.0,3.0,84,0.00,,---,0.00,VWS V14.01,2013-01-15 01:06:00,
2013-01-14 20:11:00,27.2,23.0,30.34,NE,55,2.0,4.0,84,0.00,,---,0.00,VWS V14.01,2013-01-15 01:11:00,
2013-01-14 20:16:00,27.1,22.9,30.34,NE,56,0.0,4.0,84,0.00,,---,0.00,VWS V14.01,2013-01-15 01:16:00,
2013-01-14 20:22:00,27.0,22.8,30.34,NE,37,0.0,2.0,84,0.00,,---,0.00,VWS V14.01,2013-01-15 01:22:00,
2013-01-14 20:27:00,26.9,22.7,30.34,NE,55,0.0,0.0,84,0.00,,---,0.00,VWS V14.01,2013-01-15 01:27:00,
2013-01-14 20:32:00,26.8,22.6,30.34,ENE,67,0.0,3.0,84,0.00,,---,0.00,VWS V14.01,2013-01-15 01:32:00,
2013-01-14 20:37:00,26.7,22.8,30.34,ENE,61,0.0,0.0,85,0.00,,---,0.00,VWS V14.01,2013-01-15 01:37:00,
2013-01-14 20:42:00,26.6,22.7,30.34,NE,55,0.0,3.0,85,0.00,,---,0.00,VWS V14.01,2013-01-15 01:42:00,
2013-01-14 20:48:00,26.5,22.6,30.34,East,82,0.0,2.0,85,0.00,,---,0.00,VWS V14.01,2013-01-15 01:48:00,
2013-01-14 20:53:00,26.4,22.5,30.33,ENE,67,2.0,3.0,85,0.00,,---,0.00,VWS V14.01,2013-01-15 01:53:00,
2013-01-14 20:58:00,26.3,22.7,30.33,NE,38,0.0,5.0,86,0.00,,---,0.00,VWS V14.01,2013-01-15 01:58:00,
2013-01-14 21:03:00,26.2,22.6,30.33,East,95,0.0,0.0,86,0.00,,---,0.00,VWS V14.01,2013-01-15 02:03:00,
2013-01-14 21:08:00,26.2,22.6,30.33,ENE,57,0.0,4.0,86,0.00,,---,0.00,VWS V14.01,2013-01-15 02:08:00,
2013-01-14 21:13:00,26.1,22.5,30.32,East,83,0.0,1.0,86,0.00,,---,0.00,VWS V14.01,2013-01-15 02:13:00,
2013-01-14 21:18:00,26.0,22.7,30.32,ENE,68,1.0,1.0,87,0.00,,---,0.00,VWS V14.01,2013-01-15 02:18:00,
2013-01-14 21:24:00,25.8,22.5,30.32,NE,43,0.0,4.0,87,0.00,,---,0.00,VWS V14.01,2013-01-15 02:24:00,
2013-01-14 21:29:00,25.7,22.4,30.31,NE,55,3.0,3.0,87,0.00,,---,0.00,VWS V14.01,2013-01-15 02:29:00,
2013-01-14 21:34:00,25.6,22.3,30.31,ENE,68,2.0,3.0,87,0.00,,---,0.00,VWS V14.01,2013-01-15 02:34:00,
2013-01-14 21:39:00,25.6,22.3,30.31,NE,51,0.0,3.0,87,0.00,,---,0.00,VWS V14.01,2013-01-15 02:39:00,
2013-01-14 21:45:00,25.5,22.2,30.32,NNE,29,0.0,2.0,87,0.00,,---,0.00,VWS V14.01,2013-01-15 02:45:00,
2013-01-14 21:50:00,25.4,22.1,30.32,North,350,0.0,2.0,87,0.00,,---,0.00,VWS V14.01,2013-01-15 02:50:00,
2013-01-14 21:55:00,25.3,22.0,30.32,NNE,32,0.0,2.0,87,0.00,,---,0.00,VWS V14.01,2013-01-15 02:55:00,
2013-01-14 22:00:00,25.2,21.9,30.32,NNE,32,0.0,1.0,87,0.00,,---,0.00,VWS V14.01,2013-01-15 03:00:00,
2013-01-14 22:05:00,25.2,22.1,30.32,ENE,61,2.0,2.0,88,0.00,,---,0.00,VWS V14.01,2013-01-15 03:05:00,
2013-01-14 22:10:00,25.1,22.0,30.32,ENE,61,0.0,2.0,88,0.00,,---,0.00,VWS V14.01,2013-01-15 03:10:00,
2013-01-14 22:15:00,25.1,22.0,30.32,NNE,28,1.0,2.0,88,0.00,,---,0.00,VWS V14.01,2013-01-15 03:15:00,
2013-01-14 22:20:00,25.0,22.0,30.32,NE,42,0.0,1.0,88,0.00,,---,0.00,VWS V14.01,2013-01-15 03:20:00,
2013-01-14 22:25:00,24.9,21.9,30.32,NE,42,0.0,0.0,88,0.00,,---,0.00,VWS V14.01,2013-01-15 03:25:00,
2013-01-14 22:30:00,24.8,21.8,30.33,NE,42,0.0,2.0,88,0.00,,---,0.00,VWS V14.01,2013-01-15 03:30:00,
2013-01-14 22:36:00,24.7,21.7,30.32,NE,42,0.0,0.0,88,0.00,,---,0.00,VWS V14.01,2013-01-15 03:36:00,
2013-01-14 22:42:00,24.6,21.6,30.32,NE,42,0.0,0.0,88,0.00,,---,0.00,VWS V14.01,2013-01-15 03:42:00,
2013-01-14 22:47:00,24.6,21.6,30.32,NE,42,0.0,0.0,88,0.00,,---,0.00,VWS V14.01,2013-01-15 03:47:00,
2013-01-14 22:53:00,24.5,21.5,30.32,NE,43,0.0,1.0,88,0.00,,---,0.00,VWS V14.01,2013-01-15 03:53:00,
2013-01-14 22:58:00,24.4,21.4,30.32,NE,43,0.0,0.0,88,0.00,,---,0.00,VWS V14.01,2013-01-15 03:58:00,
2013-01-14 23:03:00,24.3,21.3,30.32,NE,43,0.0,1.0,88,0.00,,---,0.00,VWS V14.01,2013-01-15 04:03:00,
2013-01-14 23:08:00,24.2,21.4,30.31,NE,43,0.0,0.0,89,0.00,,---,0.00,VWS V14.01,2013-01-15 04:08:00,
2013-01-14 23:13:00,24.0,21.2,30.31,NE,43,0.0,0.0,89,0.00,,---,0.00,VWS V14.01,2013-01-15 04:13:00,
2013-01-14 23:18:00,23.9,21.1,30.32,NE,43,2.0,2.0,89,0.00,,---,0.00,VWS V14.01,2013-01-15 04:18:00,
2013-01-14 23:24:00,23.9,21.1,30.31,NE,38,0.0,1.0,89,0.00,,---,0.00,VWS V14.01,2013-01-15 04:24:00,
2013-01-14 23:29:00,23.8,21.0,30.32,NE,38,0.0,0.0,89,0.00,,---,0.00,VWS V14.01,2013-01-15 04:29:00,
2013-01-14 23:35:00,24.0,21.5,30.32,NNE,22,2.0,3.0,90,0.00,,---,0.00,VWS V14.01,2013-01-15 04:35:00,
2013-01-14 23:40:00,24.0,21.5,30.32,NNE,21,1.0,2.0,90,0.00,,---,0.00,VWS V14.01,2013-01-15 04:40:00,
2013-01-14 23:46:00,24.2,21.7,30.32,North,9,3.0,3.0,90,0.00,,---,0.00,VWS V14.01,2013-01-15 04:46:00,
2013-01-14 23:52:00,24.3,21.8,30.32,NNW,336,0.0,3.0,90,0.00,,---,0.00,VWS V14.01,2013-01-15 04:52:00,
2013-01-14 23:57:00,24.3,21.8,30.32,NNW,335,2.0,3.0,90,0.00,,---,0.00,VWS V14.01,2013-01-15 04:57:00,